Wetterdaten: Montag, 30.01.2023
Datum Zeit Temp. 2m Temp +5 cm Feuchte A. Luftdruck Regen Wind Richtung Richtung Sonnenschein UV Solar Taupunkt Windchill Windben
30.01.2023 00:00 -1,4 C -1,1 C 93 % 1025,9 hPa 0,0 l/m 19,3 km/h (3 Bft) S-SW 202 0 min 0,0 UV-I 0 W/m -2,4 C -11,1 C 24,1 km/h (4 Bft)
30.01.2023 00:01 -1,4 C -1,1 C 93 % 1026,0 hPa 0,0 l/m 17,7 km/h (3 Bft) S-SW 202 0 min 0,0 UV-I 0 W/m -2,4 C -10,3 C 22,5 km/h (4 Bft)
30.01.2023 00:02 -1,4 C -1,7 C 93 % 1025,9 hPa 0,0 l/m 16,1 km/h (3 Bft) S-SW 202 0 min 0,0 UV-I 0 W/m -2,4 C -9,3 C 24,1 km/h (4 Bft)
30.01.2023 00:03 -1,4 C -1,7 C 93 % 1026,0 hPa 0,0 l/m 12,9 km/h (3 Bft) S-SW 202 0 min 0,0 UV-I 0 W/m -2,4 C -7,3 C 17,7 km/h (3 Bft)
30.01.2023 00:04 -1,4 C -1,7 C 93 % 1026,0 hPa 0,0 l/m 11,3 km/h (2 Bft) S-SW 202 0 min 0,0 UV-I 0 W/m -2,4 C -6,1 C 16,1 km/h (3 Bft)
30.01.2023 00:05 -1,4 C -1,7 C 93 % 1026,0 hPa 0,0 l/m 17,7 km/h (3 Bft) S-SW 202 0 min 0,0 UV-I 0 W/m -2,4 C -10,3 C 24,1 km/h (4 Bft)
30.01.2023 00:06 -1,4 C -1,1 C 93 % 1026,0 hPa 0,0 l/m 16,1 km/h (3 Bft) S-SW 202 0 min 0,0 UV-I 0 W/m -2,4 C -9,3 C 20,9 km/h (4 Bft)
30.01.2023 00:07 -1,4 C -1,1 C 93 % 1026,0 hPa 0,0 l/m 16,1 km/h (3 Bft) S-SW 202 0 min 0,0 UV-I 0 W/m -2,4 C -9,3 C 24,1 km/h (4 Bft)
30.01.2023 00:08 -1,4 C -1,1 C 93 % 1025,9 hPa 0,0 l/m 12,9 km/h (3 Bft) S 180 0 min 0,0 UV-I 0 W/m -2,4 C -7,3 C 17,7 km/h (3 Bft)
30.01.2023 00:09 -1,3 C -1,1 C 93 % 1026,0 hPa 0,0 l/m 14,5 km/h (3 Bft) S-SW 202 0 min 0,0 UV-I 0 W/m -2,3 C -8,2 C 19,3 km/h (3 Bft)
30.01.2023 00:10 -1,3 C -1,1 C 93 % 1025,9 hPa 0,0 l/m 16,1 km/h (3 Bft) S-SW 202 0 min 0,0 UV-I 0 W/m -2,3 C -9,2 C 22,5 km/h (4 Bft)
30.01.2023 00:11 -1,3 C -1,1 C 93 % 1026,0 hPa 0,0 l/m 14,5 km/h (3 Bft) S-SW 202 0 min 0,0 UV-I 0 W/m -2,3 C -8,2 C 19,3 km/h (3 Bft)
30.01.2023 00:12 -1,3 C -1,1 C 93 % 1025,9 hPa 0,0 l/m 16,1 km/h (3 Bft) S-SW 202 0 min 0,0 UV-I 0 W/m -2,3 C -9,2 C 19,3 km/h (3 Bft)
30.01.2023 00:13 -1,3 C -1,1 C 93 % 1025,9 hPa 0,0 l/m 19,3 km/h (3 Bft) S-SW 202 0 min 0,0 UV-I 0 W/m -2,3 C -11,0 C 24,1 km/h (4 Bft)
30.01.2023 00:14 -1,3 C -1,1 C 93 % 1026,0 hPa 0,0 l/m 16,1 km/h (3 Bft) S-SW 202 0 min 0,0 UV-I 0 W/m -2,3 C -9,2 C 25,7 km/h (4 Bft)
30.01.2023 00:15 -1,3 C -1,1 C 93 % 1025,8 hPa 0,0 l/m 12,9 km/h (3 Bft) S-SW 202 0 min 0,0 UV-I 0 W/m -2,3 C -7,2 C 27,4 km/h (4 Bft)
30.01.2023 00:16 -1,3 C -1,1 C 93 % 1025,8 hPa 0,0 l/m 14,5 km/h (3 Bft) S-SW 202 0 min 0,0 UV-I 0 W/m -2,3 C -8,2 C 20,9 km/h (4 Bft)
30.01.2023 00:17 -1,3 C -1,1 C 93 % 1026,0 hPa 0,0 l/m 17,7 km/h (3 Bft) S 180 0 min 0,0 UV-I 0 W/m -2,3 C -10,1 C 22,5 km/h (4 Bft)
30.01.2023 00:18 -1,3 C -1,1 C 93 % 1026,0 hPa 0,0 l/m 16,1 km/h (3 Bft) S 180 0 min 0,0 UV-I 0 W/m -2,3 C -9,2 C 22,5 km/h (4 Bft)
30.01.2023 00:19 -1,2 C -1,1 C 93 % 1026,1 hPa 0,0 l/m 14,5 km/h (3 Bft) S-SW 202 0 min 0,0 UV-I 0 W/m -2,2 C -8,1 C 19,3 km/h (3 Bft)
30.01.2023 00:20 -1,2 C -1,1 C 93 % 1026,1 hPa 0,0 l/m 14,5 km/h (3 Bft) S-SW 202 0 min 0,0 UV-I 0 W/m -2,2 C -8,1 C 19,3 km/h (3 Bft)
30.01.2023 00:21 -1,2 C -1,1 C 93 % 1026,1 hPa 0,0 l/m 14,5 km/h (3 Bft) S-SW 202 0 min 0,0 UV-I 0 W/m -2,2 C -8,1 C 20,9 km/h (4 Bft)
30.01.2023 00:22 -1,2 C -1,1 C 93 % 1026,0 hPa 0,0 l/m 11,3 km/h (2 Bft) S-SW 202 0 min 0,0 UV-I 0 W/m -2,2 C -5,8 C 16,1 km/h (3 Bft)
30.01.2023 00:23 -1,2 C -1,1 C 93 % 1026,1 hPa 0,0 l/m 14,5 km/h (3 Bft) S-SW 202 0 min 0,0 UV-I 0 W/m -2,2 C -8,1 C 17,7 km/h (3 Bft)
30.01.2023 00:24 -1,2 C -1,1 C 93 % 1026,1 hPa 0,0 l/m 16,1 km/h (3 Bft) S-SW 202 0 min 0,0 UV-I 0 W/m -2,2 C -9,1 C 19,3 km/h (3 Bft)
30.01.2023 00:25 -1,2 C -1,1 C 93 % 1026,1 hPa 0,0 l/m 14,5 km/h (3 Bft) S-SW 202 0 min 0,0 UV-I 0 W/m -2,2 C -8,1 C 19,3 km/h (3 Bft)
30.01.2023 00:26 -1,2 C -1,1 C 93 % 1026,2 hPa 0,0 l/m 14,5 km/h (3 Bft) S-SW 202 0 min 0,0 UV-I 0 W/m -2,2 C -8,1 C 20,9 km/h (4 Bft)
30.01.2023 00:27 -1,2 C -1,1 C 93 % 1026,1 hPa 0,0 l/m 16,1 km/h (3 Bft) S-SW 202 0 min 0,0 UV-I 0 W/m -2,2 C -9,1 C 20,9 km/h (4 Bft)
30.01.2023 00:28 -1,2 C -1,1 C 93 % 1026,1 hPa 0,0 l/m 17,7 km/h (3 Bft) SW 225 0 min 0,0 UV-I 0 W/m -2,2 C -10,0 C 22,5 km/h (4 Bft)
30.01.2023 00:29 -1,2 C -1,1 C 93 % 1026,1 hPa 0,0 l/m 17,7 km/h (3 Bft) S-SW 202 0 min 0,0 UV-I 0 W/m -2,2 C -10,0 C 20,9 km/h (4 Bft)
30.01.2023 00:30 -1,2 C -1,1 C 93 % 1025,9 hPa 0,0 l/m 19,3 km/h (3 Bft) S-SW 202 0 min 0,0 UV-I 0 W/m -2,2 C -10,8 C 27,4 km/h (4 Bft)
30.01.2023 00:31 -1,2 C -1,7 C 93 % 1025,9 hPa 0,0 l/m 14,5 km/h (3 Bft) S-SW 202 0 min 0,0 UV-I 0 W/m -2,2 C -8,1 C 19,3 km/h (3 Bft)
30.01.2023 00:32 -1,2 C -1,7 C 93 % 1026,0 hPa 0,0 l/m 19,3 km/h (3 Bft) S-SW 202 0 min 0,0 UV-I 0 W/m -2,2 C -10,8 C 25,7 km/h (4 Bft)
30.01.2023 00:33 -1,2 C -1,7 C 93 % 1025,9 hPa 0,0 l/m 19,3 km/h (3 Bft) S 180 0 min 0,0 UV-I 0 W/m -2,2 C -10,8 C 25,7 km/h (4 Bft)
30.01.2023 00:34 -1,2 C -1,7 C 93 % 1025,7 hPa 0,0 l/m 19,3 km/h (3 Bft) S 180 0 min 0,0 UV-I 0 W/m -2,2 C -10,8 C 29,0 km/h (5 Bft)
30.01.2023 00:35 -1,2 C -1,7 C 93 % 1025,7 hPa 0,0 l/m 19,3 km/h (3 Bft) S-SW 202 0 min 0,0 UV-I 0 W/m -2,2 C -10,8 C 27,4 km/h (4 Bft)
30.01.2023 00:36 -1,2 C -1,7 C 93 % 1025,7 hPa 0,0 l/m 12,9 km/h (3 Bft) S 180 0 min 0,0 UV-I 0 W/m -2,2 C -7,0 C 30,6 km/h (5 Bft)
30.01.2023 00:37 -1,2 C -1,7 C 93 % 1025,6 hPa 0,0 l/m 14,5 km/h (3 Bft) S-SW 202 0 min 0,0 UV-I 0 W/m -2,2 C -8,1 C 24,1 km/h (4 Bft)
30.01.2023 00:38 -1,2 C -1,7 C 93 % 1025,6 hPa 0,0 l/m 16,1 km/h (3 Bft) S-SW 202 0 min 0,0 UV-I 0 W/m -2,2 C -9,1 C 20,9 km/h (4 Bft)
30.01.2023 00:39 -1,2 C -1,7 C 93 % 1025,6 hPa 0,0 l/m 12,9 km/h (3 Bft) S 180 0 min 0,0 UV-I 0 W/m -2,2 C -7,0 C 20,9 km/h (4 Bft)
30.01.2023 00:40 -1,2 C -1,7 C 93 % 1025,5 hPa 0,0 l/m 17,7 km/h (3 Bft) S 180 0 min 0,0 UV-I 0 W/m -2,2 C -10,0 C 25,7 km/h (4 Bft)
30.01.2023 00:41 -1,2 C -1,7 C 93 % 1025,5 hPa 0,0 l/m 14,5 km/h (3 Bft) S 180 0 min 0,0 UV-I 0 W/m -2,2 C -8,1 C 19,3 km/h (3 Bft)
30.01.2023 00:42 -1,2 C -1,7 C 93 % 1025,5 hPa 0,0 l/m 12,9 km/h (3 Bft) S-SW 202 0 min 0,0 UV-I 0 W/m -2,2 C -7,0 C 24,1 km/h (4 Bft)
30.01.2023 00:43 -1,2 C -1,7 C 93 % 1025,5 hPa 0,0 l/m 17,7 km/h (3 Bft) S 180 0 min 0,0 UV-I 0 W/m -2,2 C -10,0 C 32,2 km/h (5 Bft)
30.01.2023 00:44 -1,2 C -1,7 C 93 % 1025,5 hPa 0,0 l/m 17,7 km/h (3 Bft) S 180 0 min 0,0 UV-I 0 W/m -2,2 C -10,0 C 24,1 km/h (4 Bft)
30.01.2023 00:45 -1,2 C -1,7 C 93 % 1025,4 hPa 0,0 l/m 16,1 km/h (3 Bft) S 180 0 min 0,0 UV-I 0 W/m -2,2 C -9,1 C 22,5 km/h (4 Bft)
30.01.2023 00:46 -1,2 C -1,7 C 93 % 1025,5 hPa 0,0 l/m 17,7 km/h (3 Bft) S-SW 202 0 min 0,0 UV-I 0 W/m -2,2 C -10,0 C 25,7 km/h (4 Bft)
30.01.2023 00:47 -1,2 C -1,7 C 93 % 1025,5 hPa 0,0 l/m 14,5 km/h (3 Bft) S-SW 202 0 min 0,0 UV-I 0 W/m -2,2 C -8,1 C 17,7 km/h (3 Bft)
30.01.2023 00:48 -1,2 C -1,7 C 93 % 1025,6 hPa 0,0 l/m 14,5 km/h (3 Bft) S-SW 202 0 min 0,0 UV-I 0 W/m -2,2 C -8,1 C 22,5 km/h (4 Bft)
30.01.2023 00:49 -1,2 C -1,7 C 93 % 1025,7 hPa 0,0 l/m 17,7 km/h (3 Bft) S-SW 202 0 min 0,0 UV-I 0 W/m -2,2 C -10,0 C 29,0 km/h (5 Bft)
30.01.2023 00:50 -1,2 C -1,7 C 93 % 1025,7 hPa 0,0 l/m 16,1 km/h (3 Bft) S-SW 202 0 min 0,0 UV-I 0 W/m -2,2 C -9,1 C 20,9 km/h (4 Bft)
30.01.2023 00:51 -1,2 C -1,7 C 93 % 1025,6 hPa 0,0 l/m 16,1 km/h (3 Bft) S-SW 202 0 min 0,0 UV-I 0 W/m -2,2 C -9,1 C 19,3 km/h (3 Bft)
30.01.2023 00:52 -1,2 C -1,7 C 93 % 1025,4 hPa 0,0 l/m 16,1 km/h (3 Bft) S 180 0 min 0,0 UV-I 0 W/m -2,2 C -9,1 C 19,3 km/h (3 Bft)
30.01.2023 00:53 -1,2 C -1,7 C 93 % 1025,3 hPa 0,0 l/m 12,9 km/h (3 Bft) S 180 0 min 0,0 UV-I 0 W/m -2,2 C -7,0 C 19,3 km/h (3 Bft)
30.01.2023 00:54 -1,2 C -1,7 C 93 % 1025,2 hPa 0,0 l/m 17,7 km/h (3 Bft) S 180 0 min 0,0 UV-I 0 W/m -2,2 C -10,0 C 25,7 km/h (4 Bft)
30.01.2023 00:55 -1,2 C -1,7 C 93 % 1025,2 hPa 0,0 l/m 12,9 km/h (3 Bft) S-SW 202 0 min 0,0 UV-I 0 W/m -2,2 C -7,0 C 20,9 km/h (4 Bft)
30.01.2023 00:56 -1,2 C -1,7 C 93 % 1025,2 hPa 0,0 l/m 16,1 km/h (3 Bft) S 180 0 min 0,0 UV-I 0 W/m -2,2 C -9,1 C 22,5 km/h (4 Bft)
30.01.2023 00:57 -1,2 C -1,7 C 93 % 1025,1 hPa 0,0 l/m 14,5 km/h (3 Bft) S-SW 202 0 min 0,0 UV-I 0 W/m -2,2 C -8,1 C 20,9 km/h (4 Bft)
30.01.2023 00:58 -1,2 C -1,7 C 93 % 1025,1 hPa 0,0 l/m 16,1 km/h (3 Bft) S 180 0 min 0,0 UV-I 0 W/m -2,2 C -9,1 C 24,1 km/h (4 Bft)
30.01.2023 00:59 -1,2 C -1,7 C 93 % 1025,0 hPa 0,0 l/m 16,1 km/h (3 Bft) S 180 0 min 0,0 UV-I 0 W/m -2,2 C -9,1 C 24,1 km/h (4 Bft)
30.01.2023 01:00 -1,2 C -1,7 C 93 % 1025,0 hPa 0,0 l/m 17,7 km/h (3 Bft) S 180 0 min 0,0 UV-I 0 W/m -2,2 C -10,0 C 29,0 km/h (5 Bft)
30.01.2023 01:01 -1,2 C -1,7 C 93 % 1025,0 hPa 0,0 l/m 19,3 km/h (3 Bft) S-SW 202 0 min 0,0 UV-I 0 W/m -2,2 C -10,8 C 25,7 km/h (4 Bft)
30.01.2023 01:02 -1,1 C -1,7 C 93 % 1025,2 hPa 0,0 l/m 17,7 km/h (3 Bft) S-SW 202 0 min 0,0 UV-I 0 W/m -2,1 C -9,9 C 27,4 km/h (4 Bft)
30.01.2023 01:03 -1,1 C -1,1 C 93 % 1025,3 hPa 0,0 l/m 16,1 km/h (3 Bft) S-SW 202 0 min 0,0 UV-I 0 W/m -2,1 C -9,0 C 22,5 km/h (4 Bft)
30.01.2023 01:04 -1,1 C -1,1 C 93 % 1025,2 hPa 0,0 l/m 16,1 km/h (3 Bft) S-SW 202 0 min 0,0 UV-I 0 W/m -2,1 C -9,0 C 22,5 km/h (4 Bft)
30.01.2023 01:05 -1,1 C -1,1 C 93 % 1025,3 hPa 0,0 l/m 14,5 km/h (3 Bft) S-SW 202 0 min 0,0 UV-I 0 W/m -2,1 C -8,0 C 19,3 km/h (3 Bft)
30.01.2023 01:06 -1,1 C -1,1 C 93 % 1025,5 hPa 0,0 l/m 14,5 km/h (3 Bft) S-SW 202 0 min 0,0 UV-I 0 W/m -2,1 C -8,0 C 24,1 km/h (4 Bft)
30.01.2023 01:07 -1,1 C -1,1 C 93 % 1025,5 hPa 0,0 l/m 19,3 km/h (3 Bft) S-SW 202 0 min 0,0 UV-I 0 W/m -2,1 C -10,7 C 25,7 km/h (4 Bft)
30.01.2023 01:08 -1,1 C -1,1 C 93 % 1025,4 hPa 0,0 l/m 17,7 km/h (3 Bft) S-SW 202 0 min 0,0 UV-I 0 W/m -2,1 C -9,9 C 27,4 km/h (4 Bft)
30.01.2023 01:09 -1,1 C -1,1 C 93 % 1025,3 hPa 0,0 l/m 14,5 km/h (3 Bft) S-SW 202 0 min 0,0 UV-I 0 W/m -2,1 C -8,0 C 20,9 km/h (4 Bft)
30.01.2023 01:10 -1,1 C -1,1 C 93 % 1025,4 hPa 0,0 l/m 16,1 km/h (3 Bft) S-SW 202 0 min 0,0 UV-I 0 W/m -2,1 C -9,0 C 20,9 km/h (4 Bft)
30.01.2023 01:11 -1,1 C -1,1 C 93 % 1025,4 hPa 0,0 l/m 11,3 km/h (2 Bft) S-SW 202 0 min 0,0 UV-I 0 W/m -2,1 C -5,7 C 16,1 km/h (3 Bft)
30.01.2023 01:12 -1,1 C -1,1 C 93 % 1025,4 hPa 0,0 l/m 16,1 km/h (3 Bft) S-SW 202 0 min 0,0 UV-I 0 W/m -2,1 C -9,0 C 24,1 km/h (4 Bft)
30.01.2023 01:13 -1,1 C -1,1 C 93 % 1025,3 hPa 0,0 l/m 19,3 km/h (3 Bft) S-SW 202 0 min 0,0 UV-I 0 W/m -2,1 C -10,7 C 25,7 km/h (4 Bft)
30.01.2023 01:14 -1,1 C -1,1 C 93 % 1025,4 hPa 0,0 l/m 17,7 km/h (3 Bft) S-SW 202 0 min 0,0 UV-I 0 W/m -2,1 C -9,9 C 24,1 km/h (4 Bft)
30.01.2023 01:15 -1,1 C -1,1 C 93 % 1025,4 hPa 0,0 l/m 12,9 km/h (3 Bft) S-SW 202 0 min 0,0 UV-I 0 W/m -2,1 C -6,9 C 17,7 km/h (3 Bft)
30.01.2023 01:16 -1,1 C -1,1 C 93 % 1025,3 hPa 0,0 l/m 17,7 km/h (3 Bft) S-SW 202 0 min 0,0 UV-I 0 W/m -2,1 C -9,9 C 22,5 km/h (4 Bft)
30.01.2023 01:17 -1,1 C -1,1 C 93 % 1025,3 hPa 0,0 l/m 12,9 km/h (3 Bft) S-SW 202 0 min 0,0 UV-I 0 W/m -2,1 C -6,9 C 17,7 km/h (3 Bft)
30.01.2023 01:18 -1,1 C -1,1 C 93 % 1025,3 hPa 0,0 l/m 14,5 km/h (3 Bft) S 180 0 min 0,0 UV-I 0 W/m -2,1 C -8,0 C 22,5 km/h (4 Bft)
30.01.2023 01:19 -1,1 C -1,1 C 93 % 1025,3 hPa 0,0 l/m 16,1 km/h (3 Bft) S-SW 202 0 min 0,0 UV-I 0 W/m -2,1 C -9,0 C 25,7 km/h (4 Bft)
30.01.2023 01:20 -1,1 C -1,1 C 93 % 1025,2 hPa 0,0 l/m 19,3 km/h (3 Bft) S 180 0 min 0,0 UV-I 0 W/m -2,1 C -10,7 C 22,5 km/h (4 Bft)
30.01.2023 01:21 -1,0 C -1,1 C 93 % 1025,1 hPa 0,0 l/m 12,9 km/h (3 Bft) S 180 0 min 0,0 UV-I 0 W/m -2,0 C -6,8 C 19,3 km/h (3 Bft)
30.01.2023 01:22 -1,0 C -1,1 C 93 % 1025,1 hPa 0,0 l/m 20,9 km/h (4 Bft) S-SW 202 0 min 0,0 UV-I 0 W/m -2,0 C -11,3 C 29,0 km/h (5 Bft)
30.01.2023 01:23 -1,1 C -1,1 C 93 % 1025,1 hPa 0,0 l/m 16,1 km/h (3 Bft) S-SW 202 0 min 0,0 UV-I 0 W/m -2,1 C -9,0 C 24,1 km/h (4 Bft)
30.01.2023 01:24 -1,0 C -1,1 C 93 % 1025,2 hPa 0,0 l/m 14,5 km/h (3 Bft) S 180 0 min 0,0 UV-I 0 W/m -2,0 C -7,9 C 20,9 km/h (4 Bft)
30.01.2023 01:25 -1,0 C -1,1 C 93 % 1025,1 hPa 0,0 l/m 16,1 km/h (3 Bft) S-SW 202 0 min 0,0 UV-I 0 W/m -2,0 C -8,9 C 25,7 km/h (4 Bft)
30.01.2023 01:26 -1,0 C -1,1 C 93 % 1025,1 hPa 0,0 l/m 19,3 km/h (3 Bft) S-SW 202 0 min 0,0 UV-I 0 W/m -2,0 C -10,6 C 25,7 km/h (4 Bft)
30.01.2023 01:27 -1,0 C -1,1 C 93 % 1025,1 hPa 0,0 l/m 19,3 km/h (3 Bft) S-SW 202 0 min 0,0 UV-I 0 W/m -2,0 C -10,6 C 24,1 km/h (4 Bft)
30.01.2023 01:28 -1,0 C -1,1 C 93 % 1025,1 hPa 0,0 l/m 14,5 km/h (3 Bft) S 180 0 min 0,0 UV-I 0 W/m -2,0 C -7,9 C 20,9 km/h (4 Bft)
30.01.2023 01:29 -1,0 C -1,1 C 93 % 1025,1 hPa 0,0 l/m 11,3 km/h (2 Bft) S-SW 202 0 min 0,0 UV-I 0 W/m -2,0 C -5,6 C 16,1 km/h (3 Bft)
30.01.2023 01:30 -1,0 C -1,1 C 93 % 1025,0 hPa 0,0 l/m 16,1 km/h (3 Bft) S 180 0 min 0,0 UV-I 0 W/m -2,0 C -8,9 C 22,5 km/h (4 Bft)
30.01.2023 01:31 -1,0 C -1,1 C 93 % 1025,0 hPa 0,0 l/m 17,7 km/h (3 Bft) S-SW 202 0 min 0,0 UV-I 0 W/m -2,0 C -9,8 C 24,1 km/h (4 Bft)
30.01.2023 01:32 -1,0 C -1,1 C 93 % 1025,1 hPa 0,0 l/m 12,9 km/h (3 Bft) S 180 0 min 0,0 UV-I 0 W/m -2,0 C -6,8 C 17,7 km/h (3 Bft)
30.01.2023 01:33 -1,0 C -1,1 C 93 % 1025,1 hPa 0,0 l/m 16,1 km/h (3 Bft) S-SW 202 0 min 0,0 UV-I 0 W/m -2,0 C -8,9 C 24,1 km/h (4 Bft)
30.01.2023 01:34 -1,1 C -1,1 C 93 % 1025,1 hPa 0,0 l/m 16,1 km/h (3 Bft) S-SW 202 0 min 0,0 UV-I 0 W/m -2,1 C -9,0 C 22,5 km/h (4 Bft)
30.01.2023 01:35 -1,0 C -1,1 C 93 % 1025,0 hPa 0,0 l/m 12,9 km/h (3 Bft) S 180 0 min 0,0 UV-I 0 W/m -2,0 C -6,8 C 19,3 km/h (3 Bft)
30.01.2023 01:36 -1,0 C -1,1 C 93 % 1025,0 hPa 0,0 l/m 14,5 km/h (3 Bft) S 180 0 min 0,0 UV-I 0 W/m -2,0 C -7,9 C 20,9 km/h (4 Bft)
30.01.2023 01:37 -1,0 C -1,1 C 93 % 1024,8 hPa 0,0 l/m 14,5 km/h (3 Bft) S 180 0 min 0,0 UV-I 0 W/m -2,0 C -7,9 C 20,9 km/h (4 Bft)
30.01.2023 01:38 -1,0 C -1,1 C 93 % 1024,8 hPa 0,0 l/m 17,7 km/h (3 Bft) S 180 0 min 0,0 UV-I 0 W/m -2,0 C -9,8 C 22,5 km/h (4 Bft)
30.01.2023 01:39 -1,0 C -1,1 C 93 % 1024,8 hPa 0,0 l/m 14,5 km/h (3 Bft) S 180 0 min 0,0 UV-I 0 W/m -2,0 C -7,9 C 20,9 km/h (4 Bft)
30.01.2023 01:40 -1,0 C -1,1 C 93 % 1024,7 hPa 0,0 l/m 12,9 km/h (3 Bft) S 180 0 min 0,0 UV-I 0 W/m -2,0 C -6,8 C 24,1 km/h (4 Bft)
30.01.2023 01:41 -1,0 C -1,1 C 93 % 1024,6 hPa 0,0 l/m 19,3 km/h (3 Bft) S-SW 202 0 min 0,0 UV-I 0 W/m -2,0 C -10,6 C 25,7 km/h (4 Bft)
30.01.2023 01:42 -1,0 C -1,1 C 93 % 1024,7 hPa 0,0 l/m 19,3 km/h (3 Bft) S 180 0 min 0,0 UV-I 0 W/m -2,0 C -10,6 C 25,7 km/h (4 Bft)
30.01.2023 01:43 -1,0 C -1,1 C 93 % 1024,6 hPa 0,0 l/m 19,3 km/h (3 Bft) S-SW 202 0 min 0,0 UV-I 0 W/m -2,0 C -10,6 C 27,4 km/h (4 Bft)
30.01.2023 01:44 -1,0 C -1,1 C 93 % 1024,6 hPa 0,0 l/m 14,5 km/h (3 Bft) S-SW 202 0 min 0,0 UV-I 0 W/m -2,0 C -7,9 C 17,7 km/h (3 Bft)
30.01.2023 01:45 -1,0 C -1,1 C 93 % 1024,7 hPa 0,0 l/m 16,1 km/h (3 Bft) S 180 0 min 0,0 UV-I 0 W/m -2,0 C -8,9 C 24,1 km/h (4 Bft)
30.01.2023 01:46 -0,9 C -1,1 C 93 % 1024,7 hPa 0,0 l/m 16,1 km/h (3 Bft) S 180 0 min 0,0 UV-I 0 W/m -1,9 C -8,7 C 22,5 km/h (4 Bft)
30.01.2023 01:47 -0,9 C -1,1 C 93 % 1024,5 hPa 0,0 l/m 16,1 km/h (3 Bft) S-SW 202 0 min 0,0 UV-I 0 W/m -1,9 C -8,7 C 24,1 km/h (4 Bft)
30.01.2023 01:48 -0,9 C -1,1 C 93 % 1024,6 hPa 0,0 l/m 16,1 km/h (3 Bft) S 180 0 min 0,0 UV-I 0 W/m -1,9 C -8,7 C 20,9 km/h (4 Bft)
30.01.2023 01:49 -0,9 C -1,1 C 93 % 1024,6 hPa 0,0 l/m 16,1 km/h (3 Bft) S-SW 202 0 min 0,0 UV-I 0 W/m -1,9 C -8,7 C 22,5 km/h (4 Bft)
30.01.2023 01:50 -0,9 C -1,1 C 93 % 1024,5 hPa 0,0 l/m 12,9 km/h (3 Bft) S-SW 202 0 min 0,0 UV-I 0 W/m -1,9 C -6,7 C 20,9 km/h (4 Bft)
30.01.2023 01:51 -0,9 C -1,1 C 93 % 1024,6 hPa 0,0 l/m 16,1 km/h (3 Bft) S-SW 202 0 min 0,0 UV-I 0 W/m -1,9 C -8,7 C 24,1 km/h (4 Bft)
30.01.2023 01:52 -0,9 C -1,1 C 93 % 1024,4 hPa 0,0 l/m 12,9 km/h (3 Bft) S-SW 202 0 min 0,0 UV-I 0 W/m -1,9 C -6,7 C 17,7 km/h (3 Bft)
30.01.2023 01:53 -0,9 C -1,1 C 93 % 1024,4 hPa 0,0 l/m 17,7 km/h (3 Bft) S-SW 202 0 min 0,0 UV-I 0 W/m -1,9 C -9,6 C 22,5 km/h (4 Bft)
30.01.2023 01:54 -0,9 C -1,1 C 93 % 1024,4 hPa 0,0 l/m 14,5 km/h (3 Bft) S-SW 202 0 min 0,0 UV-I 0 W/m -1,9 C -7,8 C 25,7 km/h (4 Bft)
30.01.2023 01:55 -0,9 C -1,1 C 93 % 1024,3 hPa 0,0 l/m 17,7 km/h (3 Bft) S 180 0 min 0,0 UV-I 0 W/m -1,9 C -9,6 C 22,5 km/h (4 Bft)
30.01.2023 01:56 -0,9 C -1,1 C 93 % 1024,4 hPa 0,0 l/m 20,9 km/h (4 Bft) S 180 0 min 0,0 UV-I 0 W/m -1,9 C -11,2 C 29,0 km/h (5 Bft)
30.01.2023 01:57 -0,9 C -1,1 C 93 % 1024,2 hPa 0,0 l/m 16,1 km/h (3 Bft) S-SW 202 0 min 0,0 UV-I 0 W/m -1,9 C -8,7 C 20,9 km/h (4 Bft)
30.01.2023 01:58 -0,9 C -1,1 C 93 % 1024,2 hPa 0,0 l/m 12,9 km/h (3 Bft) S 180 0 min 0,0 UV-I 0 W/m -1,9 C -6,7 C 20,9 km/h (4 Bft)
30.01.2023 01:59 -0,9 C -1,1 C 93 % 1024,2 hPa 0,0 l/m 16,1 km/h (3 Bft) S 180 0 min 0,0 UV-I 0 W/m -1,9 C -8,7 C 32,2 km/h (5 Bft)
30.01.2023 02:00 -0,9 C -1,1 C 93 % 1024,3 hPa 0,0 l/m 19,3 km/h (3 Bft) S-SW 202 0 min 0,0 UV-I 0 W/m -1,9 C -10,5 C 25,7 km/h (4 Bft)
30.01.2023 02:01 -0,8 C -1,1 C 93 % 1024,2 hPa 0,0 l/m 17,7 km/h (3 Bft) S 180 0 min 0,0 UV-I 0 W/m -1,8 C -9,5 C 24,1 km/h (4 Bft)
30.01.2023 02:02 -0,8 C -1,1 C 93 % 1024,2 hPa 0,0 l/m 17,7 km/h (3 Bft) S-SW 202 0 min 0,0 UV-I 0 W/m -1,8 C -9,5 C 22,5 km/h (4 Bft)
30.01.2023 02:03 -0,8 C -1,1 C 93 % 1024,2 hPa 0,0 l/m 12,9 km/h (3 Bft) S 180 0 min 0,0 UV-I 0 W/m -1,8 C -6,6 C 27,4 km/h (4 Bft)
30.01.2023 02:04 -0,9 C -1,1 C 93 % 1024,2 hPa 0,0 l/m 11,3 km/h (2 Bft) S-SW 202 0 min 0,0 UV-I 0 W/m -1,9 C -5,5 C 14,5 km/h (3 Bft)
30.01.2023 02:05 -0,8 C -1,1 C 93 % 1024,1 hPa 0,0 l/m 16,1 km/h (3 Bft) S-SW 202 0 min 0,0 UV-I 0 W/m -1,8 C -8,6 C 24,1 km/h (4 Bft)
30.01.2023 02:06 -0,8 C -1,1 C 93 % 1024,0 hPa 0,0 l/m 19,3 km/h (3 Bft) S-SW 202 0 min 0,0 UV-I 0 W/m -1,8 C -10,3 C 24,1 km/h (4 Bft)
30.01.2023 02:07 -0,8 C -1,1 C 93 % 1024,2 hPa 0,0 l/m 14,5 km/h (3 Bft) S-SW 202 0 min 0,0 UV-I 0 W/m -1,8 C -7,6 C 17,7 km/h (3 Bft)
30.01.2023 02:08 -0,8 C -1,1 C 93 % 1024,2 hPa 0,0 l/m 17,7 km/h (3 Bft) S-SW 202 0 min 0,0 UV-I 0 W/m -1,8 C -9,5 C 24,1 km/h (4 Bft)
30.01.2023 02:09 -0,8 C -1,1 C 93 % 1024,2 hPa 0,0 l/m 16,1 km/h (3 Bft) S-SW 202 0 min 0,0 UV-I 0 W/m -1,8 C -8,6 C 27,4 km/h (4 Bft)
30.01.2023 02:10 -0,8 C -1,1 C 94 % 1024,2 hPa 0,0 l/m 9,7 km/h (2 Bft) S-SW 202 0 min 0,0 UV-I 0 W/m -1,6 C -4,1 C 14,5 km/h (3 Bft)
30.01.2023 02:11 -0,8 C -1,1 C 94 % 1024,2 hPa 0,0 l/m 14,5 km/h (3 Bft) S-SW 202 0 min 0,0 UV-I 0 W/m -1,6 C -7,6 C 20,9 km/h (4 Bft)
30.01.2023 02:12 -0,8 C -1,1 C 94 % 1024,1 hPa 0,0 l/m 12,9 km/h (3 Bft) S-SW 202 0 min 0,0 UV-I 0 W/m -1,6 C -6,6 C 22,5 km/h (4 Bft)
30.01.2023 02:13 -0,8 C -1,1 C 94 % 1024,2 hPa 0,0 l/m 20,9 km/h (4 Bft) S-SW 202 0 min 0,0 UV-I 0 W/m -1,6 C -11,1 C 27,4 km/h (4 Bft)
30.01.2023 02:14 -0,8 C -1,1 C 94 % 1024,1 hPa 0,0 l/m 19,3 km/h (3 Bft) S 180 0 min 0,0 UV-I 0 W/m -1,6 C -10,3 C 25,7 km/h (4 Bft)
30.01.2023 02:15 -0,8 C -1,1 C 94 % 1024,2 hPa 0,0 l/m 20,9 km/h (4 Bft) S-SW 202 0 min 0,0 UV-I 0 W/m -1,6 C -11,1 C 30,6 km/h (5 Bft)
30.01.2023 02:16 -0,8 C -1,1 C 94 % 1024,1 hPa 0,0 l/m 19,3 km/h (3 Bft) S-SW 202 0 min 0,0 UV-I 0 W/m -1,6 C -10,3 C 30,6 km/h (5 Bft)
30.01.2023 02:17 -0,8 C -1,1 C 94 % 1024,2 hPa 0,0 l/m 12,9 km/h (3 Bft) SW 225 0 min 0,0 UV-I 0 W/m -1,6 C -6,6 C 20,9 km/h (4 Bft)
30.01.2023 02:18 -0,8 C -1,1 C 94 % 1024,2 hPa 0,0 l/m 16,1 km/h (3 Bft) S-SW 202 0 min 0,0 UV-I 0 W/m -1,6 C -8,6 C 22,5 km/h (4 Bft)
30.01.2023 02:19 -0,8 C -1,1 C 94 % 1024,1 hPa 0,0 l/m 14,5 km/h (3 Bft) S 180 0 min 0,0 UV-I 0 W/m -1,6 C -7,6 C 24,1 km/h (4 Bft)
30.01.2023 02:20 -0,8 C -1,1 C 94 % 1024,2 hPa 0,0 l/m 16,1 km/h (3 Bft) S-SW 202 0 min 0,0 UV-I 0 W/m -1,6 C -8,6 C 19,3 km/h (3 Bft)
30.01.2023 02:21 -0,8 C -1,1 C 94 % 1024,2 hPa 0,0 l/m 16,1 km/h (3 Bft) S-SW 202 0 min 0,0 UV-I 0 W/m -1,6 C -8,6 C 20,9 km/h (4 Bft)
30.01.2023 02:22 -0,8 C -1,1 C 94 % 1024,1 hPa 0,0 l/m 19,3 km/h (3 Bft) S-SW 202 0 min 0,0 UV-I 0 W/m -1,6 C -10,3 C 30,6 km/h (5 Bft)
30.01.2023 02:23 -0,8 C -1,1 C 94 % 1024,0 hPa 0,0 l/m 16,1 km/h (3 Bft) S-SW 202 0 min 0,0 UV-I 0 W/m -1,6 C -8,6 C 27,4 km/h (4 Bft)
30.01.2023 02:24 -0,8 C -1,1 C 94 % 1024,1 hPa 0,0 l/m 19,3 km/h (3 Bft) S 180 0 min 0,0 UV-I 0 W/m -1,6 C -10,3 C 25,7 km/h (4 Bft)
30.01.2023 02:25 -0,8 C -1,1 C 94 % 1024,0 hPa 0,0 l/m 16,1 km/h (3 Bft) S-SW 202 0 min 0,0 UV-I 0 W/m -1,6 C -8,6 C 32,2 km/h (5 Bft)
30.01.2023 02:26 -0,8 C -1,1 C 94 % 1024,0 hPa 0,0 l/m 14,5 km/h (3 Bft) SW 225 0 min 0,0 UV-I 0 W/m -1,6 C -7,6 C 20,9 km/h (4 Bft)
30.01.2023 02:27 -0,8 C -1,1 C 94 % 1024,0 hPa 0,0 l/m 16,1 km/h (3 Bft) S-SW 202 0 min 0,0 UV-I 0 W/m -1,6 C -8,6 C 22,5 km/h (4 Bft)
30.01.2023 02:28 -0,7 C -1,1 C 94 % 1023,9 hPa 0,0 l/m 16,1 km/h (3 Bft) S-SW 202 0 min 0,0 UV-I 0 W/m -1,5 C -8,5 C 20,9 km/h (4 Bft)
30.01.2023 02:29 -0,8 C -1,1 C 94 % 1023,8 hPa 0,0 l/m 14,5 km/h (3 Bft) S-SW 202 0 min 0,0 UV-I 0 W/m -1,6 C -7,6 C 19,3 km/h (3 Bft)
30.01.2023 02:30 -0,8 C -1,1 C 94 % 1023,9 hPa 0,0 l/m 12,9 km/h (3 Bft) S-SW 202 0 min 0,0 UV-I 0 W/m -1,6 C -6,6 C 17,7 km/h (3 Bft)
30.01.2023 02:31 -0,7 C -1,1 C 94 % 1023,8 hPa 0,0 l/m 17,7 km/h (3 Bft) S 180 0 min 0,0 UV-I 0 W/m -1,5 C -9,4 C 24,1 km/h (4 Bft)
30.01.2023 02:32 -0,8 C -1,1 C 94 % 1023,7 hPa 0,0 l/m 17,7 km/h (3 Bft) SW 225 0 min 0,0 UV-I 0 W/m -1,6 C -9,5 C 27,4 km/h (4 Bft)
30.01.2023 02:33 -0,7 C -1,1 C 94 % 1023,6 hPa 0,0 l/m 22,5 km/h (4 Bft) S-SW 202 0 min 0,0 UV-I 0 W/m -1,5 C -11,7 C 40,2 km/h (6 Bft)
30.01.2023 02:34 -0,7 C -1,1 C 94 % 1023,6 hPa 0,0 l/m 20,9 km/h (4 Bft) S-SW 202 0 min 0,0 UV-I 0 W/m -1,5 C -11,0 C 37,0 km/h (5 Bft)
30.01.2023 02:35 -0,7 C -1,1 C 93 % 1023,6 hPa 0,0 l/m 14,5 km/h (3 Bft) S 180 0 min 0,0 UV-I 0 W/m -1,7 C -7,5 C 27,4 km/h (4 Bft)
30.01.2023 02:36 -0,7 C -1,1 C 93 % 1023,6 hPa 0,0 l/m 19,3 km/h (3 Bft) S-SW 202 0 min 0,0 UV-I 0 W/m -1,7 C -10,2 C 25,7 km/h (4 Bft)
30.01.2023 02:37 -0,7 C -1,1 C 94 % 1023,5 hPa 0,0 l/m 19,3 km/h (3 Bft) S-SW 202 0 min 0,0 UV-I 0 W/m -1,5 C -10,2 C 27,4 km/h (4 Bft)
30.01.2023 02:38 -0,7 C -1,1 C 93 % 1023,6 hPa 0,0 l/m 20,9 km/h (4 Bft) S-SW 202 0 min 0,0 UV-I 0 W/m -1,7 C -11,0 C 27,4 km/h (4 Bft)
30.01.2023 02:39 -0,7 C -1,1 C 93 % 1023,6 hPa 0,0 l/m 16,1 km/h (3 Bft) S-SW 202 0 min 0,0 UV-I 0 W/m -1,7 C -8,5 C 19,3 km/h (3 Bft)
30.01.2023 02:40 -0,7 C -1,1 C 93 % 1023,7 hPa 0,0 l/m 14,5 km/h (3 Bft) S-SW 202 0 min 0,0 UV-I 0 W/m -1,7 C -7,5 C 20,9 km/h (4 Bft)
30.01.2023 02:41 -0,7 C -1,1 C 94 % 1023,7 hPa 0,0 l/m 19,3 km/h (3 Bft) S-SW 202 0 min 0,0 UV-I 0 W/m -1,5 C -10,2 C 25,7 km/h (4 Bft)
30.01.2023 02:42 -0,7 C -1,1 C 94 % 1023,7 hPa 0,0 l/m 22,5 km/h (4 Bft) S 180 0 min 0,0 UV-I 0 W/m -1,5 C -11,7 C 33,8 km/h (5 Bft)
30.01.2023 02:43 -0,7 C -1,1 C 94 % 1023,7 hPa 0,0 l/m 17,7 km/h (3 Bft) S-SW 202 0 min 0,0 UV-I 0 W/m -1,5 C -9,4 C 24,1 km/h (4 Bft)
30.01.2023 02:44 -0,7 C -1,1 C 94 % 1023,8 hPa 0,0 l/m 20,9 km/h (4 Bft) SW 225 0 min 0,0 UV-I 0 W/m -1,5 C -11,0 C 27,4 km/h (4 Bft)
30.01.2023 02:45 -0,7 C -1,1 C 94 % 1023,6 hPa 0,0 l/m 19,3 km/h (3 Bft) S-SW 202 0 min 0,0 UV-I 0 W/m -1,5 C -10,2 C 22,5 km/h (4 Bft)
30.01.2023 02:46 -0,7 C -1,1 C 94 % 1023,6 hPa 0,0 l/m 19,3 km/h (3 Bft) S-SW 202 0 min 0,0 UV-I 0 W/m -1,5 C -10,2 C 25,7 km/h (4 Bft)
30.01.2023 02:47 -0,7 C -1,1 C 94 % 1023,6 hPa 0,0 l/m 19,3 km/h (3 Bft) S-SW 202 0 min 0,0 UV-I 0 W/m -1,5 C -10,2 C 29,0 km/h (5 Bft)
30.01.2023 02:48 -0,7 C -1,1 C 94 % 1023,7 hPa 0,0 l/m 24,1 km/h (4 Bft) S-SW 202 0 min 0,0 UV-I 0 W/m -1,5 C -12,3 C 27,4 km/h (4 Bft)
30.01.2023 02:49 -0,7 C -1,1 C 94 % 1023,5 hPa 0,0 l/m 20,9 km/h (4 Bft) S-SW 202 0 min 0,0 UV-I 0 W/m -1,5 C -11,0 C 30,6 km/h (5 Bft)
30.01.2023 02:50 -0,7 C -1,1 C 94 % 1023,6 hPa 0,0 l/m 17,7 km/h (3 Bft) S-SW 202 0 min 0,0 UV-I 0 W/m -1,5 C -9,4 C 29,0 km/h (5 Bft)
30.01.2023 02:51 -0,7 C -1,1 C 94 % 1023,6 hPa 0,0 l/m 19,3 km/h (3 Bft) S-SW 202 0 min 0,0 UV-I 0 W/m -1,5 C -10,2 C 29,0 km/h (5 Bft)
30.01.2023 02:52 -0,7 C -1,1 C 94 % 1023,6 hPa 0,0 l/m 24,1 km/h (4 Bft) S-SW 202 0 min 0,0 UV-I 0 W/m -1,5 C -12,3 C 32,2 km/h (5 Bft)
30.01.2023 02:53 -0,7 C -1,1 C 94 % 1023,5 hPa 0,0 l/m 19,3 km/h (3 Bft) SW 225 0 min 0,0 UV-I 0 W/m -1,5 C -10,2 C 25,7 km/h (4 Bft)
30.01.2023 02:54 -0,6 C -1,1 C 94 % 1023,5 hPa 0,0 l/m 19,3 km/h (3 Bft) S-SW 202 0 min 0,0 UV-I 0 W/m -1,4 C -10,1 C 27,4 km/h (4 Bft)
30.01.2023 02:55 -0,7 C -1,1 C 94 % 1023,5 hPa 0,0 l/m 20,9 km/h (4 Bft) S-SW 202 0 min 0,0 UV-I 0 W/m -1,5 C -11,0 C 30,6 km/h (5 Bft)
30.01.2023 02:56 -0,7 C -1,1 C 94 % 1023,5 hPa 0,0 l/m 22,5 km/h (4 Bft) SW 225 0 min 0,0 UV-I 0 W/m -1,5 C -11,7 C 29,0 km/h (5 Bft)
30.01.2023 02:57 -0,6 C -1,1 C 94 % 1023,6 hPa 0,0 l/m 22,5 km/h (4 Bft) S-SW 202 0 min 0,0 UV-I 0 W/m -1,4 C -11,5 C 30,6 km/h (5 Bft)
30.01.2023 02:58 -0,6 C -1,1 C 94 % 1023,5 hPa 0,0 l/m 17,7 km/h (3 Bft) S-SW 202 0 min 0,0 UV-I 0 W/m -1,4 C -9,3 C 20,9 km/h (4 Bft)
30.01.2023 02:59 -0,6 C -1,1 C 94 % 1023,5 hPa 0,0 l/m 17,7 km/h (3 Bft) S-SW 202 0 min 0,0 UV-I 0 W/m -1,4 C -9,3 C 29,0 km/h (5 Bft)
30.01.2023 03:00 -0,6 C -1,1 C 94 % 1023,5 hPa 0,0 l/m 17,7 km/h (3 Bft) S-SW 202 0 min 0,0 UV-I 0 W/m -1,4 C -9,3 C 24,1 km/h (4 Bft)
30.01.2023 03:01 -0,6 C -1,1 C 94 % 1023,5 hPa 0,0 l/m 24,1 km/h (4 Bft) S-SW 202 0 min 0,0 UV-I 0 W/m -1,4 C -12,2 C 33,8 km/h (5 Bft)
30.01.2023 03:02 -0,6 C -1,1 C 94 % 1023,5 hPa 0,0 l/m 24,1 km/h (4 Bft) S-SW 202 0 min 0,0 UV-I 0 W/m -1,4 C -12,2 C 32,2 km/h (5 Bft)
30.01.2023 03:03 -0,6 C -1,1 C 94 % 1023,6 hPa 0,0 l/m 17,7 km/h (3 Bft) S-SW 202 0 min 0,0 UV-I 0 W/m -1,4 C -9,3 C 29,0 km/h (5 Bft)
30.01.2023 03:04 -0,6 C -1,1 C 94 % 1023,6 hPa 0,0 l/m 22,5 km/h (4 Bft) S-SW 202 0 min 0,0 UV-I 0 W/m -1,4 C -11,5 C 29,0 km/h (5 Bft)
30.01.2023 03:05 -0,6 C -1,1 C 94 % 1023,7 hPa 0,0 l/m 19,3 km/h (3 Bft) S-SW 202 0 min 0,0 UV-I 0 W/m -1,4 C -10,1 C 30,6 km/h (5 Bft)
30.01.2023 03:06 -0,6 C -1,1 C 94 % 1023,6 hPa 0,0 l/m 22,5 km/h (4 Bft) S-SW 202 0 min 0,0 UV-I 0 W/m -1,4 C -11,5 C 27,4 km/h (4 Bft)
30.01.2023 03:07 -0,6 C -1,1 C 94 % 1023,6 hPa 0,0 l/m 25,7 km/h (4 Bft) S-SW 202 0 min 0,0 UV-I 0 W/m -1,4 C -12,8 C 30,6 km/h (5 Bft)
30.01.2023 03:08 -0,6 C -1,1 C 94 % 1023,7 hPa 0,0 l/m 19,3 km/h (3 Bft) S-SW 202 0 min 0,0 UV-I 0 W/m -1,4 C -10,1 C 27,4 km/h (4 Bft)
30.01.2023 03:09 -0,6 C -1,1 C 94 % 1023,6 hPa 0,0 l/m 17,7 km/h (3 Bft) S-SW 202 0 min 0,0 UV-I 0 W/m -1,4 C -9,3 C 22,5 km/h (4 Bft)
30.01.2023 03:10 -0,6 C -1,1 C 94 % 1023,6 hPa 0,0 l/m 19,3 km/h (3 Bft) S-SW 202 0 min 0,0 UV-I 0 W/m -1,4 C -10,1 C 27,4 km/h (4 Bft)
30.01.2023 03:11 -0,6 C -1,1 C 94 % 1023,6 hPa 0,0 l/m 22,5 km/h (4 Bft) SW 225 0 min 0,0 UV-I 0 W/m -1,4 C -11,5 C 27,4 km/h (4 Bft)
30.01.2023 03:12 -0,6 C -1,1 C 94 % 1023,6 hPa 0,0 l/m 19,3 km/h (3 Bft) S-SW 202 0 min 0,0 UV-I 0 W/m -1,4 C -10,1 C 27,4 km/h (4 Bft)
30.01.2023 03:13 -0,6 C -1,1 C 94 % 1023,6 hPa 0,0 l/m 19,3 km/h (3 Bft) S-SW 202 0 min 0,0 UV-I 0 W/m -1,4 C -10,1 C 25,7 km/h (4 Bft)
30.01.2023 03:14 -0,6 C -1,1 C 94 % 1023,6 hPa 0,0 l/m 14,5 km/h (3 Bft) S-SW 202 0 min 0,0 UV-I 0 W/m -1,4 C -7,4 C 20,9 km/h (4 Bft)
30.01.2023 03:15 -0,6 C -1,1 C 94 % 1023,7 hPa 0,0 l/m 14,5 km/h (3 Bft) S-SW 202 0 min 0,0 UV-I 0 W/m -1,4 C -7,4 C 20,9 km/h (4 Bft)
30.01.2023 03:16 -0,6 C -1,1 C 94 % 1023,6 hPa 0,0 l/m 20,9 km/h (4 Bft) S-SW 202 0 min 0,0 UV-I 0 W/m -1,4 C -10,8 C 24,1 km/h (4 Bft)
30.01.2023 03:17 -0,6 C -1,1 C 94 % 1023,7 hPa 0,0 l/m 17,7 km/h (3 Bft) S-SW 202 0 min 0,0 UV-I 0 W/m -1,4 C -9,3 C 22,5 km/h (4 Bft)
30.01.2023 03:18 -0,6 C -0,6 C 94 % 1023,7 hPa 0,0 l/m 17,7 km/h (3 Bft) S-SW 202 0 min 0,0 UV-I 0 W/m -1,4 C -9,3 C 24,1 km/h (4 Bft)
30.01.2023 03:19 -0,6 C -0,6 C 94 % 1023,7 hPa 0,0 l/m 17,7 km/h (3 Bft) SW 225 0 min 0,0 UV-I 0 W/m -1,4 C -9,3 C 22,5 km/h (4 Bft)
30.01.2023 03:20 -0,6 C -1,1 C 94 % 1023,7 hPa 0,0 l/m 20,9 km/h (4 Bft) S-SW 202 0 min 0,0 UV-I 0 W/m -1,4 C -10,8 C 25,7 km/h (4 Bft)
30.01.2023 03:21 -0,6 C -0,6 C 94 % 1023,8 hPa 0,0 l/m 11,3 km/h (2 Bft) SW 225 0 min 0,0 UV-I 0 W/m -1,4 C -5,2 C 19,3 km/h (3 Bft)
30.01.2023 03:22 -0,6 C -0,6 C 94 % 1023,8 hPa 0,0 l/m 9,7 km/h (2 Bft) S-SW 202 0 min 0,0 UV-I 0 W/m -1,4 C -3,9 C 16,1 km/h (3 Bft)
30.01.2023 03:23 -0,6 C -0,6 C 94 % 1023,9 hPa 0,0 l/m 14,5 km/h (3 Bft) S-SW 202 0 min 0,0 UV-I 0 W/m -1,4 C -7,4 C 19,3 km/h (3 Bft)
30.01.2023 03:24 -0,6 C -0,6 C 94 % 1023,8 hPa 0,0 l/m 14,5 km/h (3 Bft) S-SW 202 0 min 0,0 UV-I 0 W/m -1,4 C -7,4 C 19,3 km/h (3 Bft)
30.01.2023 03:25 -0,6 C -0,6 C 94 % 1023,7 hPa 0,0 l/m 12,9 km/h (3 Bft) S-SW 202 0 min 0,0 UV-I 0 W/m -1,4 C -6,3 C 19,3 km/h (3 Bft)
30.01.2023 03:26 -0,6 C -0,6 C 94 % 1023,8 hPa 0,0 l/m 14,5 km/h (3 Bft) S-SW 202 0 min 0,0 UV-I 0 W/m -1,4 C -7,4 C 22,5 km/h (4 Bft)
30.01.2023 03:27 -0,6 C -0,6 C 94 % 1023,7 hPa 0,0 l/m 20,9 km/h (4 Bft) S-SW 202 0 min 0,0 UV-I 0 W/m -1,4 C -10,8 C 25,7 km/h (4 Bft)
30.01.2023 03:28 -0,6 C -0,6 C 94 % 1023,8 hPa 0,0 l/m 17,7 km/h (3 Bft) S-SW 202 0 min 0,0 UV-I 0 W/m -1,4 C -9,3 C 20,9 km/h (4 Bft)
30.01.2023 03:29 -0,5 C -0,6 C 94 % 1023,7 hPa 0,0 l/m 12,9 km/h (3 Bft) SW 225 0 min 0,0 UV-I 0 W/m -1,3 C -6,2 C 16,1 km/h (3 Bft)
30.01.2023 03:30 -0,5 C -0,6 C 94 % 1023,8 hPa 0,0 l/m 14,5 km/h (3 Bft) S-SW 202 0 min 0,0 UV-I 0 W/m -1,3 C -7,3 C 19,3 km/h (3 Bft)
30.01.2023 03:31 -0,5 C -0,6 C 94 % 1023,7 hPa 0,0 l/m 14,5 km/h (3 Bft) S-SW 202 0 min 0,0 UV-I 0 W/m -1,3 C -7,3 C 19,3 km/h (3 Bft)
30.01.2023 03:32 -0,5 C -0,6 C 94 % 1023,7 hPa 0,0 l/m 14,5 km/h (3 Bft) S-SW 202 0 min 0,0 UV-I 0 W/m -1,3 C -7,3 C 16,1 km/h (3 Bft)
30.01.2023 03:33 -0,5 C -0,6 C 94 % 1023,7 hPa 0,0 l/m 11,3 km/h (2 Bft) S-SW 202 0 min 0,0 UV-I 0 W/m -1,3 C -5,1 C 16,1 km/h (3 Bft)
30.01.2023 03:34 -0,5 C -0,6 C 94 % 1023,8 hPa 0,0 l/m 14,5 km/h (3 Bft) S-SW 202 0 min 0,0 UV-I 0 W/m -1,3 C -7,3 C 17,7 km/h (3 Bft)
30.01.2023 03:35 -0,5 C -0,6 C 94 % 1023,8 hPa 0,0 l/m 14,5 km/h (3 Bft) S-SW 202 0 min 0,0 UV-I 0 W/m -1,3 C -7,3 C 20,9 km/h (4 Bft)
30.01.2023 03:36 -0,5 C -0,6 C 94 % 1023,9 hPa 0,0 l/m 14,5 km/h (3 Bft) S-SW 202 0 min 0,0 UV-I 0 W/m -1,3 C -7,3 C 20,9 km/h (4 Bft)
30.01.2023 03:37 -0,4 C -0,6 C 94 % 1023,8 hPa 0,0 l/m 16,1 km/h (3 Bft) S-SW 202 0 min 0,0 UV-I 0 W/m -1,2 C -8,1 C 22,5 km/h (4 Bft)
30.01.2023 03:38 -0,4 C -0,6 C 94 % 1023,8 hPa 0,0 l/m 14,5 km/h (3 Bft) S-SW 202 0 min 0,0 UV-I 0 W/m -1,2 C -7,2 C 20,9 km/h (4 Bft)
30.01.2023 03:39 -0,4 C -0,6 C 94 % 1023,7 hPa 0,0 l/m 12,9 km/h (3 Bft) S-SW 202 0 min 0,0 UV-I 0 W/m -1,2 C -6,1 C 17,7 km/h (3 Bft)
30.01.2023 03:40 -0,4 C -0,6 C 94 % 1023,8 hPa 0,0 l/m 16,1 km/h (3 Bft) S-SW 202 0 min 0,0 UV-I 0 W/m -1,2 C -8,1 C 19,3 km/h (3 Bft)
30.01.2023 03:41 -0,4 C -0,6 C 94 % 1023,6 hPa 0,0 l/m 11,3 km/h (2 Bft) S-SW 202 0 min 0,0 UV-I 0 W/m -1,2 C -4,9 C 16,1 km/h (3 Bft)
30.01.2023 03:42 -0,4 C -0,6 C 94 % 1023,7 hPa 0,0 l/m 14,5 km/h (3 Bft) S-SW 202 0 min 0,0 UV-I 0 W/m -1,2 C -7,2 C 20,9 km/h (4 Bft)
30.01.2023 03:43 -0,4 C -0,6 C 94 % 1023,7 hPa 0,0 l/m 14,5 km/h (3 Bft) S-SW 202 0 min 0,0 UV-I 0 W/m -1,2 C -7,2 C 19,3 km/h (3 Bft)
30.01.2023 03:44 -0,4 C -0,6 C 94 % 1023,7 hPa 0,0 l/m 14,5 km/h (3 Bft) S-SW 202 0 min 0,0 UV-I 0 W/m -1,2 C -7,2 C 17,7 km/h (3 Bft)
30.01.2023 03:45 -0,4 C -0,6 C 94 % 1023,6 hPa 0,0 l/m 12,9 km/h (3 Bft) S-SW 202 0 min 0,0 UV-I 0 W/m -1,2 C -6,1 C 24,1 km/h (4 Bft)
30.01.2023 03:46 -0,4 C -0,6 C 94 % 1023,6 hPa 0,0 l/m 16,1 km/h (3 Bft) S-SW 202 0 min 0,0 UV-I 0 W/m -1,2 C -8,1 C 19,3 km/h (3 Bft)
30.01.2023 03:47 -0,3 C -0,6 C 94 % 1023,7 hPa 0,0 l/m 14,5 km/h (3 Bft) S-SW 202 0 min 0,0 UV-I 0 W/m -1,1 C -7,0 C 19,3 km/h (3 Bft)
30.01.2023 03:48 -0,4 C -0,6 C 94 % 1023,6 hPa 0,0 l/m 12,9 km/h (3 Bft) S-SW 202 0 min 0,0 UV-I 0 W/m -1,2 C -6,1 C 17,7 km/h (3 Bft)
30.01.2023 03:49 -0,4 C -0,6 C 94 % 1023,6 hPa 0,0 l/m 12,9 km/h (3 Bft) S-SW 202 0 min 0,0 UV-I 0 W/m -1,2 C -6,1 C 14,5 km/h (3 Bft)
30.01.2023 03:50 -0,4 C -0,6 C 94 % 1023,6 hPa 0,0 l/m 12,9 km/h (3 Bft) S-SW 202 0 min 0,0 UV-I 0 W/m -1,2 C -6,1 C 16,1 km/h (3 Bft)
30.01.2023 03:51 -0,4 C -0,6 C 94 % 1023,6 hPa 0,0 l/m 12,9 km/h (3 Bft) S-SW 202 0 min 0,0 UV-I 0 W/m -1,2 C -6,1 C 19,3 km/h (3 Bft)
30.01.2023 03:52 -0,3 C -0,6 C 94 % 1023,6 hPa 0,0 l/m 14,5 km/h (3 Bft) S-SW 202 0 min 0,0 UV-I 0 W/m -1,1 C -7,0 C 17,7 km/h (3 Bft)
30.01.2023 03:53 -0,3 C -0,6 C 94 % 1023,6 hPa 0,0 l/m 12,9 km/h (3 Bft) S-SW 202 0 min 0,0 UV-I 0 W/m -1,1 C -6,0 C 17,7 km/h (3 Bft)
30.01.2023 03:54 -0,3 C -0,6 C 94 % 1023,6 hPa 0,0 l/m 9,7 km/h (2 Bft) S-SW 202 0 min 0,0 UV-I 0 W/m -1,1 C -3,5 C 14,5 km/h (3 Bft)
30.01.2023 03:55 -0,3 C -0,6 C 94 % 1023,5 hPa 0,0 l/m 11,3 km/h (2 Bft) S-SW 202 0 min 0,0 UV-I 0 W/m -1,1 C -4,8 C 16,1 km/h (3 Bft)
30.01.2023 03:56 -0,3 C -0,6 C 94 % 1023,5 hPa 0,0 l/m 9,7 km/h (2 Bft) S 180 0 min 0,0 UV-I 0 W/m -1,1 C -3,5 C 19,3 km/h (3 Bft)
30.01.2023 03:57 -0,3 C -0,6 C 94 % 1023,5 hPa 0,0 l/m 12,9 km/h (3 Bft) S-SW 202 0 min 0,0 UV-I 0 W/m -1,1 C -6,0 C 17,7 km/h (3 Bft)
30.01.2023 03:58 -0,3 C -0,6 C 94 % 1023,6 hPa 0,0 l/m 12,9 km/h (3 Bft) S-SW 202 0 min 0,0 UV-I 0 W/m -1,1 C -6,0 C 16,1 km/h (3 Bft)
30.01.2023 03:59 -0,3 C -0,6 C 94 % 1023,5 hPa 0,0 l/m 11,3 km/h (2 Bft) S 180 0 min 0,0 UV-I 0 W/m -1,1 C -4,8 C 20,9 km/h (4 Bft)
30.01.2023 04:00 -0,3 C -0,6 C 94 % 1023,5 hPa 0,0 l/m 9,7 km/h (2 Bft) S 180 0 min 0,0 UV-I 0 W/m -1,1 C -3,5 C 14,5 km/h (3 Bft)
30.01.2023 04:01 -0,3 C -0,6 C 94 % 1023,5 hPa 0,0 l/m 8,0 km/h (2 Bft) S-SW 202 0 min 0,0 UV-I 0 W/m -1,1 C -2,0 C 11,3 km/h (2 Bft)
30.01.2023 04:02 -0,3 C -0,6 C 94 % 1023,4 hPa 0,0 l/m 11,3 km/h (2 Bft) S 180 0 min 0,0 UV-I 0 W/m -1,1 C -4,8 C 17,7 km/h (3 Bft)
30.01.2023 04:03 -0,3 C -0,6 C 94 % 1023,5 hPa 0,0 l/m 12,9 km/h (3 Bft) S-SW 202 0 min 0,0 UV-I 0 W/m -1,1 C -6,0 C 16,1 km/h (3 Bft)
30.01.2023 04:04 -0,3 C -0,6 C 94 % 1023,3 hPa 0,0 l/m 11,3 km/h (2 Bft) S-SW 202 0 min 0,0 UV-I 0 W/m -1,1 C -4,8 C 16,1 km/h (3 Bft)
30.01.2023 04:05 -0,3 C -0,6 C 94 % 1023,4 hPa 0,0 l/m 9,7 km/h (2 Bft) S-SW 202 0 min 0,0 UV-I 0 W/m -1,1 C -3,5 C 12,9 km/h (3 Bft)
30.01.2023 04:06 -0,3 C -0,6 C 94 % 1023,5 hPa 0,0 l/m 11,3 km/h (2 Bft) SW 225 0 min 0,0 UV-I 0 W/m -1,1 C -4,8 C 17,7 km/h (3 Bft)
30.01.2023 04:07 -0,3 C -0,6 C 94 % 1023,5 hPa 0,0 l/m 12,9 km/h (3 Bft) S-SW 202 0 min 0,0 UV-I 0 W/m -1,1 C -6,0 C 16,1 km/h (3 Bft)
30.01.2023 04:08 -0,3 C -0,6 C 94 % 1023,4 hPa 0,0 l/m 11,3 km/h (2 Bft) S-SW 202 0 min 0,0 UV-I 0 W/m -1,1 C -4,8 C 14,5 km/h (3 Bft)
30.01.2023 04:09 -0,3 C -0,6 C 94 % 1023,5 hPa 0,0 l/m 11,3 km/h (2 Bft) S-SW 202 0 min 0,0 UV-I 0 W/m -1,1 C -4,8 C 16,1 km/h (3 Bft)
30.01.2023 04:10 -0,2 C -0,6 C 94 % 1023,4 hPa 0,0 l/m 12,9 km/h (3 Bft) S-SW 202 0 min 0,0 UV-I 0 W/m -1,0 C -5,9 C 17,7 km/h (3 Bft)
30.01.2023 04:11 -0,2 C -0,6 C 94 % 1023,4 hPa 0,0 l/m 12,9 km/h (3 Bft) S 180 0 min 0,0 UV-I 0 W/m -1,0 C -5,9 C 16,1 km/h (3 Bft)
30.01.2023 04:12 -0,2 C -0,6 C 94 % 1023,4 hPa 0,0 l/m 6,4 km/h (2 Bft) S-SO 157 0 min 0,0 UV-I 0 W/m -1,0 C -0,2 C 9,7 km/h (2 Bft)
30.01.2023 04:13 -0,2 C -0,6 C 94 % 1023,5 hPa 0,0 l/m 12,9 km/h (3 Bft) S-SW 202 0 min 0,0 UV-I 0 W/m -1,0 C -5,9 C 17,7 km/h (3 Bft)
30.01.2023 04:14 -0,2 C -0,6 C 94 % 1023,4 hPa 0,0 l/m 12,9 km/h (3 Bft) S 180 0 min 0,0 UV-I 0 W/m -1,0 C -5,9 C 16,1 km/h (3 Bft)
30.01.2023 04:15 -0,2 C -0,6 C 94 % 1023,3 hPa 0,0 l/m 8,0 km/h (2 Bft) SW 225 0 min 0,0 UV-I 0 W/m -1,0 C -1,9 C 11,3 km/h (2 Bft)
30.01.2023 04:16 -0,2 C -0,6 C 94 % 1023,4 hPa 0,0 l/m 9,7 km/h (2 Bft) S 180 0 min 0,0 UV-I 0 W/m -1,0 C -3,4 C 12,9 km/h (3 Bft)
30.01.2023 04:17 -0,2 C -0,6 C 94 % 1023,3 hPa 0,0 l/m 14,5 km/h (3 Bft) S-SW 202 0 min 0,0 UV-I 0 W/m -1,0 C -6,9 C 19,3 km/h (3 Bft)
30.01.2023 04:18 -0,2 C -0,6 C 94 % 1023,3 hPa 0,0 l/m 12,9 km/h (3 Bft) S 180 0 min 0,0 UV-I 0 W/m -1,0 C -5,9 C 19,3 km/h (3 Bft)
30.01.2023 04:19 -0,2 C -0,6 C 94 % 1023,3 hPa 0,0 l/m 12,9 km/h (3 Bft) S-SW 202 0 min 0,0 UV-I 0 W/m -1,0 C -5,9 C 17,7 km/h (3 Bft)
30.01.2023 04:20 -0,2 C -0,6 C 94 % 1023,3 hPa 0,0 l/m 9,7 km/h (2 Bft) S-SW 202 0 min 0,0 UV-I 0 W/m -1,0 C -3,4 C 16,1 km/h (3 Bft)
30.01.2023 04:21 -0,2 C -0,6 C 94 % 1023,4 hPa 0,0 l/m 11,3 km/h (2 Bft) S-SW 202 0 min 0,0 UV-I 0 W/m -1,0 C -4,7 C 19,3 km/h (3 Bft)
30.01.2023 04:22 -0,2 C -0,6 C 94 % 1023,2 hPa 0,0 l/m 12,9 km/h (3 Bft) S-SW 202 0 min 0,0 UV-I 0 W/m -1,0 C -5,9 C 16,1 km/h (3 Bft)
30.01.2023 04:23 -0,2 C -0,6 C 94 % 1023,3 hPa 0,0 l/m 9,7 km/h (2 Bft) S-SW 202 0 min 0,0 UV-I 0 W/m -1,0 C -3,4 C 12,9 km/h (3 Bft)
30.01.2023 04:24 -0,2 C -0,6 C 94 % 1023,4 hPa 0,0 l/m 14,5 km/h (3 Bft) S-SW 202 0 min 0,0 UV-I 0 W/m -1,0 C -6,9 C 17,7 km/h (3 Bft)
30.01.2023 04:25 -0,1 C -0,6 C 94 % 1023,3 hPa 0,0 l/m 12,9 km/h (3 Bft) S-SW 202 0 min 0,0 UV-I 0 W/m -0,9 C -5,8 C 19,3 km/h (3 Bft)
30.01.2023 04:26 -0,1 C -0,6 C 94 % 1023,4 hPa 0,0 l/m 12,9 km/h (3 Bft) SW 225 0 min 0,0 UV-I 0 W/m -0,9 C -5,8 C 17,7 km/h (3 Bft)
30.01.2023 04:27 -0,1 C -0,6 C 94 % 1023,3 hPa 0,0 l/m 11,3 km/h (2 Bft) S-SW 202 0 min 0,0 UV-I 0 W/m -0,9 C -4,6 C 12,9 km/h (3 Bft)
30.01.2023 04:28 -0,1 C -0,6 C 94 % 1023,4 hPa 0,0 l/m 12,9 km/h (3 Bft) S 180 0 min 0,0 UV-I 0 W/m -0,9 C -5,8 C 20,9 km/h (4 Bft)
30.01.2023 04:29 -0,1 C -0,6 C 94 % 1023,3 hPa 0,0 l/m 11,3 km/h (2 Bft) S-SW 202 0 min 0,0 UV-I 0 W/m -0,9 C -4,6 C 16,1 km/h (3 Bft)
30.01.2023 04:30 -0,1 C -0,6 C 94 % 1023,3 hPa 0,0 l/m 16,1 km/h (3 Bft) S-SW 202 0 min 0,0 UV-I 0 W/m -0,9 C -7,7 C 20,9 km/h (4 Bft)
30.01.2023 04:31 -0,1 C -0,6 C 94 % 1023,3 hPa 0,0 l/m 12,9 km/h (3 Bft) SW 225 0 min 0,0 UV-I 0 W/m -0,9 C -5,8 C 16,1 km/h (3 Bft)
30.01.2023 04:32 0,0 C -0,6 C 94 % 1023,2 hPa 0,0 l/m 14,5 km/h (3 Bft) S-SW 202 0 min 0,0 UV-I 0 W/m -0,8 C -6,7 C 19,3 km/h (3 Bft)
30.01.2023 04:33 0,0 C -0,6 C 94 % 1023,1 hPa 0,0 l/m 11,3 km/h (2 Bft) S-SW 202 0 min 0,0 UV-I 0 W/m -0,8 C -4,5 C 16,1 km/h (3 Bft)
30.01.2023 04:34 0,0 C 0,0 C 94 % 1023,2 hPa 0,0 l/m 14,5 km/h (3 Bft) S-SW 202 0 min 0,0 UV-I 0 W/m -0,8 C -6,7 C 17,7 km/h (3 Bft)
30.01.2023 04:35 0,1 C 0,0 C 94 % 1023,2 hPa 0,0 l/m 11,3 km/h (2 Bft) SW 225 0 min 0,0 UV-I 0 W/m -0,7 C -4,4 C 16,1 km/h (3 Bft)
30.01.2023 04:36 0,1 C 0,0 C 94 % 1023,1 hPa 0,0 l/m 12,9 km/h (3 Bft) S-SW 202 0 min 0,0 UV-I 0 W/m -0,7 C -5,5 C 16,1 km/h (3 Bft)
30.01.2023 04:37 0,1 C 0,0 C 94 % 1023,0 hPa 0,0 l/m 12,9 km/h (3 Bft) S-SW 202 0 min 0,0 UV-I 0 W/m -0,7 C -5,5 C 17,7 km/h (3 Bft)
30.01.2023 04:38 0,1 C 0,0 C 94 % 1023,1 hPa 0,0 l/m 14,5 km/h (3 Bft) S-SW 202 0 min 0,0 UV-I 0 W/m -0,7 C -6,6 C 24,1 km/h (4 Bft)
30.01.2023 04:39 0,1 C 0,0 C 94 % 1023,0 hPa 0,0 l/m 12,9 km/h (3 Bft) S-SW 202 0 min 0,0 UV-I 0 W/m -0,7 C -5,5 C 17,7 km/h (3 Bft)
30.01.2023 04:40 0,1 C 0,0 C 94 % 1023,0 hPa 0,0 l/m 9,7 km/h (2 Bft) S-SW 202 0 min 0,0 UV-I 0 W/m -0,7 C -3,1 C 12,9 km/h (3 Bft)
30.01.2023 04:41 0,1 C 0,0 C 94 % 1023,0 hPa 0,0 l/m 14,5 km/h (3 Bft) S-SW 202 0 min 0,0 UV-I 0 W/m -0,7 C -6,6 C 22,5 km/h (4 Bft)
30.01.2023 04:42 0,1 C 0,0 C 94 % 1023,0 hPa 0,0 l/m 11,3 km/h (2 Bft) S 180 0 min 0,0 UV-I 0 W/m -0,7 C -4,4 C 19,3 km/h (3 Bft)
30.01.2023 04:43 0,1 C 0,0 C 94 % 1022,9 hPa 0,0 l/m 14,5 km/h (3 Bft) S-SW 202 0 min 0,0 UV-I 0 W/m -0,7 C -6,6 C 20,9 km/h (4 Bft)
30.01.2023 04:44 0,1 C 0,0 C 94 % 1023,0 hPa 0,0 l/m 12,9 km/h (3 Bft) S 180 0 min 0,0 UV-I 0 W/m -0,7 C -5,5 C 19,3 km/h (3 Bft)
30.01.2023 04:45 0,1 C 0,0 C 94 % 1022,8 hPa 0,0 l/m 12,9 km/h (3 Bft) S 180 0 min 0,0 UV-I 0 W/m -0,7 C -5,5 C 17,7 km/h (3 Bft)
30.01.2023 04:46 0,1 C 0,0 C 94 % 1022,8 hPa 0,0 l/m 12,9 km/h (3 Bft) S 180 0 min 0,0 UV-I 0 W/m -0,7 C -5,5 C 17,7 km/h (3 Bft)
30.01.2023 04:47 0,1 C 0,0 C 94 % 1022,8 hPa 0,0 l/m 14,5 km/h (3 Bft) S-SW 202 0 min 0,0 UV-I 0 W/m -0,7 C -6,6 C 19,3 km/h (3 Bft)
30.01.2023 04:48 0,2 C 0,0 C 94 % 1022,7 hPa 0,0 l/m 17,7 km/h (3 Bft) S-SW 202 0 min 0,0 UV-I 0 W/m -0,6 C -8,2 C 24,1 km/h (4 Bft)
30.01.2023 04:49 0,1 C 0,0 C 94 % 1022,8 hPa 0,0 l/m 12,9 km/h (3 Bft) S-SW 202 0 min 0,0 UV-I 0 W/m -0,7 C -5,5 C 19,3 km/h (3 Bft)
30.01.2023 04:50 0,2 C 0,0 C 94 % 1022,7 hPa 0,0 l/m 16,1 km/h (3 Bft) S 180 0 min 0,0 UV-I 0 W/m -0,6 C -7,4 C 24,1 km/h (4 Bft)
30.01.2023 04:51 0,2 C 0,0 C 94 % 1022,7 hPa 0,0 l/m 11,3 km/h (2 Bft) S 180 0 min 0,0 UV-I 0 W/m -0,6 C -4,3 C 16,1 km/h (3 Bft)
30.01.2023 04:52 0,2 C 0,0 C 94 % 1022,5 hPa 0,0 l/m 17,7 km/h (3 Bft) S 180 0 min 0,0 UV-I 0 W/m -0,6 C -8,2 C 25,7 km/h (4 Bft)
30.01.2023 04:53 0,2 C 0,0 C 94 % 1022,5 hPa 0,0 l/m 14,5 km/h (3 Bft) S 180 0 min 0,0 UV-I 0 W/m -0,6 C -6,4 C 20,9 km/h (4 Bft)
30.01.2023 04:54 0,2 C 0,0 C 94 % 1022,4 hPa 0,0 l/m 14,5 km/h (3 Bft) S 180 0 min 0,0 UV-I 0 W/m -0,6 C -6,4 C 24,1 km/h (4 Bft)
30.01.2023 04:55 0,2 C 0,0 C 94 % 1022,4 hPa 0,0 l/m 14,5 km/h (3 Bft) S 180 0 min 0,0 UV-I 0 W/m -0,6 C -6,4 C 22,5 km/h (4 Bft)
30.01.2023 04:56 0,2 C 0,0 C 94 % 1022,4 hPa 0,0 l/m 16,1 km/h (3 Bft) S 180 0 min 0,0 UV-I 0 W/m -0,6 C -7,4 C 20,9 km/h (4 Bft)
30.01.2023 04:57 0,2 C 0,0 C 94 % 1022,4 hPa 0,0 l/m 16,1 km/h (3 Bft) S 180 0 min 0,0 UV-I 0 W/m -0,6 C -7,4 C 25,7 km/h (4 Bft)
30.01.2023 04:58 0,3 C 0,0 C 94 % 1022,5 hPa 0,0 l/m 19,3 km/h (3 Bft) S-SW 202 0 min 0,0 UV-I 0 W/m -0,5 C -8,9 C 27,4 km/h (4 Bft)
30.01.2023 04:59 0,3 C 0,0 C 94 % 1022,5 hPa 0,0 l/m 16,1 km/h (3 Bft) S 180 0 min 0,0 UV-I 0 W/m -0,5 C -7,3 C 24,1 km/h (4 Bft)
30.01.2023 05:00 0,3 C 0,0 C 94 % 1022,5 hPa 0,0 l/m 17,7 km/h (3 Bft) S-SW 202 0 min 0,0 UV-I 0 W/m -0,5 C -8,1 C 22,5 km/h (4 Bft)
30.01.2023 05:01 0,3 C 0,0 C 94 % 1022,6 hPa 0,0 l/m 16,1 km/h (3 Bft) S-SW 202 0 min 0,0 UV-I 0 W/m -0,5 C -7,3 C 27,4 km/h (4 Bft)
30.01.2023 05:02 0,3 C 0,0 C 94 % 1022,6 hPa 0,0 l/m 16,1 km/h (3 Bft) S-SW 202 0 min 0,0 UV-I 0 W/m -0,5 C -7,3 C 20,9 km/h (4 Bft)
30.01.2023 05:03 0,3 C 0,0 C 94 % 1022,5 hPa 0,0 l/m 14,5 km/h (3 Bft) S-SW 202 0 min 0,0 UV-I 0 W/m -0,5 C -6,3 C 16,1 km/h (3 Bft)
30.01.2023 05:04 0,3 C 0,0 C 94 % 1022,4 hPa 0,0 l/m 14,5 km/h (3 Bft) S-SW 202 0 min 0,0 UV-I 0 W/m -0,5 C -6,3 C 17,7 km/h (3 Bft)
30.01.2023 05:05 0,3 C 0,0 C 94 % 1022,5 hPa 0,0 l/m 14,5 km/h (3 Bft) S-SW 202 0 min 0,0 UV-I 0 W/m -0,5 C -6,3 C 25,7 km/h (4 Bft)
30.01.2023 05:06 0,3 C 0,0 C 94 % 1022,6 hPa 0,0 l/m 12,9 km/h (3 Bft) S-SW 202 0 min 0,0 UV-I 0 W/m -0,5 C -5,3 C 16,1 km/h (3 Bft)
30.01.2023 05:07 0,3 C 0,0 C 94 % 1022,6 hPa 0,0 l/m 16,1 km/h (3 Bft) S-SW 202 0 min 0,0 UV-I 0 W/m -0,5 C -7,3 C 19,3 km/h (3 Bft)
30.01.2023 05:08 0,3 C 0,0 C 94 % 1022,6 hPa 0,0 l/m 16,1 km/h (3 Bft) S-SW 202 0 min 0,0 UV-I 0 W/m -0,5 C -7,3 C 22,5 km/h (4 Bft)
30.01.2023 05:09 0,3 C 0,0 C 94 % 1022,6 hPa 0,0 l/m 16,1 km/h (3 Bft) S-SW 202 0 min 0,0 UV-I 0 W/m -0,5 C -7,3 C 22,5 km/h (4 Bft)
30.01.2023 05:10 0,3 C 0,0 C 94 % 1022,6 hPa 0,0 l/m 12,9 km/h (3 Bft) S-SW 202 0 min 0,0 UV-I 0 W/m -0,5 C -5,3 C 17,7 km/h (3 Bft)
30.01.2023 05:11 0,3 C 0,0 C 94 % 1022,6 hPa 0,0 l/m 11,3 km/h (2 Bft) S-SW 202 0 min 0,0 UV-I 0 W/m -0,5 C -4,1 C 16,1 km/h (3 Bft)
30.01.2023 05:12 0,3 C 0,0 C 94 % 1022,5 hPa 0,0 l/m 12,9 km/h (3 Bft) S-SW 202 0 min 0,0 UV-I 0 W/m -0,5 C -5,3 C 19,3 km/h (3 Bft)
30.01.2023 05:13 0,3 C 0,0 C 94 % 1022,6 hPa 0,0 l/m 11,3 km/h (2 Bft) S 180 0 min 0,0 UV-I 0 W/m -0,5 C -4,1 C 17,7 km/h (3 Bft)
30.01.2023 05:14 0,3 C 0,0 C 94 % 1022,5 hPa 0,0 l/m 16,1 km/h (3 Bft) S 180 0 min 0,0 UV-I 0 W/m -0,5 C -7,3 C 20,9 km/h (4 Bft)
30.01.2023 05:15 0,3 C 0,0 C 94 % 1022,6 hPa 0,0 l/m 14,5 km/h (3 Bft) S 180 0 min 0,0 UV-I 0 W/m -0,5 C -6,3 C 22,5 km/h (4 Bft)
30.01.2023 05:16 0,3 C 0,0 C 94 % 1022,6 hPa 0,0 l/m 14,5 km/h (3 Bft) S 180 0 min 0,0 UV-I 0 W/m -0,5 C -6,3 C 19,3 km/h (3 Bft)
30.01.2023 05:17 0,3 C 0,0 C 94 % 1022,6 hPa 0,0 l/m 16,1 km/h (3 Bft) S-SW 202 0 min 0,0 UV-I 0 W/m -0,5 C -7,3 C 22,5 km/h (4 Bft)
30.01.2023 05:18 0,3 C 0,0 C 94 % 1022,6 hPa 0,0 l/m 14,5 km/h (3 Bft) S-SW 202 0 min 0,0 UV-I 0 W/m -0,5 C -6,3 C 19,3 km/h (3 Bft)
30.01.2023 05:19 0,4 C 0,0 C 94 % 1022,6 hPa 0,0 l/m 12,9 km/h (3 Bft) S-SW 202 0 min 0,0 UV-I 0 W/m -0,5 C -5,2 C 19,3 km/h (3 Bft)
30.01.2023 05:20 0,4 C 0,0 C 94 % 1022,7 hPa 0,0 l/m 16,1 km/h (3 Bft) S-SW 202 0 min 0,0 UV-I 0 W/m -0,5 C -7,1 C 24,1 km/h (4 Bft)
30.01.2023 05:21 0,4 C 0,0 C 94 % 1022,5 hPa 0,0 l/m 19,3 km/h (3 Bft) S-SW 202 0 min 0,0 UV-I 0 W/m -0,5 C -8,8 C 25,7 km/h (4 Bft)
30.01.2023 05:22 0,4 C 0,0 C 94 % 1022,5 hPa 0,0 l/m 17,7 km/h (3 Bft) S-SW 202 0 min 0,0 UV-I 0 W/m -0,5 C -8,0 C 22,5 km/h (4 Bft)
30.01.2023 05:23 0,4 C 0,0 C 94 % 1022,5 hPa 0,0 l/m 16,1 km/h (3 Bft) S-SW 202 0 min 0,0 UV-I 0 W/m -0,5 C -7,1 C 22,5 km/h (4 Bft)
30.01.2023 05:24 0,4 C 0,0 C 94 % 1022,6 hPa 0,0 l/m 16,1 km/h (3 Bft) S-SW 202 0 min 0,0 UV-I 0 W/m -0,5 C -7,1 C 19,3 km/h (3 Bft)
30.01.2023 05:25 0,4 C 0,0 C 94 % 1022,6 hPa 0,0 l/m 19,3 km/h (3 Bft) S-SW 202 0 min 0,0 UV-I 0 W/m -0,5 C -8,8 C 22,5 km/h (4 Bft)
30.01.2023 05:26 0,4 C 0,0 C 94 % 1022,5 hPa 0,0 l/m 17,7 km/h (3 Bft) S-SW 202 0 min 0,0 UV-I 0 W/m -0,5 C -8,0 C 22,5 km/h (4 Bft)
30.01.2023 05:27 0,4 C 0,0 C 94 % 1022,6 hPa 0,0 l/m 14,5 km/h (3 Bft) S-SW 202 0 min 0,0 UV-I 0 W/m -0,5 C -6,2 C 20,9 km/h (4 Bft)
30.01.2023 05:28 0,4 C 0,0 C 94 % 1022,4 hPa 0,0 l/m 16,1 km/h (3 Bft) S-SW 202 0 min 0,0 UV-I 0 W/m -0,5 C -7,1 C 20,9 km/h (4 Bft)
30.01.2023 05:29 0,4 C 0,0 C 94 % 1022,4 hPa 0,0 l/m 14,5 km/h (3 Bft) S 180 0 min 0,0 UV-I 0 W/m -0,5 C -6,2 C 19,3 km/h (3 Bft)
30.01.2023 05:30 0,4 C 0,0 C 94 % 1022,3 hPa 0,0 l/m 17,7 km/h (3 Bft) S-SW 202 0 min 0,0 UV-I 0 W/m -0,5 C -8,0 C 25,7 km/h (4 Bft)
30.01.2023 05:31 0,4 C 0,0 C 94 % 1022,4 hPa 0,0 l/m 19,3 km/h (3 Bft) S-SW 202 0 min 0,0 UV-I 0 W/m -0,5 C -8,8 C 22,5 km/h (4 Bft)
30.01.2023 05:32 0,4 C 0,0 C 94 % 1022,4 hPa 0,0 l/m 16,1 km/h (3 Bft) S-SW 202 0 min 0,0 UV-I 0 W/m -0,5 C -7,1 C 24,1 km/h (4 Bft)
30.01.2023 05:33 0,4 C 0,0 C 94 % 1022,3 hPa 0,0 l/m 14,5 km/h (3 Bft) S-SW 202 0 min 0,0 UV-I 0 W/m -0,5 C -6,2 C 20,9 km/h (4 Bft)
30.01.2023 05:34 0,4 C 0,0 C 94 % 1022,3 hPa 0,0 l/m 14,5 km/h (3 Bft) S-SW 202 0 min 0,0 UV-I 0 W/m -0,5 C -6,2 C 20,9 km/h (4 Bft)
30.01.2023 05:35 0,4 C 0,0 C 94 % 1022,3 hPa 0,0 l/m 17,7 km/h (3 Bft) S-SW 202 0 min 0,0 UV-I 0 W/m -0,5 C -8,0 C 24,1 km/h (4 Bft)
30.01.2023 05:36 0,4 C 0,0 C 94 % 1022,3 hPa 0,0 l/m 17,7 km/h (3 Bft) S-SW 202 0 min 0,0 UV-I 0 W/m -0,5 C -8,0 C 20,9 km/h (4 Bft)
30.01.2023 05:37 0,4 C 0,0 C 94 % 1022,4 hPa 0,0 l/m 16,1 km/h (3 Bft) S-SW 202 0 min 0,0 UV-I 0 W/m -0,5 C -7,1 C 24,1 km/h (4 Bft)
30.01.2023 05:38 0,4 C 0,0 C 94 % 1022,2 hPa 0,0 l/m 14,5 km/h (3 Bft) S-SW 202 0 min 0,0 UV-I 0 W/m -0,5 C -6,2 C 19,3 km/h (3 Bft)
30.01.2023 05:39 0,4 C 0,0 C 94 % 1022,2 hPa 0,0 l/m 14,5 km/h (3 Bft) S-SW 202 0 min 0,0 UV-I 0 W/m -0,5 C -6,2 C 19,3 km/h (3 Bft)
30.01.2023 05:40 0,4 C 0,0 C 94 % 1022,1 hPa 0,0 l/m 16,1 km/h (3 Bft) S-SW 202 0 min 0,0 UV-I 0 W/m -0,5 C -7,1 C 19,3 km/h (3 Bft)
30.01.2023 05:41 0,4 C 0,0 C 94 % 1022,2 hPa 0,0 l/m 16,1 km/h (3 Bft) S 180 0 min 0,0 UV-I 0 W/m -0,5 C -7,1 C 24,1 km/h (4 Bft)
30.01.2023 05:42 0,4 C 0,0 C 94 % 1022,2 hPa 0,0 l/m 16,1 km/h (3 Bft) S-SW 202 0 min 0,0 UV-I 0 W/m -0,5 C -7,1 C 19,3 km/h (3 Bft)
30.01.2023 05:43 0,4 C 0,0 C 94 % 1022,1 hPa 0,0 l/m 17,7 km/h (3 Bft) S-SW 202 0 min 0,0 UV-I 0 W/m -0,5 C -8,0 C 22,5 km/h (4 Bft)
30.01.2023 05:44 0,4 C 0,0 C 94 % 1022,2 hPa 0,0 l/m 17,7 km/h (3 Bft) S-SW 202 0 min 0,0 UV-I 0 W/m -0,5 C -8,0 C 30,6 km/h (5 Bft)
30.01.2023 05:45 0,4 C 0,0 C 94 % 1022,2 hPa 0,0 l/m 16,1 km/h (3 Bft) S-SW 202 0 min 0,0 UV-I 0 W/m -0,5 C -7,1 C 25,7 km/h (4 Bft)
30.01.2023 05:46 0,4 C 0,0 C 94 % 1022,1 hPa 0,0 l/m 17,7 km/h (3 Bft) S-SW 202 0 min 0,0 UV-I 0 W/m -0,5 C -8,0 C 25,7 km/h (4 Bft)
30.01.2023 05:47 0,4 C 0,0 C 94 % 1022,2 hPa 0,0 l/m 16,1 km/h (3 Bft) S-SW 202 0 min 0,0 UV-I 0 W/m -0,5 C -7,1 C 19,3 km/h (3 Bft)
30.01.2023 05:48 0,4 C 0,0 C 94 % 1022,2 hPa 0,0 l/m 16,1 km/h (3 Bft) S-SW 202 0 min 0,0 UV-I 0 W/m -0,5 C -7,1 C 24,1 km/h (4 Bft)
30.01.2023 05:49 0,4 C 0,0 C 94 % 1022,1 hPa 0,0 l/m 14,5 km/h (3 Bft) S-SW 202 0 min 0,0 UV-I 0 W/m -0,5 C -6,2 C 20,9 km/h (4 Bft)
30.01.2023 05:50 0,4 C 0,0 C 94 % 1022,2 hPa 0,0 l/m 14,5 km/h (3 Bft) S-SW 202 0 min 0,0 UV-I 0 W/m -0,5 C -6,2 C 17,7 km/h (3 Bft)
30.01.2023 05:51 0,4 C 0,0 C 94 % 1022,2 hPa 0,0 l/m 12,9 km/h (3 Bft) S 180 0 min 0,0 UV-I 0 W/m -0,5 C -5,2 C 19,3 km/h (3 Bft)
30.01.2023 05:52 0,4 C 0,0 C 94 % 1022,2 hPa 0,0 l/m 11,3 km/h (2 Bft) SW 225 0 min 0,0 UV-I 0 W/m -0,5 C -4,0 C 17,7 km/h (3 Bft)
30.01.2023 05:53 0,4 C 0,0 C 94 % 1022,2 hPa 0,0 l/m 11,3 km/h (2 Bft) S-SW 202 0 min 0,0 UV-I 0 W/m -0,5 C -4,0 C 17,7 km/h (3 Bft)
30.01.2023 05:54 0,4 C 0,0 C 94 % 1022,1 hPa 0,0 l/m 14,5 km/h (3 Bft) S-SW 202 0 min 0,0 UV-I 0 W/m -0,5 C -6,2 C 19,3 km/h (3 Bft)
30.01.2023 05:55 0,4 C 0,0 C 94 % 1022,2 hPa 0,0 l/m 16,1 km/h (3 Bft) S-SW 202 0 min 0,0 UV-I 0 W/m -0,5 C -7,1 C 24,1 km/h (4 Bft)
30.01.2023 05:56 0,4 C 0,0 C 94 % 1022,1 hPa 0,0 l/m 20,9 km/h (4 Bft) S-SW 202 0 min 0,0 UV-I 0 W/m -0,5 C -9,5 C 25,7 km/h (4 Bft)
30.01.2023 05:57 0,4 C 0,0 C 94 % 1022,1 hPa 0,0 l/m 17,7 km/h (3 Bft) S-SW 202 0 min 0,0 UV-I 0 W/m -0,5 C -8,0 C 20,9 km/h (4 Bft)
30.01.2023 05:58 0,4 C 0,0 C 94 % 1021,9 hPa 0,0 l/m 14,5 km/h (3 Bft) S-SW 202 0 min 0,0 UV-I 0 W/m -0,5 C -6,2 C 19,3 km/h (3 Bft)
30.01.2023 05:59 0,4 C 0,0 C 94 % 1021,9 hPa 0,0 l/m 16,1 km/h (3 Bft) S-SW 202 0 min 0,0 UV-I 0 W/m -0,5 C -7,1 C 20,9 km/h (4 Bft)
30.01.2023 06:00 0,4 C 0,0 C 94 % 1022,0 hPa 0,0 l/m 16,1 km/h (3 Bft) S-SW 202 0 min 0,0 UV-I 0 W/m -0,5 C -7,1 C 22,5 km/h (4 Bft)
30.01.2023 06:01 0,4 C 0,0 C 94 % 1022,0 hPa 0,0 l/m 16,1 km/h (3 Bft) S 180 0 min 0,0 UV-I 0 W/m -0,5 C -7,1 C 25,7 km/h (4 Bft)
30.01.2023 06:02 0,4 C 0,0 C 94 % 1021,9 hPa 0,0 l/m 17,7 km/h (3 Bft) S-SW 202 0 min 0,0 UV-I 0 W/m -0,5 C -8,0 C 30,6 km/h (5 Bft)
30.01.2023 06:03 0,4 C 0,0 C 94 % 1022,0 hPa 0,0 l/m 12,9 km/h (3 Bft) S-SW 202 0 min 0,0 UV-I 0 W/m -0,5 C -5,2 C 19,3 km/h (3 Bft)
30.01.2023 06:04 0,4 C 0,0 C 94 % 1022,0 hPa 0,0 l/m 17,7 km/h (3 Bft) S-SW 202 0 min 0,0 UV-I 0 W/m -0,5 C -8,0 C 24,1 km/h (4 Bft)
30.01.2023 06:05 0,4 C 0,0 C 94 % 1022,0 hPa 0,0 l/m 14,5 km/h (3 Bft) S-SW 202 0 min 0,0 UV-I 0 W/m -0,5 C -6,2 C 19,3 km/h (3 Bft)
30.01.2023 06:06 0,4 C 0,0 C 94 % 1022,0 hPa 0,0 l/m 14,5 km/h (3 Bft) S-SW 202 0 min 0,0 UV-I 0 W/m -0,5 C -6,2 C 20,9 km/h (4 Bft)
30.01.2023 06:07 0,4 C 0,0 C 94 % 1021,9 hPa 0,0 l/m 16,1 km/h (3 Bft) S-SW 202 0 min 0,0 UV-I 0 W/m -0,5 C -7,1 C 20,9 km/h (4 Bft)
30.01.2023 06:08 0,4 C 0,0 C 94 % 1021,9 hPa 0,0 l/m 16,1 km/h (3 Bft) S-SW 202 0 min 0,0 UV-I 0 W/m -0,5 C -7,1 C 22,5 km/h (4 Bft)
30.01.2023 06:09 0,5 C 0,0 C 94 % 1021,9 hPa 0,0 l/m 14,5 km/h (3 Bft) S-SW 202 0 min 0,0 UV-I 0 W/m -0,4 C -6,1 C 20,9 km/h (4 Bft)
30.01.2023 06:10 0,4 C 0,0 C 94 % 1022,0 hPa 0,0 l/m 11,3 km/h (2 Bft) S-SW 202 0 min 0,0 UV-I 0 W/m -0,5 C -4,0 C 14,5 km/h (3 Bft)
30.01.2023 06:11 0,5 C 0,0 C 94 % 1022,0 hPa 0,0 l/m 12,9 km/h (3 Bft) SW 225 0 min 0,0 UV-I 0 W/m -0,4 C -5,0 C 17,7 km/h (3 Bft)
30.01.2023 06:12 0,5 C 0,0 C 94 % 1021,9 hPa 0,0 l/m 12,9 km/h (3 Bft) S-SW 202 0 min 0,0 UV-I 0 W/m -0,4 C -5,0 C 19,3 km/h (3 Bft)
30.01.2023 06:13 0,5 C 0,0 C 94 % 1021,9 hPa 0,0 l/m 12,9 km/h (3 Bft) S-SW 202 0 min 0,0 UV-I 0 W/m -0,4 C -5,0 C 16,1 km/h (3 Bft)
30.01.2023 06:14 0,5 C 0,0 C 94 % 1021,9 hPa 0,0 l/m 16,1 km/h (3 Bft) S-SW 202 0 min 0,0 UV-I 0 W/m -0,4 C -7,0 C 17,7 km/h (3 Bft)
30.01.2023 06:15 0,5 C 0,0 C 94 % 1021,8 hPa 0,0 l/m 12,9 km/h (3 Bft) S-SW 202 0 min 0,0 UV-I 0 W/m -0,4 C -5,0 C 22,5 km/h (4 Bft)
30.01.2023 06:16 0,5 C 0,0 C 94 % 1021,9 hPa 0,0 l/m 12,9 km/h (3 Bft) S-SW 202 0 min 0,0 UV-I 0 W/m -0,4 C -5,0 C 16,1 km/h (3 Bft)
30.01.2023 06:17 0,4 C 0,0 C 94 % 1021,8 hPa 0,0 l/m 12,9 km/h (3 Bft) S-SW 202 0 min 0,0 UV-I 0 W/m -0,5 C -5,2 C 17,7 km/h (3 Bft)
30.01.2023 06:18 0,4 C 0,0 C 94 % 1021,8 hPa 0,0 l/m 16,1 km/h (3 Bft) S 180 0 min 0,0 UV-I 0 W/m -0,5 C -7,1 C 25,7 km/h (4 Bft)
30.01.2023 06:19 0,5 C 0,0 C 94 % 1021,7 hPa 0,0 l/m 14,5 km/h (3 Bft) S-SW 202 0 min 0,0 UV-I 0 W/m -0,4 C -6,1 C 22,5 km/h (4 Bft)
30.01.2023 06:20 0,5 C 0,0 C 94 % 1021,8 hPa 0,0 l/m 19,3 km/h (3 Bft) S 180 0 min 0,0 UV-I 0 W/m -0,4 C -8,7 C 22,5 km/h (4 Bft)
30.01.2023 06:21 0,6 C 0,0 C 94 % 1021,8 hPa 0,0 l/m 16,1 km/h (3 Bft) S-SW 202 0 min 0,0 UV-I 0 W/m -0,3 C -6,9 C 22,5 km/h (4 Bft)
30.01.2023 06:22 0,5 C 0,0 C 94 % 1021,7 hPa 0,0 l/m 16,1 km/h (3 Bft) S 180 0 min 0,0 UV-I 0 W/m -0,4 C -7,0 C 20,9 km/h (4 Bft)
30.01.2023 06:23 0,5 C 0,0 C 94 % 1021,7 hPa 0,0 l/m 16,1 km/h (3 Bft) S-SW 202 0 min 0,0 UV-I 0 W/m -0,4 C -7,0 C 20,9 km/h (4 Bft)
30.01.2023 06:24 0,5 C 0,0 C 94 % 1021,7 hPa 0,0 l/m 12,9 km/h (3 Bft) S-SW 202 0 min 0,0 UV-I 0 W/m -0,4 C -5,0 C 20,9 km/h (4 Bft)
30.01.2023 06:25 0,5 C 0,0 C 94 % 1021,6 hPa 0,0 l/m 11,3 km/h (2 Bft) S 180 0 min 0,0 UV-I 0 W/m -0,4 C -3,9 C 19,3 km/h (3 Bft)
30.01.2023 06:26 0,5 C 0,0 C 94 % 1021,5 hPa 0,0 l/m 17,7 km/h (3 Bft) S-SW 202 0 min 0,0 UV-I 0 W/m -0,4 C -7,9 C 29,0 km/h (5 Bft)
30.01.2023 06:27 0,5 C 0,0 C 94 % 1021,6 hPa 0,0 l/m 16,1 km/h (3 Bft) S 180 0 min 0,0 UV-I 0 W/m -0,4 C -7,0 C 22,5 km/h (4 Bft)
30.01.2023 06:28 0,5 C 0,0 C 94 % 1021,5 hPa 0,0 l/m 16,1 km/h (3 Bft) S 180 0 min 0,0 UV-I 0 W/m -0,4 C -7,0 C 25,7 km/h (4 Bft)
30.01.2023 06:29 0,6 C 0,0 C 94 % 1021,5 hPa 0,0 l/m 12,9 km/h (3 Bft) S-SW 202 0 min 0,0 UV-I 0 W/m -0,3 C -4,9 C 17,7 km/h (3 Bft)
30.01.2023 06:30 0,6 C 0,0 C 94 % 1021,5 hPa 0,0 l/m 11,3 km/h (2 Bft) S 180 0 min 0,0 UV-I 0 W/m -0,3 C -3,8 C 19,3 km/h (3 Bft)
30.01.2023 06:31 0,5 C 0,0 C 94 % 1021,5 hPa 0,0 l/m 12,9 km/h (3 Bft) S 180 0 min 0,0 UV-I 0 W/m -0,4 C -5,0 C 19,3 km/h (3 Bft)
30.01.2023 06:32 0,6 C 0,0 C 94 % 1021,5 hPa 0,0 l/m 14,5 km/h (3 Bft) S-SW 202 0 min 0,0 UV-I 0 W/m -0,3 C -6,0 C 20,9 km/h (4 Bft)
30.01.2023 06:33 0,6 C 0,0 C 94 % 1021,5 hPa 0,0 l/m 16,1 km/h (3 Bft) S-SW 202 0 min 0,0 UV-I 0 W/m -0,3 C -6,9 C 20,9 km/h (4 Bft)
30.01.2023 06:34 0,6 C 0,0 C 94 % 1021,5 hPa 0,0 l/m 14,5 km/h (3 Bft) S-SW 202 0 min 0,0 UV-I 0 W/m -0,3 C -6,0 C 22,5 km/h (4 Bft)
30.01.2023 06:35 0,6 C 0,0 C 94 % 1021,4 hPa 0,0 l/m 16,1 km/h (3 Bft) S 180 0 min 0,0 UV-I 0 W/m -0,3 C -6,9 C 27,4 km/h (4 Bft)
30.01.2023 06:36 0,6 C 0,0 C 94 % 1021,4 hPa 0,0 l/m 12,9 km/h (3 Bft) S-SW 202 0 min 0,0 UV-I 0 W/m -0,3 C -4,9 C 19,3 km/h (3 Bft)
30.01.2023 06:37 0,6 C 0,0 C 94 % 1021,5 hPa 0,0 l/m 9,7 km/h (2 Bft) SW 225 0 min 0,0 UV-I 0 W/m -0,3 C -2,5 C 14,5 km/h (3 Bft)
30.01.2023 06:38 0,6 C 0,0 C 94 % 1021,4 hPa 0,0 l/m 14,5 km/h (3 Bft) S-SW 202 0 min 0,0 UV-I 0 W/m -0,3 C -6,0 C 19,3 km/h (3 Bft)
30.01.2023 06:39 0,6 C 0,0 C 94 % 1021,5 hPa 0,0 l/m 14,5 km/h (3 Bft) S-SW 202 0 min 0,0 UV-I 0 W/m -0,3 C -6,0 C 29,0 km/h (5 Bft)
30.01.2023 06:40 0,6 C 0,0 C 94 % 1021,5 hPa 0,0 l/m 14,5 km/h (3 Bft) S-SW 202 0 min 0,0 UV-I 0 W/m -0,3 C -6,0 C 19,3 km/h (3 Bft)
30.01.2023 06:41 0,6 C 0,0 C 94 % 1021,5 hPa 0,0 l/m 12,9 km/h (3 Bft) S-SW 202 0 min 0,0 UV-I 0 W/m -0,3 C -4,9 C 19,3 km/h (3 Bft)
30.01.2023 06:42 0,6 C 0,0 C 94 % 1021,5 hPa 0,0 l/m 14,5 km/h (3 Bft) S-SW 202 0 min 0,0 UV-I 0 W/m -0,3 C -6,0 C 19,3 km/h (3 Bft)
30.01.2023 06:43 0,6 C 0,0 C 94 % 1021,6 hPa 0,0 l/m 12,9 km/h (3 Bft) S-SW 202 0 min 0,0 UV-I 0 W/m -0,3 C -4,9 C 17,7 km/h (3 Bft)
30.01.2023 06:44 0,6 C 0,0 C 94 % 1021,5 hPa 0,0 l/m 12,9 km/h (3 Bft) S-SW 202 0 min 0,0 UV-I 0 W/m -0,3 C -4,9 C 17,7 km/h (3 Bft)
30.01.2023 06:45 0,6 C 0,0 C 94 % 1021,6 hPa 0,0 l/m 12,9 km/h (3 Bft) S-SW 202 0 min 0,0 UV-I 0 W/m -0,3 C -4,9 C 17,7 km/h (3 Bft)
30.01.2023 06:46 0,6 C 0,0 C 94 % 1021,6 hPa 0,0 l/m 12,9 km/h (3 Bft) S 180 0 min 0,0 UV-I 0 W/m -0,3 C -4,9 C 14,5 km/h (3 Bft)
30.01.2023 06:47 0,6 C 0,0 C 94 % 1021,6 hPa 0,0 l/m 14,5 km/h (3 Bft) S-SW 202 0 min 0,0 UV-I 0 W/m -0,3 C -6,0 C 16,1 km/h (3 Bft)
30.01.2023 06:48 0,6 C 0,0 C 94 % 1021,7 hPa 0,0 l/m 11,3 km/h (2 Bft) S-SW 202 0 min 0,0 UV-I 0 W/m -0,3 C -3,8 C 14,5 km/h (3 Bft)
30.01.2023 06:49 0,6 C 0,0 C 94 % 1021,6 hPa 0,0 l/m 9,7 km/h (2 Bft) S-SW 202 0 min 0,0 UV-I 0 W/m -0,3 C -2,5 C 12,9 km/h (3 Bft)
30.01.2023 06:50 0,6 C 0,0 C 94 % 1021,6 hPa 0,0 l/m 14,5 km/h (3 Bft) S 180 0 min 0,0 UV-I 0 W/m -0,3 C -6,0 C 20,9 km/h (4 Bft)
30.01.2023 06:51 0,6 C 0,0 C 94 % 1021,7 hPa 0,0 l/m 12,9 km/h (3 Bft) S-SW 202 0 min 0,0 UV-I 0 W/m -0,3 C -4,9 C 17,7 km/h (3 Bft)
30.01.2023 06:52 0,6 C 0,0 C 94 % 1021,6 hPa 0,0 l/m 11,3 km/h (2 Bft) S-SW 202 0 min 0,0 UV-I 0 W/m -0,3 C -3,8 C 20,9 km/h (4 Bft)
30.01.2023 06:53 0,6 C 0,0 C 94 % 1021,6 hPa 0,0 l/m 12,9 km/h (3 Bft) S-SW 202 0 min 0,0 UV-I 0 W/m -0,3 C -4,9 C 14,5 km/h (3 Bft)
30.01.2023 06:54 0,6 C 0,0 C 94 % 1021,6 hPa 0,0 l/m 11,3 km/h (2 Bft) S-SW 202 0 min 0,0 UV-I 0 W/m -0,3 C -3,8 C 16,1 km/h (3 Bft)
30.01.2023 06:55 0,6 C 0,0 C 94 % 1021,6 hPa 0,0 l/m 9,7 km/h (2 Bft) S-SW 202 0 min 0,0 UV-I 0 W/m -0,3 C -2,5 C 14,5 km/h (3 Bft)
30.01.2023 06:56 0,6 C 0,0 C 94 % 1021,6 hPa 0,0 l/m 12,9 km/h (3 Bft) S-SW 202 0 min 0,0 UV-I 0 W/m -0,3 C -4,9 C 17,7 km/h (3 Bft)
30.01.2023 06:57 0,6 C 0,0 C 94 % 1021,7 hPa 0,2 l/m 12,9 km/h (3 Bft) S-SW 202 0 min 0,0 UV-I 0 W/m -0,3 C -4,9 C 17,7 km/h (3 Bft)
30.01.2023 06:58 0,6 C 0,0 C 94 % 1021,7 hPa 0,0 l/m 11,3 km/h (2 Bft) S-SW 202 0 min 0,0 UV-I 0 W/m -0,3 C -3,8 C 16,1 km/h (3 Bft)
30.01.2023 06:59 0,6 C 0,0 C 94 % 1021,7 hPa 0,0 l/m 9,7 km/h (2 Bft) S-SW 202 0 min 0,0 UV-I 0 W/m -0,3 C -2,5 C 12,9 km/h (3 Bft)
30.01.2023 07:00 0,6 C 0,0 C 94 % 1021,8 hPa 0,0 l/m 14,5 km/h (3 Bft) S-SW 202 0 min 0,0 UV-I 0 W/m -0,3 C -6,0 C 20,9 km/h (4 Bft)
30.01.2023 07:01 0,6 C 0,0 C 94 % 1021,8 hPa 0,0 l/m 11,3 km/h (2 Bft) S-SW 202 0 min 0,0 UV-I 0 W/m -0,3 C -3,8 C 16,1 km/h (3 Bft)
30.01.2023 07:02 0,6 C 0,0 C 94 % 1021,7 hPa 0,0 l/m 11,3 km/h (2 Bft) S-SW 202 0 min 0,0 UV-I 0 W/m -0,3 C -3,8 C 16,1 km/h (3 Bft)
30.01.2023 07:03 0,6 C 0,0 C 94 % 1021,8 hPa 0,0 l/m 12,9 km/h (3 Bft) S-SW 202 0 min 0,0 UV-I 0 W/m -0,3 C -4,9 C 17,7 km/h (3 Bft)
30.01.2023 07:04 0,6 C 0,0 C 94 % 1021,9 hPa 0,0 l/m 12,9 km/h (3 Bft) S-SW 202 0 min 0,0 UV-I 0 W/m -0,3 C -4,9 C 16,1 km/h (3 Bft)
30.01.2023 07:05 0,6 C 0,0 C 94 % 1021,8 hPa 0,0 l/m 12,9 km/h (3 Bft) S-SW 202 0 min 0,0 UV-I 0 W/m -0,3 C -4,9 C 16,1 km/h (3 Bft)
30.01.2023 07:06 0,6 C 0,0 C 94 % 1021,8 hPa 0,0 l/m 12,9 km/h (3 Bft) S-SW 202 0 min 0,0 UV-I 0 W/m -0,3 C -4,9 C 16,1 km/h (3 Bft)
30.01.2023 07:07 0,6 C 0,0 C 94 % 1021,8 hPa 0,0 l/m 16,1 km/h (3 Bft) S-SW 202 0 min 0,0 UV-I 0 W/m -0,3 C -6,9 C 19,3 km/h (3 Bft)
30.01.2023 07:08 0,6 C 0,0 C 94 % 1021,9 hPa 0,0 l/m 12,9 km/h (3 Bft) S-SW 202 0 min 0,0 UV-I 0 W/m -0,3 C -4,9 C 19,3 km/h (3 Bft)
30.01.2023 07:09 0,6 C 0,0 C 94 % 1021,9 hPa 0,0 l/m 11,3 km/h (2 Bft) S 180 0 min 0,0 UV-I 0 W/m -0,3 C -3,8 C 16,1 km/h (3 Bft)
30.01.2023 07:10 0,6 C 0,0 C 94 % 1021,8 hPa 0,0 l/m 12,9 km/h (3 Bft) S-SW 202 0 min 0,0 UV-I 0 W/m -0,3 C -4,9 C 14,5 km/h (3 Bft)
30.01.2023 07:11 0,6 C 0,0 C 94 % 1021,9 hPa 0,0 l/m 14,5 km/h (3 Bft) S-SW 202 0 min 0,0 UV-I 0 W/m -0,3 C -6,0 C 19,3 km/h (3 Bft)
30.01.2023 07:12 0,6 C 0,0 C 94 % 1021,8 hPa 0,0 l/m 12,9 km/h (3 Bft) S-SW 202 0 min 0,0 UV-I 0 W/m -0,3 C -4,9 C 16,1 km/h (3 Bft)
30.01.2023 07:13 0,6 C 0,0 C 94 % 1021,9 hPa 0,0 l/m 12,9 km/h (3 Bft) S-SW 202 0 min 0,0 UV-I 0 W/m -0,3 C -4,9 C 16,1 km/h (3 Bft)
30.01.2023 07:14 0,6 C 0,0 C 94 % 1022,0 hPa 0,0 l/m 12,9 km/h (3 Bft) S-SW 202 0 min 0,0 UV-I 0 W/m -0,3 C -4,9 C 17,7 km/h (3 Bft)
30.01.2023 07:15 0,6 C 0,0 C 94 % 1021,9 hPa 0,0 l/m 11,3 km/h (2 Bft) S 180 0 min 0,0 UV-I 0 W/m -0,3 C -3,8 C 16,1 km/h (3 Bft)
30.01.2023 07:16 0,6 C 0,0 C 94 % 1021,9 hPa 0,0 l/m 14,5 km/h (3 Bft) S-SW 202 0 min 0,0 UV-I 0 W/m -0,3 C -6,0 C 20,9 km/h (4 Bft)
30.01.2023 07:17 0,6 C 0,0 C 94 % 1021,9 hPa 0,2 l/m 14,5 km/h (3 Bft) S-SW 202 0 min 0,0 UV-I 0 W/m -0,3 C -6,0 C 19,3 km/h (3 Bft)
30.01.2023 07:18 0,6 C 0,0 C 94 % 1021,9 hPa 0,0 l/m 14,5 km/h (3 Bft) S-SW 202 0 min 0,0 UV-I 0 W/m -0,3 C -6,0 C 17,7 km/h (3 Bft)
30.01.2023 07:19 0,6 C 0,0 C 94 % 1021,9 hPa 0,0 l/m 12,9 km/h (3 Bft) S-SW 202 0 min 0,0 UV-I 0 W/m -0,3 C -4,9 C 16,1 km/h (3 Bft)
30.01.2023 07:20 0,6 C 0,0 C 94 % 1022,0 hPa 0,0 l/m 12,9 km/h (3 Bft) S-SW 202 0 min 0,0 UV-I 0 W/m -0,3 C -4,9 C 20,9 km/h (4 Bft)
30.01.2023 07:21 0,6 C 0,0 C 94 % 1021,8 hPa 0,0 l/m 11,3 km/h (2 Bft) S-SW 202 0 min 0,0 UV-I 0 W/m -0,3 C -3,8 C 14,5 km/h (3 Bft)
30.01.2023 07:22 0,7 C 0,0 C 94 % 1021,8 hPa 0,0 l/m 9,7 km/h (2 Bft) S 180 0 min 0,0 UV-I 0 W/m -0,2 C -2,4 C 17,7 km/h (3 Bft)
30.01.2023 07:23 0,6 C 0,0 C 94 % 1021,8 hPa 0,0 l/m 8,0 km/h (2 Bft) S-SW 202 0 min 0,0 UV-I 0 W/m -0,3 C -1,0 C 11,3 km/h (2 Bft)
30.01.2023 07:24 0,6 C 0,0 C 94 % 1021,7 hPa 0,0 l/m 9,7 km/h (2 Bft) S-SW 202 0 min 0,0 UV-I 0 W/m -0,3 C -2,5 C 12,9 km/h (3 Bft)
30.01.2023 07:25 0,6 C 0,0 C 94 % 1021,7 hPa 0,0 l/m 8,0 km/h (2 Bft) S-SW 202 0 min 0,0 UV-I 0 W/m -0,3 C -1,0 C 12,9 km/h (3 Bft)
30.01.2023 07:26 0,6 C 0,0 C 94 % 1021,8 hPa 0,0 l/m 8,0 km/h (2 Bft) S 180 0 min 0,0 UV-I 0 W/m -0,3 C -1,0 C 12,9 km/h (3 Bft)
30.01.2023 07:27 0,6 C 0,0 C 94 % 1021,7 hPa 0,0 l/m 8,0 km/h (2 Bft) S 180 0 min 0,0 UV-I 0 W/m -0,3 C -1,0 C 14,5 km/h (3 Bft)
30.01.2023 07:28 0,6 C 0,0 C 94 % 1021,8 hPa 0,0 l/m 8,0 km/h (2 Bft) S-SW 202 0 min 0,0 UV-I 0 W/m -0,3 C -1,0 C 12,9 km/h (3 Bft)
30.01.2023 07:29 0,6 C 0,0 C 94 % 1021,8 hPa 0,0 l/m 8,0 km/h (2 Bft) S-SW 202 0 min 0,0 UV-I 0 W/m -0,3 C -1,0 C 12,9 km/h (3 Bft)
30.01.2023 07:30 0,6 C 0,0 C 94 % 1021,9 hPa 0,0 l/m 11,3 km/h (2 Bft) S 180 0 min 0,0 UV-I 0 W/m -0,3 C -3,8 C 14,5 km/h (3 Bft)
30.01.2023 07:31 0,6 C 0,0 C 94 % 1021,8 hPa 0,0 l/m 9,7 km/h (2 Bft) S-SW 202 0 min 0,0 UV-I 0 W/m -0,3 C -2,5 C 12,9 km/h (3 Bft)
30.01.2023 07:32 0,6 C 0,0 C 94 % 1021,8 hPa 0,0 l/m 11,3 km/h (2 Bft) S-SW 202 0 min 0,0 UV-I 0 W/m -0,3 C -3,8 C 16,1 km/h (3 Bft)
30.01.2023 07:33 0,6 C 0,0 C 94 % 1021,8 hPa 0,0 l/m 9,7 km/h (2 Bft) S-SW 202 0 min 0,0 UV-I 0 W/m -0,3 C -2,5 C 19,3 km/h (3 Bft)
30.01.2023 07:34 0,6 C 0,0 C 94 % 1021,8 hPa 0,0 l/m 12,9 km/h (3 Bft) S-SW 202 0 min 0,0 UV-I 0 W/m -0,3 C -4,9 C 17,7 km/h (3 Bft)
30.01.2023 07:35 0,6 C 0,0 C 94 % 1021,8 hPa 0,0 l/m 8,0 km/h (2 Bft) S-SW 202 0 min 0,0 UV-I 0 W/m -0,3 C -1,0 C 14,5 km/h (3 Bft)
30.01.2023 07:36 0,6 C 0,0 C 94 % 1021,8 hPa 0,0 l/m 11,3 km/h (2 Bft) S-SW 202 0 min 0,0 UV-I 0 W/m -0,3 C -3,8 C 16,1 km/h (3 Bft)
30.01.2023 07:37 0,6 C 0,0 C 94 % 1021,8 hPa 0,0 l/m 12,9 km/h (3 Bft) S 180 0 min 0,0 UV-I 0 W/m -0,3 C -4,9 C 16,1 km/h (3 Bft)
30.01.2023 07:38 0,6 C 0,0 C 94 % 1021,8 hPa 0,0 l/m 9,7 km/h (2 Bft) S-SW 202 0 min 0,0 UV-I 0 W/m -0,3 C -2,5 C 14,5 km/h (3 Bft)
30.01.2023 07:39 0,6 C 0,0 C 94 % 1021,7 hPa 0,0 l/m 9,7 km/h (2 Bft) S 180 0 min 0,0 UV-I 0 W/m -0,3 C -2,5 C 14,5 km/h (3 Bft)
30.01.2023 07:40 0,6 C 0,0 C 94 % 1021,7 hPa 0,0 l/m 9,7 km/h (2 Bft) S-SW 202 0 min 0,0 UV-I 0 W/m -0,3 C -2,5 C 14,5 km/h (3 Bft)
30.01.2023 07:41 0,6 C 0,0 C 94 % 1021,7 hPa 0,0 l/m 11,3 km/h (2 Bft) S-SW 202 0 min 0,0 UV-I 0 W/m -0,3 C -3,8 C 17,7 km/h (3 Bft)
30.01.2023 07:42 0,6 C 0,0 C 94 % 1021,8 hPa 0,0 l/m 11,3 km/h (2 Bft) S-SW 202 0 min 0,0 UV-I 0 W/m -0,3 C -3,8 C 14,5 km/h (3 Bft)
30.01.2023 07:45 0,6 C 0,0 C 94 % 1021,7 hPa 0,0 l/m 9,5 km/h (2 Bft) S-SW 202 0 min 0,0 UV-I 0 W/m -0,3 C -2,4 C 11,3 km/h (2 Bft)
30.01.2023 07:48 0,6 C 0,0 C 94 % 1021,8 hPa 0,2 l/m 11,5 km/h (2 Bft) SW 217 0 min 0,0 UV-I 0 W/m -0,3 C -3,9 C 20,9 km/h (4 Bft)
30.01.2023 07:51 0,6 C 0,0 C 94 % 1021,9 hPa 0,0 l/m 9,6 km/h (2 Bft) SW 223 0 min 0,0 UV-I 0 W/m -0,3 C -2,5 C 14,5 km/h (3 Bft)
30.01.2023 07:54 0,6 C 0,0 C 94 % 1022,1 hPa 0,0 l/m 7,5 km/h (2 Bft) S-SW 202 0 min 0,0 UV-I 0 W/m -0,3 C -0,5 C 12,9 km/h (3 Bft)
30.01.2023 07:57 0,6 C 0,0 C 94 % 1022,1 hPa 0,0 l/m 9,5 km/h (2 Bft) S 185 0 min 0,0 UV-I 0 W/m -0,3 C -2,4 C 14,5 km/h (3 Bft)
30.01.2023 08:00 0,6 C 0,0 C 94 % 1022,1 hPa 0,0 l/m 8,9 km/h (2 Bft) S 186 0 min 0,0 UV-I 0 W/m -0,3 C -1,8 C 16,1 km/h (3 Bft)
30.01.2023 08:03 0,6 C 0,0 C 94 % 1022,0 hPa 0,0 l/m 10,0 km/h (2 Bft) S-SW 208 0 min 0,0 UV-I 0 W/m -0,3 C -2,8 C 14,5 km/h (3 Bft)
30.01.2023 08:06 0,6 C 0,0 C 94 % 1022,1 hPa 0,0 l/m 10,2 km/h (2 Bft) S-SO 166 0 min 0,0 UV-I 0 W/m -0,3 C -2,9 C 17,7 km/h (3 Bft)
30.01.2023 08:09 0,6 C 0,0 C 94 % 1022,1 hPa 0,0 l/m 8,9 km/h (2 Bft) S 189 0 min 0,0 UV-I 0 W/m -0,3 C -1,8 C 17,7 km/h (3 Bft)
30.01.2023 08:12 0,6 C 0,0 C 94 % 1022,0 hPa 0,0 l/m 10,9 km/h (2 Bft) S 183 0 min 0,0 UV-I 0 W/m -0,3 C -3,5 C 16,1 km/h (3 Bft)
30.01.2023 08:15 0,6 C 0,0 C 94 % 1022,1 hPa 0,0 l/m 9,6 km/h (2 Bft) S-SW 203 0 min 0,0 UV-I 0 W/m -0,3 C -2,5 C 17,7 km/h (3 Bft)
30.01.2023 08:18 0,6 C 0,0 C 94 % 1022,1 hPa 0,2 l/m 10,7 km/h (2 Bft) S-SW 200 0 min 0,0 UV-I 0 W/m -0,3 C -3,3 C 14,5 km/h (3 Bft)
30.01.2023 08:21 0,6 C 0,0 C 94 % 1022,1 hPa 0,0 l/m 10,1 km/h (2 Bft) SW 218 0 min 0,0 UV-I 1 W/m -0,3 C -2,9 C 14,5 km/h (3 Bft)
30.01.2023 08:24 0,6 C 0,0 C 94 % 1022,2 hPa 0,0 l/m 9,5 km/h (2 Bft) S 186 0 min 0,0 UV-I 6 W/m -0,3 C -2,4 C 16,1 km/h (3 Bft)
30.01.2023 08:27 0,7 C 0,0 C 94 % 1022,0 hPa 0,0 l/m 10,1 km/h (2 Bft) SW 216 0 min 0,0 UV-I 6 W/m -0,2 C -2,8 C 14,5 km/h (3 Bft)
30.01.2023 08:30 0,7 C 0,0 C 94 % 1022,0 hPa 0,0 l/m 9,7 km/h (2 Bft) S 184 0 min 0,0 UV-I 7 W/m -0,2 C -2,4 C 16,1 km/h (3 Bft)
30.01.2023 08:33 0,7 C 0,0 C 94 % 1022,0 hPa 0,0 l/m 12,1 km/h (2 Bft) S 189 0 min 0,0 UV-I 10 W/m -0,2 C -4,3 C 20,9 km/h (4 Bft)
30.01.2023 08:36 0,7 C 0,0 C 94 % 1021,9 hPa 0,0 l/m 11,2 km/h (2 Bft) S 190 0 min 0,0 UV-I 11 W/m -0,2 C -3,6 C 19,3 km/h (3 Bft)
30.01.2023 08:39 0,8 C 0,0 C 94 % 1022,0 hPa 0,0 l/m 9,5 km/h (2 Bft) S 186 0 min 0,0 UV-I 9 W/m -0,1 C -2,2 C 17,7 km/h (3 Bft)
30.01.2023 08:42 0,8 C 0,0 C 94 % 1022,1 hPa 0,0 l/m 11,2 km/h (2 Bft) S-SW 198 0 min 0,0 UV-I 11 W/m -0,1 C -3,5 C 17,7 km/h (3 Bft)
30.01.2023 08:45 0,8 C 0,6 C 94 % 1021,8 hPa 0,0 l/m 11,0 km/h (2 Bft) SW 221 0 min 0,0 UV-I 15 W/m -0,1 C -3,3 C 16,1 km/h (3 Bft)
30.01.2023 08:48 0,8 C 0,6 C 94 % 1021,7 hPa 0,0 l/m 10,9 km/h (2 Bft) S-SW 202 0 min 0,0 UV-I 12 W/m -0,1 C -3,3 C 14,5 km/h (3 Bft)
30.01.2023 08:51 0,8 C 0,6 C 94 % 1021,9 hPa 0,0 l/m 10,2 km/h (2 Bft) SW 232 0 min 0,0 UV-I 13 W/m -0,1 C -2,7 C 14,5 km/h (3 Bft)
30.01.2023 08:54 0,9 C 0,6 C 94 % 1021,8 hPa 0,0 l/m 11,2 km/h (2 Bft) SW 221 0 min 0,0 UV-I 16 W/m 0,0 C -3,4 C 19,3 km/h (3 Bft)
30.01.2023 08:57 0,9 C 0,6 C 94 % 1021,6 hPa 0,2 l/m 11,9 km/h (2 Bft) S-SW 213 0 min 0,0 UV-I 20 W/m 0,0 C -3,9 C 16,1 km/h (3 Bft)
30.01.2023 09:00 1,0 C 0,6 C 94 % 1021,7 hPa 0,0 l/m 11,5 km/h (2 Bft) S 189 0 min 0,0 UV-I 24 W/m 0,1 C -3,5 C 17,7 km/h (3 Bft)
30.01.2023 09:03 1,0 C 0,6 C 94 % 1021,6 hPa 0,0 l/m 10,4 km/h (2 Bft) SW 224 0 min 0,0 UV-I 18 W/m 0,1 C -2,7 C 17,7 km/h (3 Bft)
30.01.2023 09:06 1,1 C 0,6 C 94 % 1021,7 hPa 0,0 l/m 10,9 km/h (2 Bft) S-SW 205 0 min 0,0 UV-I 21 W/m 0,2 C -2,9 C 17,7 km/h (3 Bft)
30.01.2023 09:09 1,1 C 0,6 C 94 % 1022,0 hPa 0,0 l/m 10,7 km/h (2 Bft) S 191 0 min 0,0 UV-I 18 W/m 0,2 C -2,8 C 19,3 km/h (3 Bft)
30.01.2023 09:12 1,1 C 0,6 C 94 % 1022,0 hPa 0,0 l/m 8,2 km/h (2 Bft) W-SW 254 0 min 0,0 UV-I 17 W/m 0,2 C -0,7 C 16,1 km/h (3 Bft)
30.01.2023 09:15 1,2 C 0,6 C 94 % 1022,0 hPa 0,0 l/m 11,4 km/h (2 Bft) S 171 0 min 0,0 UV-I 19 W/m 0,3 C -3,2 C 16,1 km/h (3 Bft)
30.01.2023 09:18 1,2 C 0,6 C 94 % 1022,0 hPa 0,0 l/m 8,4 km/h (2 Bft) SW 217 0 min 0,0 UV-I 20 W/m 0,3 C -0,8 C 17,7 km/h (3 Bft)
30.01.2023 09:21 1,2 C 0,6 C 94 % 1021,9 hPa 0,0 l/m 11,9 km/h (2 Bft) S-SW 200 0 min 0,0 UV-I 22 W/m 0,3 C -3,5 C 19,3 km/h (3 Bft)
30.01.2023 09:24 1,3 C 1,1 C 94 % 1021,8 hPa 0,0 l/m 11,4 km/h (2 Bft) S-SW 204 0 min 0,0 UV-I 33 W/m 0,4 C -3,1 C 19,3 km/h (3 Bft)
30.01.2023 09:27 1,3 C 1,1 C 94 % 1021,8 hPa 0,0 l/m 10,6 km/h (2 Bft) S-SW 202 0 min 0,0 UV-I 36 W/m 0,4 C -2,5 C 16,1 km/h (3 Bft)
30.01.2023 09:30 1,4 C 1,1 C 94 % 1021,8 hPa 0,0 l/m 11,8 km/h (2 Bft) SW 221 0 min 0,0 UV-I 27 W/m 0,5 C -3,2 C 19,3 km/h (3 Bft)
30.01.2023 09:33 1,4 C 1,1 C 94 % 1021,8 hPa 0,0 l/m 10,5 km/h (2 Bft) SW 217 0 min 0,0 UV-I 33 W/m 0,5 C -2,3 C 22,5 km/h (4 Bft)
30.01.2023 09:36 1,5 C 1,1 C 94 % 1021,9 hPa 0,0 l/m 10,1 km/h (2 Bft) SW 234 0 min 0,0 UV-I 45 W/m 0,6 C -1,9 C 17,7 km/h (3 Bft)
30.01.2023 09:39 1,6 C 1,1 C 95 % 1022,0 hPa 0,0 l/m 9,6 km/h (2 Bft) SW 229 0 min 0,0 UV-I 35 W/m 0,9 C -1,4 C 16,1 km/h (3 Bft)
30.01.2023 09:42 1,7 C 1,1 C 95 % 1022,0 hPa 0,0 l/m 9,6 km/h (2 Bft) W-SW 240 0 min 0,0 UV-I 36 W/m 1,0 C -1,3 C 17,7 km/h (3 Bft)
30.01.2023 09:45 1,7 C 1,1 C 94 % 1021,9 hPa 0,0 l/m 9,8 km/h (2 Bft) SW 215 0 min 0,0 UV-I 39 W/m 0,8 C -1,4 C 20,9 km/h (4 Bft)
30.01.2023 09:48 1,7 C 1,1 C 94 % 1022,0 hPa 0,0 l/m 9,7 km/h (2 Bft) W-SW 244 0 min 0,0 UV-I 27 W/m 0,8 C -1,3 C 20,9 km/h (4 Bft)
30.01.2023 09:51 1,8 C 1,7 C 94 % 1021,9 hPa 0,0 l/m 9,9 km/h (2 Bft) SW 217 0 min 0,0 UV-I 36 W/m 0,9 C -1,4 C 19,3 km/h (3 Bft)
30.01.2023 09:54 1,9 C 1,7 C 94 % 1022,0 hPa 0,0 l/m 11,1 km/h (2 Bft) SW 225 0 min 0,0 UV-I 34 W/m 1,0 C -2,2 C 19,3 km/h (3 Bft)
30.01.2023 09:57 1,9 C 1,7 C 95 % 1021,9 hPa 0,0 l/m 11,0 km/h (2 Bft) S-SW 197 0 min 0,0 UV-I 34 W/m 1,2 C -2,1 C 20,9 km/h (4 Bft)
30.01.2023 10:00 2,0 C 1,7 C 94 % 1021,8 hPa 0,0 l/m 14,0 km/h (3 Bft) S-SW 205 0 min 0,0 UV-I 52 W/m 1,1 C -4,0 C 27,4 km/h (4 Bft)
30.01.2023 10:03 2,1 C 1,7 C 94 % 1021,9 hPa 0,0 l/m 10,9 km/h (2 Bft) W-SW 254 0 min 0,0 UV-I 52 W/m 1,2 C -1,8 C 20,9 km/h (4 Bft)
30.01.2023 10:06 2,1 C 1,7 C 94 % 1021,9 hPa 0,0 l/m 14,2 km/h (3 Bft) W 263 0 min 0,0 UV-I 43 W/m 1,2 C -4,0 C 33,8 km/h (5 Bft)
30.01.2023 10:09 2,1 C 1,7 C 94 % 1022,0 hPa 0,0 l/m 13,2 km/h (3 Bft) S-SW 206 0 min 0,0 UV-I 43 W/m 1,2 C -3,4 C 27,4 km/h (4 Bft)
30.01.2023 10:12 2,2 C 1,7 C 94 % 1022,0 hPa 0,0 l/m 14,8 km/h (3 Bft) W-SW 248 0 min 0,0 UV-I 58 W/m 1,3 C -4,2 C 32,2 km/h (5 Bft)
30.01.2023 10:15 2,1 C 1,7 C 95 % 1022,1 hPa 0,0 l/m 13,4 km/h (3 Bft) W-SW 242 0 min 0,0 UV-I 63 W/m 1,4 C -3,5 C 25,7 km/h (4 Bft)
30.01.2023 10:18 2,2 C 1,7 C 95 % 1022,1 hPa 0,0 l/m 14,4 km/h (3 Bft) S-SW 213 0 min 0,5 UV-I 76 W/m 1,5 C -4,0 C 24,1 km/h (4 Bft)
30.01.2023 10:21 2,2 C 2,2 C 95 % 1022,0 hPa 0,0 l/m 13,6 km/h (3 Bft) S 171 0 min 0,5 UV-I 82 W/m 1,5 C -3,5 C 24,1 km/h (4 Bft)
30.01.2023 10:24 2,2 C 2,2 C 95 % 1022,1 hPa 0,0 l/m 11,5 km/h (2 Bft) W-SW 244 0 min 0,5 UV-I 78 W/m 1,5 C -2,1 C 24,1 km/h (4 Bft)
30.01.2023 10:27 2,3 C 2,2 C 95 % 1022,2 hPa 0,0 l/m 12,4 km/h (3 Bft) W-SW 242 0 min 0,5 UV-I 93 W/m 1,6 C -2,6 C 20,9 km/h (4 Bft)
30.01.2023 10:30 2,3 C 2,2 C 94 % 1022,2 hPa 0,0 l/m 14,3 km/h (3 Bft) W-SW 251 0 min 0,5 UV-I 82 W/m 1,4 C -3,8 C 29,0 km/h (5 Bft)
30.01.2023 10:33 2,3 C 2,2 C 94 % 1022,2 hPa 0,0 l/m 12,6 km/h (3 Bft) W-SW 258 0 min 0,1 UV-I 66 W/m 1,4 C -2,7 C 20,9 km/h (4 Bft)
30.01.2023 10:36 2,4 C 2,2 C 94 % 1022,0 hPa 0,0 l/m 12,5 km/h (3 Bft) W-SW 246 0 min 0,4 UV-I 63 W/m 1,5 C -2,6 C 22,5 km/h (4 Bft)
30.01.2023 10:39 2,4 C 2,2 C 94 % 1022,1 hPa 0,0 l/m 16,4 km/h (3 Bft) W 270 0 min 0,6 UV-I 110 W/m 1,5 C -4,8 C 24,1 km/h (4 Bft)
30.01.2023 10:42 2,6 C 2,8 C 94 % 1022,2 hPa 0,0 l/m 16,3 km/h (3 Bft) SW 215 0 min 0,7 UV-I 179 W/m 1,7 C -4,5 C 35,4 km/h (5 Bft)
30.01.2023 10:45 2,6 C 2,8 C 94 % 1022,1 hPa 0,0 l/m 16,9 km/h (3 Bft) SW 215 0 min 0,6 UV-I 130 W/m 1,7 C -4,8 C 32,2 km/h (5 Bft)
30.01.2023 10:48 2,7 C 2,2 C 94 % 1022,2 hPa 0,0 l/m 15,0 km/h (3 Bft) S-SW 202 0 min 0,6 UV-I 107 W/m 1,8 C -3,7 C 27,4 km/h (4 Bft)
30.01.2023 10:51 2,7 C 2,2 C 94 % 1022,2 hPa 0,0 l/m 14,9 km/h (3 Bft) W-SW 252 0 min 0,6 UV-I 98 W/m 1,8 C -3,7 C 27,4 km/h (4 Bft)
30.01.2023 10:54 2,7 C 2,8 C 94 % 1022,1 hPa 0,0 l/m 14,7 km/h (3 Bft) SW 225 0 min 0,7 UV-I 118 W/m 1,8 C -3,5 C 22,5 km/h (4 Bft)
30.01.2023 10:57 2,8 C 2,8 C 94 % 1022,2 hPa 0,0 l/m 12,9 km/h (3 Bft) SW 223 0 min 0,9 UV-I 200 W/m 1,9 C -2,4 C 25,7 km/h (4 Bft)
30.01.2023 11:00 2,8 C 2,8 C 94 % 1022,2 hPa 0,0 l/m 12,8 km/h (3 Bft) SW 215 0 min 0,7 UV-I 147 W/m 1,9 C -2,3 C 20,9 km/h (4 Bft)
30.01.2023 11:03 2,8 C 2,8 C 94 % 1022,2 hPa 0,0 l/m 14,2 km/h (3 Bft) W-SW 254 0 min 0,9 UV-I 167 W/m 1,9 C -3,1 C 29,0 km/h (5 Bft)
30.01.2023 11:06 2,9 C 3,3 C 93 % 1022,3 hPa 0,0 l/m 14,8 km/h (3 Bft) W 262 0 min 0,9 UV-I 229 W/m 1,9 C -3,4 C 30,6 km/h (5 Bft)
30.01.2023 11:09 2,9 C 2,8 C 93 % 1022,2 hPa 0,0 l/m 16,2 km/h (3 Bft) S-SW 207 0 min 0,8 UV-I 69 W/m 1,9 C -4,1 C 24,1 km/h (4 Bft)
30.01.2023 11:12 2,8 C 2,8 C 93 % 1022,4 hPa 0,0 l/m 15,3 km/h (3 Bft) W-SW 238 0 min 0,8 UV-I 72 W/m 1,8 C -3,8 C 25,7 km/h (4 Bft)
30.01.2023 11:15 2,8 C 2,2 C 93 % 1022,4 hPa 0,0 l/m 15,8 km/h (3 Bft) SW 234 0 min 0,7 UV-I 70 W/m 1,8 C -4,0 C 27,4 km/h (4 Bft)
30.01.2023 11:18 2,8 C 2,2 C 93 % 1022,4 hPa 0,0 l/m 19,6 km/h (3 Bft) W 268 0 min 0,5 UV-I 60 W/m 1,8 C -5,8 C 30,6 km/h (5 Bft)
30.01.2023 11:21 2,7 C 2,2 C 92 % 1022,2 hPa 0,0 l/m 11,7 km/h (2 Bft) W 261 0 min 0,0 UV-I 42 W/m 1,5 C -1,7 C 17,7 km/h (3 Bft)
30.01.2023 11:24 2,7 C 2,2 C 92 % 1022,2 hPa 0,0 l/m 12,0 km/h (2 Bft) W 275 0 min 0,0 UV-I 41 W/m 1,5 C -1,9 C 19,3 km/h (3 Bft)
30.01.2023 11:27 2,7 C 2,2 C 92 % 1022,2 hPa 0,0 l/m 11,0 km/h (2 Bft) W-SW 243 0 min 0,2 UV-I 53 W/m 1,5 C -1,2 C 19,3 km/h (3 Bft)
30.01.2023 11:30 2,7 C 2,2 C 92 % 1022,1 hPa 0,0 l/m 10,5 km/h (2 Bft) W 262 0 min 0,0 UV-I 46 W/m 1,5 C -0,8 C 16,1 km/h (3 Bft)
30.01.2023 11:33 2,6 C 2,2 C 92 % 1022,1 hPa 0,0 l/m 11,9 km/h (2 Bft) SW 229 0 min 0,2 UV-I 48 W/m 1,4 C -1,9 C 20,9 km/h (4 Bft)
30.01.2023 11:36 2,6 C 2,2 C 92 % 1022,2 hPa 0,0 l/m 12,4 km/h (3 Bft) W-NW 291 0 min 0,5 UV-I 75 W/m 1,4 C -2,3 C 22,5 km/h (4 Bft)
30.01.2023 11:39 2,7 C 2,8 C 92 % 1022,1 hPa 0,0 l/m 14,1 km/h (3 Bft) SW 231 0 min 0,7 UV-I 136 W/m 1,5 C -3,2 C 20,9 km/h (4 Bft)
30.01.2023 11:42 2,8 C 2,8 C 92 % 1022,3 hPa 0,0 l/m 12,7 km/h (3 Bft) W 270 0 min 1,0 UV-I 173 W/m 1,6 C -2,2 C 19,3 km/h (3 Bft)
30.01.2023 11:45 2,8 C 2,2 C 92 % 1022,3 hPa 0,0 l/m 13,9 km/h (3 Bft) SW 234 0 min 0,8 UV-I 68 W/m 1,6 C -3,0 C 25,7 km/h (4 Bft)
30.01.2023 11:48 2,8 C 2,2 C 92 % 1022,2 hPa 0,0 l/m 12,0 km/h (2 Bft) W 259 0 min 0,8 UV-I 77 W/m 1,6 C -1,8 C 22,5 km/h (4 Bft)
30.01.2023 11:51 2,8 C 2,8 C 91 % 1022,2 hPa 0,0 l/m 11,0 km/h (2 Bft) SW 231 0 min 1,1 UV-I 166 W/m 1,5 C -1,1 C 20,9 km/h (4 Bft)
30.01.2023 11:54 2,8 C 2,8 C 91 % 1022,3 hPa 0,0 l/m 13,1 km/h (3 Bft) W-SW 252 0 min 0,9 UV-I 126 W/m 1,5 C -2,5 C 20,9 km/h (4 Bft)
30.01.2023 11:57 2,8 C 2,8 C 91 % 1022,4 hPa 0,0 l/m 8,4 km/h (2 Bft) SW 234 0 min 0,7 UV-I 95 W/m 1,5 C 0,9 C 14,5 km/h (3 Bft)
30.01.2023 12:00 2,8 C 2,2 C 91 % 1022,4 hPa 0,0 l/m 12,7 km/h (3 Bft) W-SW 250 0 min 0,4 UV-I 83 W/m 1,5 C -2,2 C 19,3 km/h (3 Bft)
30.01.2023 12:03 2,8 C 2,2 C 91 % 1022,4 hPa 0,0 l/m 11,1 km/h (2 Bft) W 263 0 min 0,1 UV-I 71 W/m 1,5 C -1,2 C 22,5 km/h (4 Bft)
30.01.2023 12:06 2,8 C 2,2 C 90 % 1022,2 hPa 0,0 l/m 14,1 km/h (3 Bft) W 259 0 min 0,0 UV-I 57 W/m 1,3 C -3,1 C 22,5 km/h (4 Bft)
30.01.2023 12:09 2,8 C 2,2 C 90 % 1022,2 hPa 0,0 l/m 12,4 km/h (3 Bft) SW 214 0 min 0,2 UV-I 64 W/m 1,3 C -2,0 C 20,9 km/h (4 Bft)
30.01.2023 12:12 2,8 C 2,2 C 90 % 1022,2 hPa 0,0 l/m 10,7 km/h (2 Bft) W-SW 244 0 min 0,4 UV-I 65 W/m 1,3 C -0,9 C 17,7 km/h (3 Bft)
30.01.2023 12:15 2,8 C 2,2 C 90 % 1022,2 hPa 0,0 l/m 18,7 km/h (3 Bft) W-SW 238 0 min 0,3 UV-I 66 W/m 1,3 C -5,4 C 32,2 km/h (5 Bft)
30.01.2023 12:18 2,8 C 2,2 C 90 % 1022,1 hPa 0,0 l/m 20,3 km/h (4 Bft) W 259 0 min 0,7 UV-I 90 W/m 1,3 C -6,1 C 30,6 km/h (5 Bft)
30.01.2023 12:21 2,8 C 2,8 C 90 % 1022,2 hPa 0,0 l/m 13,6 km/h (3 Bft) W 265 0 min 0,7 UV-I 103 W/m 1,3 C -2,8 C 27,4 km/h (4 Bft)
30.01.2023 12:24 3,1 C 5,0 C 89 % 1022,2 hPa 0,0 l/m 17,0 km/h (3 Bft) W-SW 257 0 min 1,5 UV-I 219 W/m 1,5 C -4,3 C 27,4 km/h (4 Bft)
30.01.2023 12:27 3,1 C 3,9 C 88 % 1022,4 hPa 0,0 l/m 17,1 km/h (3 Bft) W 271 0 min 1,0 UV-I 172 W/m 1,3 C -4,3 C 27,4 km/h (4 Bft)
30.01.2023 12:30 3,1 C 2,8 C 88 % 1022,4 hPa 0,0 l/m 17,8 km/h (3 Bft) W 266 0 min 0,6 UV-I 63 W/m 1,3 C -4,6 C 33,8 km/h (5 Bft)
30.01.2023 12:33 2,9 C 2,2 C 88 % 1022,3 hPa 0,0 l/m 20,3 km/h (4 Bft) W-SW 241 0 min 0,4 UV-I 63 W/m 1,1 C -6,0 C 32,2 km/h (5 Bft)
30.01.2023 12:36 2,9 C 2,8 C 88 % 1022,3 hPa 0,0 l/m 14,6 km/h (3 Bft) W 269 0 min 0,7 UV-I 73 W/m 1,1 C -3,2 C 20,9 km/h (4 Bft)
30.01.2023 12:39 2,9 C 2,8 C 88 % 1022,2 hPa 0,0 l/m 15,2 km/h (3 Bft) W 267 0 min 0,5 UV-I 86 W/m 1,1 C -3,6 C 27,4 km/h (4 Bft)
30.01.2023 12:42 2,9 C 3,9 C 88 % 1022,3 hPa 0,0 l/m 14,1 km/h (3 Bft) SW 231 0 min 1,2 UV-I 157 W/m 1,1 C -3,0 C 27,4 km/h (4 Bft)
30.01.2023 12:45 3,2 C 6,1 C 88 % 1022,3 hPa 0,0 l/m 13,9 km/h (3 Bft) W 275 0 min 1,6 UV-I 162 W/m 1,4 C -2,5 C 24,1 km/h (4 Bft)
30.01.2023 12:48 3,3 C 5,0 C 87 % 1022,2 hPa 0,0 l/m 14,0 km/h (3 Bft) W 265 3 min 1,1 UV-I 250 W/m 1,3 C -2,4 C 24,1 km/h (4 Bft)
30.01.2023 12:51 3,2 C 3,9 C 86 % 1022,2 hPa 0,0 l/m 10,3 km/h (2 Bft) W-SW 248 0 min 0,7 UV-I 110 W/m 1,1 C -0,1 C 19,3 km/h (3 Bft)
30.01.2023 12:54 3,1 C 3,3 C 86 % 1022,3 hPa 0,0 l/m 12,1 km/h (2 Bft) W-NW 292 0 min 0,6 UV-I 88 W/m 1,0 C -1,5 C 22,5 km/h (4 Bft)
30.01.2023 12:57 3,0 C 2,8 C 87 % 1022,2 hPa 0,0 l/m 13,0 km/h (3 Bft) W 272 0 min 0,6 UV-I 91 W/m 1,1 C -2,2 C 24,1 km/h (4 Bft)
30.01.2023 13:00 3,0 C 2,8 C 87 % 1022,2 hPa 0,0 l/m 10,3 km/h (2 Bft) W 271 0 min 0,0 UV-I 63 W/m 1,1 C -0,4 C 19,3 km/h (3 Bft)
30.01.2023 13:03 2,9 C 2,8 C 87 % 1022,3 hPa 0,0 l/m 17,8 km/h (3 Bft) W 259 0 min 0,4 UV-I 80 W/m 1,0 C -4,9 C 35,4 km/h (5 Bft)
30.01.2023 13:06 2,9 C 2,8 C 87 % 1022,2 hPa 0,0 l/m 13,2 km/h (3 Bft) W-SW 240 0 min 0,7 UV-I 94 W/m 1,0 C -2,4 C 22,5 km/h (4 Bft)
30.01.2023 13:09 2,9 C 2,8 C 86 % 1022,4 hPa 0,0 l/m 14,5 km/h (3 Bft) W 267 0 min 0,6 UV-I 88 W/m 0,8 C -3,2 C 27,4 km/h (4 Bft)
30.01.2023 13:12 2,9 C 2,8 C 86 % 1022,2 hPa 0,0 l/m 13,3 km/h (3 Bft) SW 235 0 min 0,8 UV-I 111 W/m 0,8 C -2,5 C 24,1 km/h (4 Bft)
30.01.2023 13:15 3,0 C 2,8 C 86 % 1022,2 hPa 0,0 l/m 13,7 km/h (3 Bft) W 260 0 min 1,0 UV-I 140 W/m 0,9 C -2,6 C 24,1 km/h (4 Bft)
30.01.2023 13:18 3,0 C 3,9 C 86 % 1022,1 hPa 0,0 l/m 12,9 km/h (3 Bft) W 260 0 min 1,1 UV-I 140 W/m 0,9 C -2,1 C 20,9 km/h (4 Bft)
30.01.2023 13:21 3,2 C 6,1 C 86 % 1022,0 hPa 0,0 l/m 11,4 km/h (2 Bft) W 281 3 min 1,5 UV-I 300 W/m 1,1 C -0,9 C 27,4 km/h (4 Bft)
30.01.2023 13:24 3,3 C 5,6 C 85 % 1022,0 hPa 0,0 l/m 16,4 km/h (3 Bft) W-SW 250 0 min 1,4 UV-I 236 W/m 1,0 C -3,7 C 25,7 km/h (4 Bft)
30.01.2023 13:27 3,3 C 4,4 C 85 % 1022,2 hPa 0,0 l/m 16,7 km/h (3 Bft) NW 307 0 min 1,1 UV-I 184 W/m 1,0 C -3,9 C 29,0 km/h (5 Bft)
30.01.2023 13:30 3,3 C 3,9 C 85 % 1022,1 hPa 0,0 l/m 17,1 km/h (3 Bft) W 264 0 min 0,9 UV-I 132 W/m 1,0 C -4,1 C 24,1 km/h (4 Bft)
30.01.2023 13:33 3,2 C 3,3 C 85 % 1022,1 hPa 0,0 l/m 10,8 km/h (2 Bft) W-SW 242 0 min 0,6 UV-I 98 W/m 0,9 C -0,5 C 22,5 km/h (4 Bft)
30.01.2023 13:36 3,2 C 2,8 C 85 % 1022,1 hPa 0,0 l/m 16,3 km/h (3 Bft) W 264 0 min 0,6 UV-I 100 W/m 0,9 C -3,8 C 33,8 km/h (5 Bft)
30.01.2023 13:39 3,1 C 3,3 C 85 % 1022,1 hPa 0,0 l/m 13,5 km/h (3 Bft) W 259 0 min 0,7 UV-I 110 W/m 0,8 C -2,4 C 24,1 km/h (4 Bft)
30.01.2023 13:42 3,1 C 2,8 C 86 % 1022,2 hPa 0,0 l/m 9,8 km/h (2 Bft) W 276 0 min 0,8 UV-I 102 W/m 1,0 C 0,1 C 16,1 km/h (3 Bft)
30.01.2023 13:45 3,1 C 2,8 C 86 % 1022,1 hPa 0,0 l/m 11,8 km/h (2 Bft) W-SW 256 0 min 0,6 UV-I 92 W/m 1,0 C -1,3 C 20,9 km/h (4 Bft)
30.01.2023 13:48 3,0 C 2,8 C 86 % 1022,1 hPa 0,0 l/m 11,2 km/h (2 Bft) W 265 0 min 0,9 UV-I 121 W/m 0,9 C -1,0 C 20,9 km/h (4 Bft)
30.01.2023 13:51 3,0 C 2,8 C 86 % 1022,1 hPa 0,0 l/m 14,5 km/h (3 Bft) W 261 0 min 1,0 UV-I 139 W/m 0,9 C -3,1 C 25,7 km/h (4 Bft)
30.01.2023 13:54 3,0 C 2,8 C 86 % 1022,0 hPa 0,0 l/m 13,7 km/h (3 Bft) SW 217 0 min 0,8 UV-I 129 W/m 0,9 C -2,6 C 32,2 km/h (5 Bft)
30.01.2023 13:57 3,1 C 2,8 C 86 % 1022,0 hPa 0,0 l/m 10,0 km/h (2 Bft) W-SW 254 0 min 0,7 UV-I 127 W/m 1,0 C -0,0 C 24,1 km/h (4 Bft)
30.01.2023 14:00 3,0 C 2,8 C 85 % 1022,2 hPa 0,0 l/m 11,4 km/h (2 Bft) W-SW 242 0 min 0,6 UV-I 110 W/m 0,7 C -1,1 C 19,3 km/h (3 Bft)
30.01.2023 14:03 3,0 C 2,8 C 85 % 1022,0 hPa 0,0 l/m 15,5 km/h (3 Bft) W-SW 254 0 min 0,6 UV-I 101 W/m 0,7 C -3,6 C 24,1 km/h (4 Bft)
30.01.2023 14:06 3,1 C 2,8 C 85 % 1022,1 hPa 0,0 l/m 14,4 km/h (3 Bft) NW 308 0 min 0,8 UV-I 124 W/m 0,8 C -2,9 C 32,2 km/h (5 Bft)
30.01.2023 14:09 3,1 C 2,8 C 84 % 1022,2 hPa 0,0 l/m 15,4 km/h (3 Bft) W-SW 247 0 min 0,6 UV-I 96 W/m 0,7 C -3,4 C 24,1 km/h (4 Bft)
30.01.2023 14:12 3,0 C 2,8 C 84 % 1022,4 hPa 0,0 l/m 14,6 km/h (3 Bft) W 269 0 min 0,5 UV-I 88 W/m 0,6 C -3,1 C 25,7 km/h (4 Bft)
30.01.2023 14:15 3,1 C 2,8 C 84 % 1022,4 hPa 0,0 l/m 13,8 km/h (3 Bft) W-NW 284 0 min 0,8 UV-I 125 W/m 0,7 C -2,5 C 24,1 km/h (4 Bft)
30.01.2023 14:18 3,1 C 3,3 C 84 % 1022,5 hPa 0,0 l/m 12,1 km/h (2 Bft) SW 234 0 min 0,8 UV-I 150 W/m 0,7 C -1,5 C 24,1 km/h (4 Bft)
30.01.2023 14:21 3,1 C 3,3 C 84 % 1022,5 hPa 0,0 l/m 18,4 km/h (3 Bft) W 272 0 min 0,9 UV-I 168 W/m 0,7 C -4,9 C 29,0 km/h (5 Bft)
30.01.2023 14:24 3,1 C 3,3 C 84 % 1022,4 hPa 0,0 l/m 11,7 km/h (2 Bft) W-SW 244 0 min 0,9 UV-I 163 W/m 0,7 C -1,2 C 20,9 km/h (4 Bft)
30.01.2023 14:27 3,1 C 3,3 C 84 % 1022,3 hPa 0,0 l/m 13,4 km/h (3 Bft) W 269 0 min 0,8 UV-I 138 W/m 0,7 C -2,3 C 25,7 km/h (4 Bft)
30.01.2023 14:30 3,1 C 3,3 C 84 % 1022,4 hPa 0,0 l/m 15,8 km/h (3 Bft) W-NW 289 0 min 0,8 UV-I 152 W/m 0,7 C -3,7 C 38,6 km/h (5 Bft)
30.01.2023 14:33 3,1 C 2,8 C 84 % 1022,4 hPa 0,0 l/m 17,9 km/h (3 Bft) W 269 0 min 0,7 UV-I 123 W/m 0,7 C -4,7 C 37,0 km/h (5 Bft)
30.01.2023 14:36 3,1 C 3,3 C 84 % 1022,5 hPa 0,0 l/m 11,3 km/h (2 Bft) W-SW 242 0 min 0,8 UV-I 169 W/m 0,7 C -1,0 C 22,5 km/h (4 Bft)
30.01.2023 14:39 3,1 C 3,3 C 84 % 1022,5 hPa 0,0 l/m 8,6 km/h (2 Bft) W 265 0 min 0,8 UV-I 157 W/m 0,7 C 1,1 C 20,9 km/h (4 Bft)
30.01.2023 14:42 3,1 C 3,3 C 84 % 1022,5 hPa 0,0 l/m 12,2 km/h (2 Bft) W-SW 250 0 min 0,6 UV-I 120 W/m 0,7 C -1,6 C 24,1 km/h (4 Bft)
30.01.2023 14:45 3,0 C 2,8 C 84 % 1022,5 hPa 0,0 l/m 15,0 km/h (3 Bft) W-SW 244 0 min 0,7 UV-I 99 W/m 0,6 C -3,3 C 24,1 km/h (4 Bft)
30.01.2023 14:48 3,0 C 2,8 C 85 % 1022,5 hPa 0,0 l/m 16,0 km/h (3 Bft) W-SW 252 0 min 0,7 UV-I 107 W/m 0,7 C -3,9 C 27,4 km/h (4 Bft)
30.01.2023 14:51 2,9 C 2,8 C 85 % 1022,5 hPa 0,0 l/m 17,0 km/h (3 Bft) W 265 0 min 0,4 UV-I 88 W/m 0,6 C -4,5 C 32,2 km/h (5 Bft)
30.01.2023 14:54 2,9 C 2,2 C 85 % 1022,6 hPa 0,0 l/m 10,9 km/h (2 Bft) W 280 0 min 0,0 UV-I 64 W/m 0,6 C -0,9 C 20,9 km/h (4 Bft)
30.01.2023 14:57 2,8 C 2,2 C 85 % 1022,6 hPa 0,0 l/m 9,7 km/h (2 Bft) W 261 0 min 0,0 UV-I 76 W/m 0,5 C -0,1 C 19,3 km/h (3 Bft)
30.01.2023 15:00 2,8 C 2,2 C 86 % 1022,7 hPa 0,0 l/m 9,9 km/h (2 Bft) W 263 0 min 0,6 UV-I 122 W/m 0,7 C -0,3 C 19,3 km/h (3 Bft)
30.01.2023 15:03 2,8 C 2,2 C 86 % 1022,8 hPa 0,0 l/m 12,7 km/h (3 Bft) SW 224 0 min 0,5 UV-I 96 W/m 0,7 C -2,2 C 24,1 km/h (4 Bft)
30.01.2023 15:06 2,8 C 2,2 C 86 % 1022,7 hPa 0,0 l/m 13,3 km/h (3 Bft) W 279 0 min 0,0 UV-I 66 W/m 0,7 C -2,6 C 22,5 km/h (4 Bft)
30.01.2023 15:09 2,8 C 2,2 C 86 % 1022,9 hPa 0,0 l/m 9,3 km/h (2 Bft) W-SW 237 0 min 0,0 UV-I 54 W/m 0,7 C 0,2 C 17,7 km/h (3 Bft)
30.01.2023 15:12 2,7 C 2,2 C 86 % 1022,9 hPa 0,0 l/m 8,4 km/h (2 Bft) SW 235 0 min 0,0 UV-I 63 W/m 0,6 C 0,8 C 17,7 km/h (3 Bft)
30.01.2023 15:15 2,7 C 2,2 C 86 % 1023,0 hPa 0,0 l/m 10,9 km/h (2 Bft) W 269 0 min 0,3 UV-I 90 W/m 0,6 C -1,1 C 20,9 km/h (4 Bft)
30.01.2023 15:18 2,7 C 2,2 C 87 % 1023,0 hPa 0,0 l/m 9,6 km/h (2 Bft) SW 234 0 min 0,5 UV-I 136 W/m 0,8 C -0,2 C 17,7 km/h (3 Bft)
30.01.2023 15:21 2,8 C 3,3 C 87 % 1023,0 hPa 0,0 l/m 11,0 km/h (2 Bft) W 275 0 min 0,6 UV-I 182 W/m 0,9 C -1,1 C 22,5 km/h (4 Bft)
30.01.2023 15:24 2,8 C 3,3 C 87 % 1023,0 hPa 0,0 l/m 8,0 km/h (2 Bft) W-SW 247 0 min 0,6 UV-I 167 W/m 0,9 C 1,3 C 16,1 km/h (3 Bft)
30.01.2023 15:27 2,9 C 3,9 C 86 % 1023,1 hPa 0,0 l/m 10,1 km/h (2 Bft) W-NW 289 0 min 0,6 UV-I 127 W/m 0,8 C -0,3 C 22,5 km/h (4 Bft)
30.01.2023 15:30 3,0 C 3,9 C 86 % 1023,1 hPa 0,0 l/m 13,8 km/h (3 Bft) W-SW 257 0 min 0,6 UV-I 177 W/m 0,9 C -2,7 C 22,5 km/h (4 Bft)
30.01.2023 15:33 2,9 C 3,3 C 86 % 1023,3 hPa 0,0 l/m 10,5 km/h (2 Bft) W 269 0 min 0,6 UV-I 118 W/m 0,8 C -0,6 C 20,9 km/h (4 Bft)
30.01.2023 15:36 3,1 C 3,9 C 85 % 1023,2 hPa 0,0 l/m 22,7 km/h (4 Bft) SW 225 0 min 0,6 UV-I 115 W/m 0,8 C -6,7 C 38,6 km/h (5 Bft)
30.01.2023 15:39 3,1 C 3,3 C 85 % 1023,3 hPa 0,0 l/m 16,0 km/h (3 Bft) W-SW 252 0 min 0,5 UV-I 116 W/m 0,8 C -3,8 C 25,7 km/h (4 Bft)
30.01.2023 15:42 3,1 C 3,9 C 84 % 1023,3 hPa 0,0 l/m 11,7 km/h (2 Bft) SW 221 0 min 0,5 UV-I 140 W/m 0,7 C -1,2 C 20,9 km/h (4 Bft)
30.01.2023 15:45 3,1 C 4,4 C 84 % 1023,3 hPa 0,0 l/m 10,0 km/h (2 Bft) W 270 0 min 0,5 UV-I 167 W/m 0,7 C -0,0 C 24,1 km/h (4 Bft)
30.01.2023 15:48 3,2 C 4,4 C 83 % 1023,3 hPa 0,0 l/m 12,0 km/h (2 Bft) W-SW 244 0 min 0,5 UV-I 173 W/m 0,6 C -1,3 C 25,7 km/h (4 Bft)
30.01.2023 15:51 3,1 C 3,9 C 83 % 1023,4 hPa 0,0 l/m 6,9 km/h (2 Bft) SW 230 0 min 0,5 UV-I 121 W/m 0,5 C 2,6 C 19,3 km/h (3 Bft)
30.01.2023 15:54 3,1 C 3,3 C 83 % 1023,4 hPa 0,0 l/m 10,5 km/h (2 Bft) W-SW 258 0 min 0,5 UV-I 122 W/m 0,5 C -0,4 C 20,9 km/h (4 Bft)
30.01.2023 15:57 3,1 C 3,3 C 83 % 1023,5 hPa 0,0 l/m 13,3 km/h (3 Bft) W-SW 256 0 min 0,3 UV-I 120 W/m 0,5 C -2,2 C 24,1 km/h (4 Bft)
30.01.2023 16:00 3,1 C 3,3 C 84 % 1023,6 hPa 0,0 l/m 9,9 km/h (2 Bft) W-SW 242 0 min 0,0 UV-I 110 W/m 0,7 C 0,0 C 22,5 km/h (4 Bft)
30.01.2023 16:03 3,1 C 3,3 C 84 % 1023,7 hPa 0,0 l/m 8,1 km/h (2 Bft) W-SW 244 0 min 0,0 UV-I 100 W/m 0,7 C 1,5 C 16,1 km/h (3 Bft)
30.01.2023 16:06 3,0 C 3,3 C 84 % 1023,8 hPa 0,0 l/m 11,7 km/h (2 Bft) W-SW 244 0 min 0,0 UV-I 104 W/m 0,6 C -1,3 C 25,7 km/h (4 Bft)
30.01.2023 16:09 3,0 C 3,3 C 84 % 1024,1 hPa 0,0 l/m 7,9 km/h (2 Bft) W-NW 282 0 min 0,0 UV-I 98 W/m 0,6 C 1,6 C 16,1 km/h (3 Bft)
30.01.2023 16:12 3,0 C 2,8 C 84 % 1023,9 hPa 0,0 l/m 9,8 km/h (2 Bft) W-SW 257 0 min 0,0 UV-I 68 W/m 0,6 C 0,0 C 24,1 km/h (4 Bft)
30.01.2023 16:15 2,9 C 2,8 C 84 % 1024,0 hPa 0,0 l/m 11,8 km/h (2 Bft) W-NW 286 0 min 0,0 UV-I 67 W/m 0,5 C -1,5 C 27,4 km/h (4 Bft)
30.01.2023 16:18 2,9 C 2,8 C 84 % 1024,1 hPa 0,0 l/m 10,4 km/h (2 Bft) W-SW 250 0 min 0,0 UV-I 51 W/m 0,5 C -0,5 C 22,5 km/h (4 Bft)
30.01.2023 16:21 2,9 C 2,8 C 84 % 1024,1 hPa 0,0 l/m 5,5 km/h (1 Bft) W-SW 251 0 min 0,0 UV-I 47 W/m 0,5 C 2,9 C 11,3 km/h (2 Bft)
30.01.2023 16:24 2,8 C 2,2 C 85 % 1024,2 hPa 0,0 l/m 10,4 km/h (2 Bft) SW 227 0 min 0,0 UV-I 46 W/m 0,5 C -0,7 C 20,9 km/h (4 Bft)
30.01.2023 16:27 2,8 C 2,2 C 85 % 1024,2 hPa 0,0 l/m 10,2 km/h (2 Bft) W-SW 253 0 min 0,0 UV-I 49 W/m 0,5 C -0,5 C 19,3 km/h (3 Bft)
30.01.2023 16:30 2,8 C 2,8 C 85 % 1024,3 hPa 0,0 l/m 11,4 km/h (2 Bft) W 269 0 min 0,0 UV-I 51 W/m 0,5 C -1,4 C 27,4 km/h (4 Bft)
30.01.2023 16:33 2,8 C 2,2 C 84 % 1024,4 hPa 0,0 l/m 6,1 km/h (2 Bft) W-NW 282 0 min 0,0 UV-I 50 W/m 0,4 C 2,8 C 17,7 km/h (3 Bft)
30.01.2023 16:36 2,8 C 2,8 C 84 % 1024,3 hPa 0,0 l/m 9,4 km/h (2 Bft) W-SW 239 0 min 0,0 UV-I 54 W/m 0,4 C 0,1 C 17,7 km/h (3 Bft)
30.01.2023 16:39 2,8 C 2,8 C 84 % 1024,4 hPa 0,0 l/m 9,6 km/h (2 Bft) W-SW 252 0 min 0,0 UV-I 63 W/m 0,4 C -0,0 C 20,9 km/h (4 Bft)
30.01.2023 16:42 2,8 C 2,8 C 85 % 1024,5 hPa 0,0 l/m 9,0 km/h (2 Bft) W-SW 240 0 min 0,0 UV-I 82 W/m 0,5 C 0,4 C 22,5 km/h (4 Bft)
30.01.2023 16:45 2,8 C 2,8 C 85 % 1024,4 hPa 0,0 l/m 9,3 km/h (2 Bft) W 261 0 min 0,0 UV-I 77 W/m 0,5 C 0,2 C 22,5 km/h (4 Bft)
30.01.2023 16:48 2,8 C 2,2 C 84 % 1024,4 hPa 0,0 l/m 13,2 km/h (3 Bft) W-NW 291 0 min 0,0 UV-I 57 W/m 0,4 C -2,5 C 22,5 km/h (4 Bft)
30.01.2023 16:51 2,8 C 2,2 C 84 % 1024,5 hPa 0,0 l/m 6,7 km/h (2 Bft) W-NW 292 0 min 0,0 UV-I 45 W/m 0,4 C 2,5 C 16,1 km/h (3 Bft)
30.01.2023 16:54 2,7 C 2,2 C 84 % 1024,6 hPa 0,0 l/m 10,9 km/h (2 Bft) W 273 0 min 0,0 UV-I 43 W/m 0,3 C -1,1 C 19,3 km/h (3 Bft)
30.01.2023 16:57 2,7 C 2,2 C 84 % 1024,8 hPa 0,0 l/m 9,1 km/h (2 Bft) W 273 0 min 0,0 UV-I 30 W/m 0,3 C 0,2 C 25,7 km/h (4 Bft)
30.01.2023 17:00 2,7 C 2,2 C 84 % 1024,8 hPa 0,0 l/m 10,1 km/h (2 Bft) W 275 0 min 0,0 UV-I 25 W/m 0,3 C -0,5 C 20,9 km/h (4 Bft)
30.01.2023 17:03 2,7 C 2,2 C 84 % 1024,9 hPa 0,0 l/m 13,6 km/h (3 Bft) SW 235 0 min 0,0 UV-I 15 W/m 0,3 C -2,9 C 25,7 km/h (4 Bft)
30.01.2023 17:06 2,7 C 2,2 C 84 % 1024,9 hPa 0,0 l/m 9,6 km/h (2 Bft) W-SW 257 0 min 0,0 UV-I 9 W/m 0,3 C -0,2 C 17,7 km/h (3 Bft)
30.01.2023 17:09 2,6 C 1,7 C 84 % 1024,8 hPa 0,0 l/m 7,2 km/h (2 Bft) W 271 0 min 0,0 UV-I 7 W/m 0,2 C 1,8 C 16,1 km/h (3 Bft)
30.01.2023 17:12 2,6 C 1,7 C 84 % 1024,8 hPa 0,0 l/m 5,2 km/h (1 Bft) W-SW 258 0 min 0,0 UV-I 6 W/m 0,2 C 2,6 C 14,5 km/h (3 Bft)
30.01.2023 17:15 2,5 C 1,7 C 85 % 1024,9 hPa 0,0 l/m 5,9 km/h (2 Bft) SW 227 0 min 0,0 UV-I 5 W/m 0,2 C 2,5 C 14,5 km/h (3 Bft)
30.01.2023 17:18 2,5 C 1,7 C 85 % 1025,0 hPa 0,0 l/m 10,2 km/h (2 Bft) W-SW 249 0 min 0,0 UV-I 5 W/m 0,2 C -0,8 C 17,7 km/h (3 Bft)
30.01.2023 17:21 2,4 C 1,7 C 85 % 1024,9 hPa 0,0 l/m 7,4 km/h (2 Bft) SW 235 0 min 0,0 UV-I 5 W/m 0,1 C 1,4 C 14,5 km/h (3 Bft)
30.01.2023 17:24 2,4 C 1,7 C 85 % 1025,0 hPa 0,0 l/m 8,2 km/h (2 Bft) W 263 0 min 0,0 UV-I 3 W/m 0,1 C 0,7 C 17,7 km/h (3 Bft)
30.01.2023 17:27 2,4 C 1,7 C 85 % 1025,1 hPa 0,0 l/m 4,8 km/h (1 Bft) W 269 0 min 0,0 UV-I 0 W/m 0,1 C 2,4 C 11,3 km/h (2 Bft)
30.01.2023 17:30 2,4 C 1,7 C 85 % 1025,0 hPa 0,0 l/m 7,8 km/h (2 Bft) W-SW 258 0 min 0,0 UV-I 0 W/m 0,1 C 1,1 C 12,9 km/h (3 Bft)
30.01.2023 17:33 2,3 C 1,7 C 85 % 1025,1 hPa 0,0 l/m 6,2 km/h (2 Bft) W-SW 253 0 min 0,0 UV-I 0 W/m 0,0 C 2,3 C 19,3 km/h (3 Bft)
30.01.2023 17:36 2,3 C 1,7 C 86 % 1025,1 hPa 0,0 l/m 8,8 km/h (2 Bft) W 261 0 min 0,0 UV-I 0 W/m 0,2 C 0,1 C 17,7 km/h (3 Bft)
30.01.2023 17:39 2,3 C 1,7 C 85 % 1025,1 hPa 0,0 l/m 6,8 km/h (2 Bft) W-SW 255 0 min 0,0 UV-I 0 W/m 0,0 C 1,9 C 12,9 km/h (3 Bft)
30.01.2023 17:42 2,2 C 1,7 C 86 % 1025,2 hPa 0,0 l/m 9,2 km/h (2 Bft) W-SW 238 0 min 0,0 UV-I 0 W/m 0,1 C -0,4 C 17,7 km/h (3 Bft)
30.01.2023 17:45 2,3 C 1,7 C 86 % 1025,3 hPa 0,0 l/m 7,7 km/h (2 Bft) W-SW 252 0 min 0,0 UV-I 0 W/m 0,2 C 1,0 C 14,5 km/h (3 Bft)
30.01.2023 17:48 2,3 C 1,7 C 86 % 1025,4 hPa 0,0 l/m 5,7 km/h (1 Bft) W-SW 255 0 min 0,0 UV-I 0 W/m 0,2 C 2,3 C 11,3 km/h (2 Bft)
30.01.2023 17:51 2,2 C 1,1 C 86 % 1025,4 hPa 0,0 l/m 6,5 km/h (2 Bft) SW 236 0 min 0,0 UV-I 0 W/m 0,1 C 2,1 C 12,9 km/h (3 Bft)
30.01.2023 17:54 2,2 C 1,7 C 86 % 1025,4 hPa 0,0 l/m 6,7 km/h (2 Bft) W 264 0 min 0,0 UV-I 0 W/m 0,1 C 1,9 C 14,5 km/h (3 Bft)
30.01.2023 17:57 2,2 C 1,7 C 86 % 1025,4 hPa 0,0 l/m 5,7 km/h (1 Bft) W 262 0 min 0,0 UV-I 0 W/m 0,1 C 2,2 C 11,3 km/h (2 Bft)
30.01.2023 18:00 2,2 C 1,7 C 86 % 1025,4 hPa 0,0 l/m 7,6 km/h (2 Bft) W 266 0 min 0,0 UV-I 0 W/m 0,1 C 1,0 C 16,1 km/h (3 Bft)
30.01.2023 18:03 2,2 C 1,7 C 86 % 1025,5 hPa 0,0 l/m 4,2 km/h (1 Bft) W-SW 251 0 min 0,0 UV-I 0 W/m 0,1 C 2,2 C 9,7 km/h (2 Bft)
30.01.2023 18:06 2,2 C 1,7 C 86 % 1025,4 hPa 0,0 l/m 7,5 km/h (2 Bft) W 261 0 min 0,0 UV-I 0 W/m 0,1 C 1,1 C 14,5 km/h (3 Bft)
30.01.2023 18:09 2,2 C 1,7 C 86 % 1025,5 hPa 0,0 l/m 7,8 km/h (2 Bft) SW 230 0 min 0,0 UV-I 0 W/m 0,1 C 0,8 C 17,7 km/h (3 Bft)
30.01.2023 18:12 2,2 C 1,7 C 86 % 1025,6 hPa 0,0 l/m 7,6 km/h (2 Bft) SW 215 0 min 0,0 UV-I 0 W/m 0,1 C 1,0 C 12,9 km/h (3 Bft)
30.01.2023 18:15 2,2 C 1,1 C 86 % 1025,6 hPa 0,0 l/m 6,2 km/h (2 Bft) W 277 0 min 0,0 UV-I 0 W/m 0,1 C 2,2 C 11,3 km/h (2 Bft)
30.01.2023 18:18 2,2 C 1,1 C 86 % 1025,7 hPa 0,0 l/m 5,1 km/h (1 Bft) W-SW 242 0 min 0,0 UV-I 0 W/m 0,1 C 2,2 C 9,7 km/h (2 Bft)
30.01.2023 18:21 2,2 C 1,1 C 86 % 1025,7 hPa 0,0 l/m 4,1 km/h (1 Bft) W-SW 257 0 min 0,0 UV-I 0 W/m 0,1 C 2,2 C 9,7 km/h (2 Bft)
30.01.2023 18:24 2,1 C 1,1 C 86 % 1025,7 hPa 0,0 l/m 5,9 km/h (2 Bft) W-SW 257 0 min 0,0 UV-I 0 W/m 0,0 C 2,1 C 16,1 km/h (3 Bft)
30.01.2023 18:27 2,1 C 1,1 C 87 % 1025,8 hPa 0,0 l/m 7,3 km/h (2 Bft) W-SW 238 0 min 0,0 UV-I 0 W/m 0,2 C 1,2 C 12,9 km/h (3 Bft)
30.01.2023 18:30 2,1 C 1,1 C 87 % 1025,8 hPa 0,0 l/m 5,8 km/h (2 Bft) SW 228 0 min 0,0 UV-I 0 W/m 0,2 C 2,1 C 12,9 km/h (3 Bft)
30.01.2023 18:33 2,1 C 1,1 C 87 % 1025,9 hPa 0,0 l/m 8,4 km/h (2 Bft) SW 219 0 min 0,0 UV-I 0 W/m 0,2 C 0,2 C 14,5 km/h (3 Bft)
30.01.2023 18:36 2,1 C 1,1 C 87 % 1026,0 hPa 0,0 l/m 7,5 km/h (2 Bft) W-SW 257 0 min 0,0 UV-I 0 W/m 0,2 C 1,0 C 16,1 km/h (3 Bft)
30.01.2023 18:39 2,1 C 1,1 C 87 % 1025,9 hPa 0,0 l/m 7,0 km/h (2 Bft) W 265 0 min 0,0 UV-I 0 W/m 0,2 C 1,5 C 12,9 km/h (3 Bft)
30.01.2023 18:42 2,0 C 1,1 C 87 % 1026,0 hPa 0,0 l/m 6,8 km/h (2 Bft) W 268 0 min 0,0 UV-I 0 W/m 0,1 C 1,6 C 11,3 km/h (2 Bft)
30.01.2023 18:45 1,9 C 1,1 C 87 % 1026,0 hPa 0,0 l/m 6,0 km/h (2 Bft) W 259 0 min 0,0 UV-I 0 W/m -0,0 C 1,9 C 14,5 km/h (3 Bft)
30.01.2023 18:48 1,9 C 1,1 C 87 % 1026,1 hPa 0,0 l/m 6,9 km/h (2 Bft) SW 228 0 min 0,0 UV-I 0 W/m -0,0 C 1,4 C 12,9 km/h (3 Bft)
30.01.2023 18:51 1,9 C 1,1 C 87 % 1026,1 hPa 0,0 l/m 8,9 km/h (2 Bft) W 259 0 min 0,0 UV-I 0 W/m -0,0 C -0,5 C 16,1 km/h (3 Bft)
30.01.2023 18:54 1,9 C 1,1 C 87 % 1026,2 hPa 0,0 l/m 9,7 km/h (2 Bft) SW 219 0 min 0,0 UV-I 0 W/m -0,0 C -1,1 C 16,1 km/h (3 Bft)
30.01.2023 18:57 1,9 C 1,7 C 87 % 1026,1 hPa 0,0 l/m 10,1 km/h (2 Bft) W 259 0 min 0,0 UV-I 0 W/m -0,0 C -1,4 C 17,7 km/h (3 Bft)
30.01.2023 19:00 1,9 C 1,1 C 87 % 1026,2 hPa 0,0 l/m 9,4 km/h (2 Bft) W-SW 251 0 min 0,0 UV-I 0 W/m -0,0 C -0,9 C 16,1 km/h (3 Bft)
30.01.2023 19:03 1,9 C 1,1 C 87 % 1026,2 hPa 0,0 l/m 6,8 km/h (2 Bft) W 263 0 min 0,0 UV-I 0 W/m -0,0 C 1,5 C 11,3 km/h (2 Bft)
30.01.2023 19:06 1,9 C 1,1 C 87 % 1026,2 hPa 0,0 l/m 8,0 km/h (2 Bft) W-SW 245 0 min 0,0 UV-I 0 W/m -0,0 C 0,3 C 19,3 km/h (3 Bft)
30.01.2023 19:09 1,9 C 1,1 C 87 % 1026,2 hPa 0,0 l/m 7,7 km/h (2 Bft) W-SW 257 0 min 0,0 UV-I 0 W/m -0,0 C 0,6 C 14,5 km/h (3 Bft)
30.01.2023 19:12 1,9 C 1,1 C 87 % 1026,2 hPa 0,0 l/m 7,7 km/h (2 Bft) W 261 0 min 0,0 UV-I 0 W/m -0,0 C 0,6 C 14,5 km/h (3 Bft)
30.01.2023 19:15 1,9 C 1,1 C 87 % 1026,1 hPa 0,0 l/m 6,2 km/h (2 Bft) SW 233 0 min 0,0 UV-I 0 W/m -0,0 C 1,9 C 14,5 km/h (3 Bft)
30.01.2023 19:18 1,9 C 1,1 C 87 % 1026,3 hPa 0,0 l/m 9,1 km/h (2 Bft) SW 223 0 min 0,0 UV-I 0 W/m -0,0 C -0,6 C 16,1 km/h (3 Bft)
30.01.2023 19:21 1,9 C 1,1 C 87 % 1026,3 hPa 0,0 l/m 6,5 km/h (2 Bft) SW 232 0 min 0,0 UV-I 0 W/m -0,0 C 1,8 C 16,1 km/h (3 Bft)
30.01.2023 19:24 1,8 C 1,1 C 87 % 1026,4 hPa 0,0 l/m 7,4 km/h (2 Bft) W-SW 258 0 min 0,0 UV-I 0 W/m -0,1 C 0,8 C 17,7 km/h (3 Bft)
30.01.2023 19:27 1,8 C 1,1 C 87 % 1026,3 hPa 0,0 l/m 7,2 km/h (2 Bft) W-SW 245 0 min 0,0 UV-I 0 W/m -0,1 C 1,0 C 12,9 km/h (3 Bft)
30.01.2023 19:30 1,8 C 1,1 C 87 % 1026,4 hPa 0,0 l/m 7,8 km/h (2 Bft) W-SW 258 0 min 0,0 UV-I 0 W/m -0,1 C 0,4 C 17,7 km/h (3 Bft)
30.01.2023 19:33 1,7 C 1,1 C 87 % 1026,5 hPa 0,0 l/m 6,3 km/h (2 Bft) W-SW 254 0 min 0,0 UV-I 0 W/m -0,2 C 1,7 C 11,3 km/h (2 Bft)
30.01.2023 19:36 1,7 C 1,1 C 87 % 1026,6 hPa 0,0 l/m 7,9 km/h (2 Bft) W 267 0 min 0,0 UV-I 0 W/m -0,2 C 0,2 C 17,7 km/h (3 Bft)
30.01.2023 19:39 1,7 C 1,1 C 87 % 1026,5 hPa 0,0 l/m 8,7 km/h (2 Bft) SW 232 0 min 0,0 UV-I 0 W/m -0,2 C -0,5 C 19,3 km/h (3 Bft)
30.01.2023 19:42 1,7 C 1,1 C 87 % 1026,7 hPa 0,0 l/m 10,8 km/h (2 Bft) SW 219 0 min 0,0 UV-I 0 W/m -0,2 C -2,2 C 24,1 km/h (4 Bft)
30.01.2023 19:45 1,7 C 1,1 C 87 % 1026,7 hPa 0,0 l/m 5,7 km/h (1 Bft) W-SW 237 0 min 0,0 UV-I 0 W/m -0,2 C 1,7 C 12,9 km/h (3 Bft)
30.01.2023 19:48 1,7 C 0,6 C 87 % 1026,7 hPa 0,0 l/m 9,1 km/h (2 Bft) SW 230 0 min 0,0 UV-I 0 W/m -0,2 C -0,8 C 19,3 km/h (3 Bft)
30.01.2023 19:51 1,6 C 0,6 C 87 % 1026,9 hPa 0,0 l/m 6,3 km/h (2 Bft) W 272 0 min 0,0 UV-I 0 W/m -0,3 C 1,6 C 16,1 km/h (3 Bft)
30.01.2023 19:54 1,6 C 1,1 C 87 % 1026,9 hPa 0,0 l/m 9,7 km/h (2 Bft) W 261 0 min 0,0 UV-I 0 W/m -0,3 C -1,4 C 14,5 km/h (3 Bft)
30.01.2023 19:57 1,6 C 1,1 C 87 % 1026,8 hPa 0,0 l/m 10,1 km/h (2 Bft) W-SW 246 0 min 0,0 UV-I 0 W/m -0,3 C -1,8 C 17,7 km/h (3 Bft)
30.01.2023 20:00 1,6 C 1,1 C 87 % 1026,9 hPa 0,0 l/m 8,7 km/h (2 Bft) SW 236 0 min 0,0 UV-I 0 W/m -0,3 C -0,6 C 17,7 km/h (3 Bft)
30.01.2023 20:03 1,6 C 1,1 C 87 % 1027,0 hPa 0,0 l/m 9,1 km/h (2 Bft) W-SW 253 0 min 0,0 UV-I 0 W/m -0,3 C -0,9 C 19,3 km/h (3 Bft)
30.01.2023 20:06 1,7 C 1,1 C 87 % 1027,1 hPa 0,0 l/m 9,3 km/h (2 Bft) W-SW 242 0 min 0,0 UV-I 0 W/m -0,2 C -1,0 C 14,5 km/h (3 Bft)
30.01.2023 20:09 1,7 C 1,1 C 87 % 1027,1 hPa 0,0 l/m 8,2 km/h (2 Bft) W-SW 238 0 min 0,0 UV-I 0 W/m -0,2 C -0,0 C 16,1 km/h (3 Bft)
30.01.2023 20:12 1,7 C 1,1 C 87 % 1027,0 hPa 0,0 l/m 6,7 km/h (2 Bft) W-SW 245 0 min 0,0 UV-I 0 W/m -0,2 C 1,4 C 14,5 km/h (3 Bft)
30.01.2023 20:15 1,7 C 1,1 C 87 % 1027,0 hPa 0,0 l/m 7,0 km/h (2 Bft) W 259 0 min 0,0 UV-I 0 W/m -0,2 C 1,1 C 14,5 km/h (3 Bft)
30.01.2023 20:18 1,7 C 1,1 C 87 % 1026,9 hPa 0,0 l/m 6,6 km/h (2 Bft) W 260 0 min 0,0 UV-I 0 W/m -0,2 C 1,5 C 14,5 km/h (3 Bft)
30.01.2023 20:21 1,7 C 1,1 C 87 % 1026,9 hPa 0,0 l/m 6,0 km/h (2 Bft) W-SW 255 0 min 0,0 UV-I 0 W/m -0,2 C 1,7 C 12,9 km/h (3 Bft)
30.01.2023 20:24 1,6 C 1,1 C 87 % 1027,0 hPa 0,0 l/m 5,6 km/h (1 Bft) W-SW 240 0 min 0,0 UV-I 0 W/m -0,3 C 1,6 C 12,9 km/h (3 Bft)
30.01.2023 20:27 1,6 C 1,1 C 87 % 1026,9 hPa 0,0 l/m 5,7 km/h (1 Bft) S-SW 202 0 min 0,0 UV-I 0 W/m -0,3 C 1,6 C 11,3 km/h (2 Bft)
30.01.2023 20:30 1,6 C 1,1 C 87 % 1027,0 hPa 0,0 l/m 5,6 km/h (1 Bft) W-SW 243 0 min 0,0 UV-I 0 W/m -0,3 C 1,6 C 11,3 km/h (2 Bft)
30.01.2023 20:33 1,6 C 1,1 C 87 % 1027,2 hPa 0,0 l/m 5,4 km/h (1 Bft) W 261 0 min 0,0 UV-I 0 W/m -0,3 C 1,6 C 11,3 km/h (2 Bft)
30.01.2023 20:36 1,6 C 1,1 C 87 % 1027,2 hPa 0,0 l/m 4,0 km/h (1 Bft) SW 236 0 min 0,0 UV-I 0 W/m -0,3 C 1,6 C 8,0 km/h (2 Bft)
30.01.2023 20:39 1,6 C 1,1 C 88 % 1027,1 hPa 0,0 l/m 3,9 km/h (1 Bft) W 266 0 min 0,0 UV-I 0 W/m -0,2 C 1,6 C 9,7 km/h (2 Bft)
30.01.2023 20:42 1,6 C 1,1 C 88 % 1027,1 hPa 0,0 l/m 5,2 km/h (1 Bft) W-SW 257 0 min 0,0 UV-I 0 W/m -0,2 C 1,6 C 11,3 km/h (2 Bft)
30.01.2023 20:45 1,6 C 1,1 C 88 % 1027,1 hPa 0,0 l/m 5,9 km/h (2 Bft) S-SW 195 0 min 0,0 UV-I 0 W/m -0,2 C 1,6 C 11,3 km/h (2 Bft)
30.01.2023 20:48 1,6 C 1,1 C 88 % 1027,1 hPa 0,0 l/m 6,4 km/h (2 Bft) W-SW 237 0 min 0,0 UV-I 0 W/m -0,2 C 1,6 C 12,9 km/h (3 Bft)
30.01.2023 20:51 1,6 C 1,1 C 88 % 1027,2 hPa 0,0 l/m 5,3 km/h (1 Bft) W-SW 245 0 min 0,0 UV-I 0 W/m -0,2 C 1,6 C 11,3 km/h (2 Bft)
30.01.2023 20:54 1,6 C 1,1 C 88 % 1027,2 hPa 0,0 l/m 5,0 km/h (1 Bft) SW 220 0 min 0,0 UV-I 0 W/m -0,2 C 1,6 C 9,7 km/h (2 Bft)
30.01.2023 20:57 1,6 C 1,1 C 88 % 1027,3 hPa 0,0 l/m 6,9 km/h (2 Bft) SW 229 0 min 0,0 UV-I 0 W/m -0,2 C 1,1 C 14,5 km/h (3 Bft)
30.01.2023 21:00 1,6 C 1,1 C 88 % 1027,4 hPa 0,0 l/m 5,3 km/h (1 Bft) W-SW 246 0 min 0,0 UV-I 0 W/m -0,2 C 1,6 C 11,3 km/h (2 Bft)
30.01.2023 21:03 1,7 C 1,1 C 88 % 1027,3 hPa 0,0 l/m 5,4 km/h (1 Bft) SW 235 0 min 0,0 UV-I 0 W/m -0,1 C 1,7 C 11,3 km/h (2 Bft)
30.01.2023 21:06 1,7 C 1,1 C 88 % 1027,3 hPa 0,0 l/m 6,7 km/h (2 Bft) W-SW 246 0 min 0,0 UV-I 0 W/m -0,1 C 1,4 C 17,7 km/h (3 Bft)
30.01.2023 21:09 1,6 C 1,1 C 88 % 1027,3 hPa 0,0 l/m 5,3 km/h (1 Bft) W-SW 253 0 min 0,0 UV-I 0 W/m -0,2 C 1,6 C 9,7 km/h (2 Bft)
30.01.2023 21:12 1,6 C 1,1 C 88 % 1027,3 hPa 0,0 l/m 5,9 km/h (2 Bft) SW 221 0 min 0,0 UV-I 0 W/m -0,2 C 1,6 C 14,5 km/h (3 Bft)
30.01.2023 21:15 1,7 C 1,1 C 88 % 1027,4 hPa 0,0 l/m 5,7 km/h (1 Bft) SW 224 0 min 0,0 UV-I 0 W/m -0,1 C 1,7 C 12,9 km/h (3 Bft)
30.01.2023 21:18 1,7 C 1,1 C 88 % 1027,5 hPa 0,0 l/m 7,1 km/h (2 Bft) W-SW 237 0 min 0,0 UV-I 0 W/m -0,1 C 1,0 C 19,3 km/h (3 Bft)
30.01.2023 21:21 1,7 C 1,1 C 88 % 1027,4 hPa 0,0 l/m 5,5 km/h (1 Bft) W-SW 250 0 min 0,0 UV-I 0 W/m -0,1 C 1,7 C 12,9 km/h (3 Bft)
30.01.2023 21:24 1,7 C 1,1 C 88 % 1027,4 hPa 0,0 l/m 8,5 km/h (2 Bft) W-SW 237 0 min 0,0 UV-I 0 W/m -0,1 C -0,3 C 16,1 km/h (3 Bft)
30.01.2023 21:27 1,7 C 1,1 C 88 % 1027,6 hPa 0,0 l/m 10,8 km/h (2 Bft) W 263 0 min 0,0 UV-I 0 W/m -0,1 C -2,2 C 16,1 km/h (3 Bft)
30.01.2023 21:30 1,7 C 1,1 C 88 % 1027,5 hPa 0,0 l/m 12,6 km/h (3 Bft) W 261 0 min 0,0 UV-I 0 W/m -0,1 C -3,4 C 22,5 km/h (4 Bft)
30.01.2023 21:33 1,7 C 1,1 C 88 % 1027,5 hPa 0,0 l/m 8,9 km/h (2 Bft) W-SW 257 0 min 0,0 UV-I 0 W/m -0,1 C -0,7 C 17,7 km/h (3 Bft)
30.01.2023 21:36 1,7 C 1,1 C 88 % 1027,5 hPa 0,0 l/m 10,4 km/h (2 Bft) W 261 0 min 0,0 UV-I 0 W/m -0,1 C -1,9 C 20,9 km/h (4 Bft)
30.01.2023 21:39 1,7 C 1,1 C 88 % 1027,7 hPa 0,0 l/m 8,4 km/h (2 Bft) W-SW 244 0 min 0,0 UV-I 0 W/m -0,1 C -0,2 C 17,7 km/h (3 Bft)
30.01.2023 21:42 1,7 C 1,1 C 88 % 1027,7 hPa 0,0 l/m 5,4 km/h (1 Bft) W-SW 239 0 min 0,0 UV-I 0 W/m -0,1 C 1,7 C 12,9 km/h (3 Bft)
30.01.2023 21:45 1,7 C 1,1 C 88 % 1027,7 hPa 0,0 l/m 7,7 km/h (2 Bft) W 261 0 min 0,0 UV-I 0 W/m -0,1 C 0,4 C 16,1 km/h (3 Bft)
30.01.2023 21:48 1,8 C 1,1 C 88 % 1027,8 hPa 0,0 l/m 8,6 km/h (2 Bft) S-SW 198 0 min 0,0 UV-I 0 W/m 0,0 C -0,3 C 17,7 km/h (3 Bft)
30.01.2023 21:51 1,8 C 1,1 C 88 % 1027,8 hPa 0,0 l/m 7,0 km/h (2 Bft) W-SW 238 0 min 0,0 UV-I 0 W/m 0,0 C 1,2 C 17,7 km/h (3 Bft)
30.01.2023 21:54 1,8 C 1,1 C 88 % 1027,7 hPa 0,0 l/m 7,6 km/h (2 Bft) SW 234 0 min 0,0 UV-I 0 W/m 0,0 C 0,6 C 14,5 km/h (3 Bft)
30.01.2023 21:57 1,7 C 1,1 C 88 % 1027,8 hPa 0,0 l/m 8,8 km/h (2 Bft) W-SW 255 0 min 0,0 UV-I 0 W/m -0,1 C -0,6 C 17,7 km/h (3 Bft)
30.01.2023 22:00 1,7 C 1,1 C 88 % 1027,8 hPa 0,0 l/m 8,9 km/h (2 Bft) W-SW 246 0 min 0,0 UV-I 0 W/m -0,1 C -0,7 C 14,5 km/h (3 Bft)
30.01.2023 22:03 1,7 C 1,1 C 88 % 1027,9 hPa 0,0 l/m 11,4 km/h (2 Bft) SW 236 0 min 0,0 UV-I 0 W/m -0,1 C -2,6 C 19,3 km/h (3 Bft)
30.01.2023 22:06 1,7 C 1,1 C 88 % 1027,9 hPa 0,0 l/m 11,3 km/h (2 Bft) W-SW 249 0 min 0,0 UV-I 0 W/m -0,1 C -2,6 C 17,7 km/h (3 Bft)
30.01.2023 22:09 1,7 C 1,1 C 88 % 1027,9 hPa 0,0 l/m 9,6 km/h (2 Bft) W 273 0 min 0,0 UV-I 0 W/m -0,1 C -1,3 C 14,5 km/h (3 Bft)
30.01.2023 22:12 1,8 C 1,1 C 88 % 1027,8 hPa 0,0 l/m 7,0 km/h (2 Bft) W 264 0 min 0,0 UV-I 0 W/m 0,0 C 1,2 C 14,5 km/h (3 Bft)
30.01.2023 22:15 1,7 C 1,1 C 88 % 1027,9 hPa 0,0 l/m 7,3 km/h (2 Bft) W 266 0 min 0,0 UV-I 0 W/m -0,1 C 0,8 C 16,1 km/h (3 Bft)
30.01.2023 22:18 1,7 C 1,1 C 88 % 1027,8 hPa 0,0 l/m 10,0 km/h (2 Bft) W-SW 238 0 min 0,0 UV-I 0 W/m -0,1 C -1,6 C 17,7 km/h (3 Bft)
30.01.2023 22:21 1,7 C 1,1 C 88 % 1027,9 hPa 0,0 l/m 8,7 km/h (2 Bft) W 265 0 min 0,0 UV-I 0 W/m -0,1 C -0,5 C 16,1 km/h (3 Bft)
30.01.2023 22:24 1,7 C 1,1 C 88 % 1028,0 hPa 0,0 l/m 8,2 km/h (2 Bft) SW 232 0 min 0,0 UV-I 0 W/m -0,1 C -0,0 C 16,1 km/h (3 Bft)
30.01.2023 22:27 1,7 C 1,1 C 88 % 1028,0 hPa 0,0 l/m 10,0 km/h (2 Bft) W-SW 246 0 min 0,0 UV-I 0 W/m -0,1 C -1,6 C 17,7 km/h (3 Bft)
30.01.2023 22:30 1,7 C 1,1 C 88 % 1028,0 hPa 0,0 l/m 5,3 km/h (1 Bft) W 262 0 min 0,0 UV-I 0 W/m -0,1 C 1,7 C 11,3 km/h (2 Bft)
30.01.2023 22:33 1,7 C 1,1 C 88 % 1028,0 hPa 0,0 l/m 10,3 km/h (2 Bft) W 265 0 min 0,0 UV-I 0 W/m -0,1 C -1,8 C 20,9 km/h (4 Bft)
30.01.2023 22:36 1,7 C 1,1 C 88 % 1028,0 hPa 0,0 l/m 6,8 km/h (2 Bft) W 259 0 min 0,0 UV-I 0 W/m -0,1 C 1,3 C 16,1 km/h (3 Bft)
30.01.2023 22:39 1,7 C 1,1 C 88 % 1028,0 hPa 0,0 l/m 11,6 km/h (2 Bft) SW 224 0 min 0,0 UV-I 0 W/m -0,1 C -2,8 C 19,3 km/h (3 Bft)
30.01.2023 22:42 1,7 C 1,1 C 88 % 1028,0 hPa 0,0 l/m 9,1 km/h (2 Bft) W-SW 244 0 min 0,0 UV-I 0 W/m -0,1 C -0,8 C 16,1 km/h (3 Bft)
30.01.2023 22:45 1,6 C 1,1 C 88 % 1028,1 hPa 0,0 l/m 7,0 km/h (2 Bft) W 263 0 min 0,0 UV-I 0 W/m -0,2 C 1,0 C 12,9 km/h (3 Bft)
30.01.2023 22:48 1,6 C 1,1 C 88 % 1028,2 hPa 0,0 l/m 8,3 km/h (2 Bft) W-SW 255 0 min 0,0 UV-I 0 W/m -0,2 C -0,2 C 16,1 km/h (3 Bft)
30.01.2023 22:51 1,6 C 1,1 C 88 % 1028,1 hPa 0,0 l/m 7,2 km/h (2 Bft) W-SW 252 0 min 0,0 UV-I 0 W/m -0,2 C 0,8 C 14,5 km/h (3 Bft)
30.01.2023 22:54 1,6 C 1,1 C 88 % 1028,1 hPa 0,0 l/m 4,2 km/h (1 Bft) W-SW 250 0 min 0,0 UV-I 0 W/m -0,2 C 1,6 C 8,0 km/h (2 Bft)
30.01.2023 22:57 1,6 C 1,1 C 88 % 1028,1 hPa 0,0 l/m 6,5 km/h (2 Bft) SW 234 0 min 0,0 UV-I 0 W/m -0,2 C 1,5 C 12,9 km/h (3 Bft)
30.01.2023 23:00 1,6 C 1,1 C 88 % 1028,1 hPa 0,0 l/m 5,9 km/h (2 Bft) SW 229 0 min 0,0 UV-I 0 W/m -0,2 C 1,6 C 11,3 km/h (2 Bft)
30.01.2023 23:03 1,6 C 1,1 C 88 % 1028,1 hPa 0,0 l/m 4,9 km/h (1 Bft) W-SW 253 0 min 0,0 UV-I 0 W/m -0,2 C 1,6 C 11,3 km/h (2 Bft)
30.01.2023 23:04 1,6 C 1,1 C 88 % 1028,1 hPa 0,0 l/m 4,8 km/h (1 Bft) SW 225 0 min 0,0 UV-I 0 W/m -0,2 C 1,6 C 8,0 km/h (2 Bft)
30.01.2023 23:05 1,6 C 1,1 C 88 % 1028,0 hPa 0,0 l/m 4,8 km/h (1 Bft) W-SW 247 0 min 0,0 UV-I 0 W/m -0,2 C 1,6 C 11,3 km/h (2 Bft)
30.01.2023 23:09 1,6 C 0,6 C 88 % 1028,1 hPa 0,0 l/m 4,9 km/h (1 Bft) W-SW 252 0 min 0,0 UV-I 0 W/m -0,2 C 1,6 C 12,9 km/h (3 Bft)
30.01.2023 23:12 1,4 C 0,6 C 88 % 1028,1 hPa 0,0 l/m 3,8 km/h (1 Bft) W-SW 241 0 min 0,0 UV-I 0 W/m -0,4 C 1,4 C 11,3 km/h (2 Bft)
30.01.2023 23:15 1,5 C 1,1 C 88 % 1028,3 hPa 0,0 l/m 6,5 km/h (2 Bft) W-SW 252 0 min 0,0 UV-I 0 W/m -0,3 C 1,4 C 14,5 km/h (3 Bft)
30.01.2023 23:18 1,5 C 1,1 C 88 % 1028,3 hPa 0,0 l/m 6,2 km/h (2 Bft) W-SW 242 0 min 0,0 UV-I 0 W/m -0,3 C 1,5 C 14,5 km/h (3 Bft)
30.01.2023 23:21 1,4 C 1,1 C 88 % 1028,2 hPa 0,0 l/m 8,4 km/h (2 Bft) W-SW 255 0 min 0,0 UV-I 0 W/m -0,4 C -0,5 C 16,1 km/h (3 Bft)
30.01.2023 23:24 1,4 C 0,6 C 88 % 1028,3 hPa 0,0 l/m 11,2 km/h (2 Bft) W 269 0 min 0,0 UV-I 0 W/m -0,4 C -2,8 C 19,3 km/h (3 Bft)
30.01.2023 23:27 1,4 C 0,6 C 88 % 1028,4 hPa 0,0 l/m 9,4 km/h (2 Bft) SW 219 0 min 0,0 UV-I 0 W/m -0,4 C -1,4 C 17,7 km/h (3 Bft)
30.01.2023 23:30 1,4 C 0,6 C 88 % 1028,2 hPa 0,0 l/m 8,2 km/h (2 Bft) W-SW 257 0 min 0,0 UV-I 0 W/m -0,4 C -0,4 C 14,5 km/h (3 Bft)
30.01.2023 23:33 1,4 C 0,6 C 88 % 1028,4 hPa 0,0 l/m 8,6 km/h (2 Bft) SW 232 0 min 0,0 UV-I 0 W/m -0,4 C -0,7 C 14,5 km/h (3 Bft)
30.01.2023 23:36 1,4 C 0,6 C 88 % 1028,4 hPa 0,0 l/m 8,3 km/h (2 Bft) W-SW 257 0 min 0,0 UV-I 0 W/m -0,4 C -0,5 C 12,9 km/h (3 Bft)
30.01.2023 23:39 1,4 C 0,6 C 89 % 1028,3 hPa 0,0 l/m 7,1 km/h (2 Bft) W-SW 257 0 min 0,0 UV-I 0 W/m -0,2 C 0,7 C 14,5 km/h (3 Bft)
30.01.2023 23:42 1,4 C 0,6 C 89 % 1028,4 hPa 0,0 l/m 10,3 km/h (2 Bft) W-SW 248 0 min 0,0 UV-I 0 W/m -0,2 C -2,1 C 19,3 km/h (3 Bft)
30.01.2023 23:45 1,4 C 1,1 C 89 % 1028,4 hPa 0,0 l/m 7,7 km/h (2 Bft) SW 226 0 min 0,0 UV-I 0 W/m -0,2 C 0,1 C 17,7 km/h (3 Bft)
30.01.2023 23:48 1,4 C 0,6 C 89 % 1028,4 hPa 0,0 l/m 5,8 km/h (2 Bft) W 271 0 min 0,0 UV-I 0 W/m -0,2 C 1,4 C 14,5 km/h (3 Bft)
30.01.2023 23:51 1,4 C 0,6 C 89 % 1028,4 hPa 0,0 l/m 6,6 km/h (2 Bft) SW 217 0 min 0,0 UV-I 0 W/m -0,2 C 1,2 C 12,9 km/h (3 Bft)
30.01.2023 23:54 1,4 C 0,6 C 89 % 1028,3 hPa 0,0 l/m 7,3 km/h (2 Bft) W 263 0 min 0,0 UV-I 0 W/m -0,2 C 0,5 C 14,5 km/h (3 Bft)
30.01.2023 23:57 1,3 C 0,6 C 89 % 1028,4 hPa 0,0 l/m 6,3 km/h (2 Bft) W-SW 254 0 min 0,0 UV-I 0 W/m -0,3 C 1,3 C 12,9 km/h (3 Bft)
30.01.2023 23:58 1,3 C 0,6 C 89 % 1028,5 hPa 0,0 l/m 6,4 km/h (2 Bft) W-SW 247 0 min 0,0 UV-I 0 W/m -0,3 C 1,3 C 11,3 km/h (2 Bft)
30.01.2023 23:59 1,3 C 0,6 C 89 % 1028,5 hPa 0,0 l/m 11,3 km/h (2 Bft) W-SW 247 0 min 0,0 UV-I 0 W/m -0,3 C -3,0 C 19,3 km/h (3 Bft)
_ Min-Zeit 00:02 00:02 15:48 06:35 - 23:12 - - - - - 00:00 03:07 20:36
Minimum _ -1,5 C -1,7 C 83 % 1021,4 hPa - 3,8 km/h (1 Bft) - - - - - -2,4 C -12,8 C 8,0 km/h (2 Bft)
_ Max-Zeit 12:48 12:45 09:39 23:58 06:57 03:07 - - 12:48 12:45 13:21 10:57 16:21 02:33
Maximum _ 3,3 C 6,1 C 95 % 1028,5 hPa 0,2 l/m 25,7 km/h
S-SW (4 Bft)
- - 3 min 1,6 UV-I 300 W/m 1,9 C 2,9 C 40,2 km/h
S-SO (6 Bft)
Durchschnitt _ 1,4 C 1,0 C 90 % 1024,1 hPa #1,0 l/m 11,7 km/h (2 Bft) S-SW - #6 min. 0,7 UV-I 85 W/m -0,1 C -3,0 C 19,8 km/h (4 Bft)